| time (UTC) | temp C | wind direction | speed KPH | gust KPH | rain 1hr cm | rain 24hr cm | rain mn cm | humidity % | barometer mb |
| 20260831225725 | 35 | 360 | 9.7 | 19.3 | 0.00 | 0.00 | 0.00 | 45 | 1014.3 |
| 20260831225629 | 35 | 360 | 11.3 | 19.3 | 0.00 | 0.00 | 0.00 | 45 | 1014.4 |
| 20260831225549 | 35 | 144 | 12.9 | 19.3 | 0.00 | 0.00 | 0.00 | 45 | 1014.4 |
| 20260831225429 | 35 | 360 | 12.9 | 19.3 | 0.00 | 0.00 | 0.00 | 44 | 1014.3 |
| 20260831225329 | 35 | 360 | 11.3 | 19.3 | 0.00 | 0.00 | 0.00 | 44 | 1014.3 |
| 20260831225229 | 35 | 360 | 9.7 | 19.3 | 0.00 | 0.00 | 0.00 | 44 | 1014.3 |
| 20260831225130 | 35 | 360 | 9.7 | 19.3 | 0.00 | 0.00 | 0.00 | 45 | 1014.3 |
| 20260831225030 | 35 | 360 | 11.3 | 19.3 | 0.00 | 0.00 | 0.00 | 44 | 1014.3 |
| 20260831224935 | 35 | 360 | 11.3 | 19.3 | 0.00 | 0.00 | 0.00 | 44 | 1014.4 |
| 20260831224836 | 35 | 360 | 11.3 | 19.3 | 0.00 | 0.00 | 0.00 | 44 | 1014.2 |
| 20260831224735 | 35 | 360 | 9.7 | 19.3 | 0.00 | 0.00 | 0.00 | 44 | 1014.3 |
| 20260831224635 | 35 | 360 | 9.7 | 17.7 | 0.00 | 0.00 | 0.00 | 44 | 1014.3 |
| 20260831224516 | 35 | 360 | 9.7 | 17.7 | 0.00 | 0.00 | 0.00 | 44 | 1014.3 |
| 20260831224416 | 35 | 360 | 9.7 | 20.9 | 0.00 | 0.00 | 0.00 | 46 | 1014.3 |
| 20260831224321 | 35 | 360 | 8.0 | 20.9 | 0.00 | 0.00 | 0.00 | 44 | 1014.3 |
| 20260831224220 | 35 | 360 | 8.0 | 20.9 | 0.00 | 0.00 | 0.00 | 44 | 1014.3 |
| 20260831224121 | 35 | 78 | 8.0 | 20.9 | 0.00 | 0.00 | 0.00 | 44 | 1014.3 |
| 20260831224022 | 35 | 360 | 8.0 | 20.9 | 0.00 | 0.00 | 0.00 | 44 | 1014.3 |
| 20260831223921 | 35 | 360 | 9.7 | 20.9 | 0.00 | 0.00 | 0.00 | 45 | 1014.3 |
| 20260831223821 | 35 | 360 | 9.7 | 20.9 | 0.00 | 0.00 | 0.00 | 45 | 1014.4 |
| 20260831223721 | 35 | 360 | 12.9 | 22.5 | 0.00 | 0.00 | 0.00 | 44 | 1014.4 |
| 20260831223627 | 35 | 108 | 14.5 | 22.5 | 0.00 | 0.00 | 0.00 | 43 | 1014.4 |
| 20260831223526 | 35 | 360 | 14.5 | 22.5 | 0.00 | 0.00 | 0.00 | 43 | 1014.4 |
| 20260831223427 | 36 | 360 | 11.3 | 24.1 | 0.00 | 0.00 | 0.00 | 43 | 1014.4 |
| 20260831223328 | 35 | 360 | 9.7 | 24.1 | 0.00 | 0.00 | 0.00 | 43 | 1014.5 |
| 20260831223229 | 36 | 360 | 11.3 | 24.1 | 0.00 | 0.00 | 0.00 | 44 | 1014.4 |
| 20260831223129 | 36 | 360 | 9.7 | 24.1 | 0.00 | 0.00 | 0.00 | 44 | 1014.4 |
| 20260831223030 | 36 | 360 | 9.7 | 24.1 | 0.00 | 0.00 | 0.00 | 43 | 1014.4 |
| 20260831222934 | 36 | 113 | 11.3 | 24.1 | 0.00 | 0.00 | 0.00 | 43 | 1014.5 |
| 20260831222835 | 36 | 360 | 11.3 | 24.1 | 0.00 | 0.00 | 0.00 | 43 | 1014.4 |
| 20260831222735 | 36 | 360 | 11.3 | 24.1 | 0.00 | 0.00 | 0.00 | 43 | 1014.5 |
| 20260831222635 | 36 | 150 | 12.9 | 22.5 | 0.00 | 0.00 | 0.00 | 42 | 1014.6 |
| 20260831222516 | 36 | 360 | 9.7 | 19.3 | 0.00 | 0.00 | 0.00 | 42 | 1014.5 |
| 20260831222417 | 36 | 360 | 11.3 | 19.3 | 0.00 | 0.00 | 0.00 | 42 | 1014.5 |
| 20260831222321 | 36 | 360 | 11.3 | 19.3 | 0.00 | 0.00 | 0.00 | 42 | 1014.5 |
| 20260831222223 | 36 | 360 | 11.3 | 19.3 | 0.00 | 0.00 | 0.00 | 41 | 1014.5 |
| 20260831222142 | 36 | 360 | 9.7 | 19.3 | 0.00 | 0.00 | 0.00 | 41 | 1014.5 |
| 20260831222022 | 36 | 159 | 9.7 | 19.3 | 0.00 | 0.00 | 0.00 | 41 | 1014.6 |
| 20260831221922 | 36 | 116 | 9.7 | 19.3 | 0.00 | 0.00 | 0.00 | 41 | 1014.6 |
| 20260831221822 | 36 | 360 | 11.3 | 19.3 | 0.00 | 0.00 | 0.00 | 40 | 1014.5 |
| 20260831221722 | 36 | 360 | 11.3 | 19.3 | 0.00 | 0.00 | 0.00 | 41 | 1014.5 |
| 20260831221643 | 36 | 360 | 9.7 | 19.3 | 0.00 | 0.00 | 0.00 | 41 | 1014.5 |
| 20260831221527 | 36 | 145 | 9.7 | 19.3 | 0.00 | 0.00 | 0.00 | 41 | 1014.5 |
| 20260831221426 | 36 | 360 | 8.0 | 19.3 | 0.00 | 0.00 | 0.00 | 41 | 1014.4 |
| 20260831221327 | 36 | 360 | 8.0 | 19.3 | 0.00 | 0.00 | 0.00 | 41 | 1014.5 |
| 20260831221227 | 36 | 360 | 8.0 | 19.3 | 0.00 | 0.00 | 0.00 | 41 | 1014.5 |
| 20260831221148 | 36 | 360 | 8.0 | 19.3 | 0.00 | 0.00 | 0.00 | 41 | 1014.5 |
| 20260831221027 | 36 | 360 | 8.0 | 19.3 | 0.00 | 0.00 | 0.00 | 42 | 1014.4 |
| 20260831220928 | 36 | 170 | 4.8 | 19.3 | 0.00 | 0.00 | 0.00 | 41 | 1014.4 |
| 20260831220830 | 36 | 360 | 4.8 | 20.9 | 0.00 | 0.00 | 0.00 | 41 | 1014.4 |
| 20260831220731 | 36 | 90 | 4.8 | 20.9 | 0.00 | 0.00 | 0.00 | 41 | 1014.5 |
| 20260831220651 | 36 | 360 | 4.8 | 20.9 | 0.00 | 0.00 | 0.00 | 43 | 1014.5 |
| 20260831220530 | 36 | 360 | 8.0 | 20.9 | 0.00 | 0.00 | 0.00 | 43 | 1014.5 |
| 20260831220430 | 36 | 360 | 11.3 | 20.9 | 0.00 | 0.00 | 0.00 | 42 | 1014.4 |
| 20260831220330 | 36 | 360 | 11.3 | 20.9 | 0.00 | 0.00 | 0.00 | 42 | 1014.5 |
| 20260831220250 | 36 | 142 | 11.3 | 20.9 | 0.00 | 0.00 | 0.00 | 42 | 1014.4 |
| 20260831220130 | 36 | 360 | 9.7 | 20.9 | 0.00 | 0.00 | 0.00 | 43 | 1014.5 |
| 20260831220034 | 36 | 360 | 9.7 | 20.9 | 0.00 | 0.00 | 0.00 | 43 | 1014.5 |
| 20260831215935 | 36 | 360 | 6.4 | 16.1 | 0.00 | 0.00 | 0.00 | 43 | 1014.5 |
| 20260831215816 | 36 | 360 | 8.0 | 16.1 | 0.00 | 0.00 | 0.00 | 42 | 1014.5 |
| 20260831215717 | 36 | 360 | 8.0 | 16.1 | 0.00 | 0.00 | 0.00 | 41 | 1014.4 |
| 20260831215617 | 36 | 360 | 3.2 | 16.1 | 0.00 | 0.00 | 0.00 | 41 | 1014.5 |
| 20260831215518 | 36 | 360 | 3.2 | 16.1 | 0.00 | 0.00 | 0.00 | 41 | 1014.5 |
| 20260831215422 | 36 | 360 | 3.2 | 16.1 | 0.00 | 0.00 | 0.00 | 42 | 1014.5 |
| 20260831215322 | 36 | 360 | 3.2 | 16.1 | 0.00 | 0.00 | 0.00 | 42 | 1014.5 |
| 20260831215223 | 36 | 360 | 4.8 | 20.9 | 0.00 | 0.00 | 0.00 | 43 | 1014.5 |
| 20260831215123 | 36 | 360 | 6.4 | 20.9 | 0.00 | 0.00 | 0.00 | 43 | 1014.6 |
| 20260831215023 | 36 | 360 | 6.4 | 20.9 | 0.00 | 0.00 | 0.00 | 43 | 1014.6 |
| 20260831214923 | 36 | 360 | 6.4 | 20.9 | 0.00 | 0.00 | 0.00 | 43 | 1014.7 |
| 20260831214824 | 35 | 360 | 6.4 | 20.9 | 0.00 | 0.00 | 0.00 | 43 | 1014.7 |
| 20260831214728 | 35 | 360 | 8.0 | 20.9 | 0.00 | 0.00 | 0.00 | 44 | 1014.7 |
| 20260831214629 | 35 | 360 | 11.3 | 20.9 | 0.00 | 0.00 | 0.00 | 44 | 1014.8 |
| 20260831214530 | 35 | 360 | 9.7 | 20.9 | 0.00 | 0.00 | 0.00 | 43 | 1014.9 |
| 20260831214431 | 35 | 360 | 8.0 | 20.9 | 0.00 | 0.00 | 0.00 | 44 | 1014.8 |
| 20260831214330 | 35 | 360 | 4.8 | 19.3 | 0.00 | 0.00 | 0.00 | 44 | 1014.8 |
| 20260831214231 | 35 | 360 | 4.8 | 19.3 | 0.00 | 0.00 | 0.00 | 44 | 1014.9 |
| 20260831214130 | 35 | 360 | 3.2 | 19.3 | 0.00 | 0.00 | 0.00 | 44 | 1014.8 |
| 20260831214035 | 35 | 360 | 4.8 | 19.3 | 0.00 | 0.00 | 0.00 | 44 | 1014.9 |
| 20260831213916 | 35 | 360 | 8.0 | 19.3 | 0.00 | 0.00 | 0.00 | 44 | 1014.9 |
| 20260831213816 | 35 | 360 | 11.3 | 20.9 | 0.00 | 0.00 | 0.00 | 44 | 1014.9 |
| 20260831213716 | 35 | 360 | 11.3 | 20.9 | 0.00 | 0.00 | 0.00 | 45 | 1014.9 |
| 20260831213617 | 35 | 171 | 8.0 | 20.9 | 0.00 | 0.00 | 0.00 | 46 | 1015.0 |
| 20260831213518 | 35 | 360 | 8.0 | 20.9 | 0.00 | 0.00 | 0.00 | 44 | 1014.9 |
| 20260831213440 | 35 | 360 | 8.0 | 20.9 | 0.00 | 0.00 | 0.00 | 44 | 1015.0 |
| 20260831213324 | 35 | 360 | 9.7 | 20.9 | 0.00 | 0.00 | 0.00 | 44 | 1015.0 |
| 20260831213223 | 35 | 360 | 11.3 | 20.9 | 0.00 | 0.00 | 0.00 | 43 | 1015.0 |
| 20260831213124 | 35 | 360 | 14.5 | 22.5 | 0.00 | 0.00 | 0.00 | 44 | 1015.0 |
| 20260831213025 | 35 | 360 | 12.9 | 22.5 | 0.00 | 0.00 | 0.00 | 44 | 1014.9 |
| 20260831212925 | 35 | 360 | 11.3 | 22.5 | 0.00 | 0.00 | 0.00 | 43 | 1015.0 |
| 20260831212824 | 35 | 360 | 11.3 | 22.5 | 0.00 | 0.00 | 0.00 | 43 | 1015.0 |
| 20260831212728 | 35 | 360 | 9.7 | 22.5 | 0.00 | 0.00 | 0.00 | 43 | 1015.1 |
| 20260831212627 | 35 | 360 | 11.3 | 22.5 | 0.00 | 0.00 | 0.00 | 43 | 1015.1 |
| 20260831212528 | 35 | 360 | 12.9 | 22.5 | 0.00 | 0.00 | 0.00 | 43 | 1015.1 |
| 20260831212428 | 35 | 360 | 11.3 | 22.5 | 0.00 | 0.00 | 0.00 | 44 | 1015.1 |
| 20260831212328 | 35 | 360 | 9.7 | 22.5 | 0.00 | 0.00 | 0.00 | 44 | 1015.1 |
| 20260831212229 | 35 | 360 | 6.4 | 24.1 | 0.00 | 0.00 | 0.00 | 44 | 1015.0 |
| 20260831212129 | 35 | 360 | 6.4 | 24.1 | 0.00 | 0.00 | 0.00 | 44 | 1015.1 |
| 20260831212054 | 35 | 360 | 6.4 | 24.1 | 0.00 | 0.00 | 0.00 | 44 | 1015.1 |
| 20260831211933 | 35 | 360 | 4.8 | 24.1 | 0.00 | 0.00 | 0.00 | 44 | 1015.1 |
| 20260831211854 | 35 | 360 | 4.8 | 24.1 | 0.00 | 0.00 | 0.00 | 44 | 1015.2 |
| 20260831211733 | 35 | 360 | 9.7 | 24.1 | 0.00 | 0.00 | 0.00 | 44 | 1015.1 |
| 20260831211653 | 35 | 360 | 14.5 | 24.1 | 0.00 | 0.00 | 0.00 | 44 | 1015.2 |
| 20260831211533 | 35 | 360 | 16.1 | 24.1 | 0.00 | 0.00 | 0.00 | 44 | 1015.2 |
| 20260831211453 | 35 | 360 | 14.5 | 24.1 | 0.00 | 0.00 | 0.00 | 45 | 1015.2 |
| 20260831211333 | 35 | 360 | 9.7 | 22.5 | 0.00 | 0.00 | 0.00 | 44 | 1015.2 |
| 20260831211217 | 35 | 360 | 6.4 | 27.4 | 0.00 | 0.00 | 0.00 | 44 | 1015.2 |
| 20260831211118 | 35 | 360 | 6.4 | 27.4 | 0.00 | 0.00 | 0.00 | 44 | 1015.2 |
| 20260831211018 | 35 | 360 | 8.0 | 27.4 | 0.00 | 0.00 | 0.00 | 43 | 1015.2 |
| 20260831210919 | 35 | 360 | 12.9 | 27.4 | 0.00 | 0.00 | 0.00 | 44 | 1015.3 |
| 20260831210818 | 35 | 360 | 16.1 | 27.4 | 0.00 | 0.00 | 0.00 | 43 | 1015.3 |
| 20260831210716 | 35 | 360 | 14.5 | 27.4 | 0.00 | 0.00 | 0.00 | 43 | 1015.3 |
| 20260831210638 | 35 | 360 | 16.1 | 27.4 | 0.00 | 0.00 | 0.00 | 43 | 1015.4 |
| 20260831210521 | 35 | 360 | 14.5 | 27.4 | 0.00 | 0.00 | 0.00 | 43 | 1015.4 |
| 20260831210422 | 35 | 360 | 11.3 | 25.7 | 0.00 | 0.00 | 0.00 | 44 | 1015.4 |
| 20260831210323 | 35 | 360 | 6.4 | 12.9 | 0.00 | 0.00 | 0.00 | 45 | 1015.4 |
| 20260831210223 | 35 | 360 | 6.4 | 12.9 | 0.00 | 0.00 | 0.00 | 44 | 1015.4 |
| 20260831210143 | 35 | 68 | 8.0 | 14.5 | 0.00 | 0.00 | 0.00 | 44 | 1015.2 |
| 20260831210023 | 35 | 360 | 8.0 | 19.3 | 0.00 | 0.00 | 0.00 | 45 | 1015.3 |
| 20260831205923 | 35 | 360 | 6.4 | 20.9 | 0.00 | 0.00 | 0.00 | 46 | 1015.3 |
| 20260831205845 | 35 | 360 | 3.2 | 20.9 | 0.00 | 0.00 | 0.00 | 46 | 1015.4 |
| 20260831205728 | 35 | 360 | 3.2 | 20.9 | 0.00 | 0.00 | 0.00 | 46 | 1015.4 |
| 20260831205649 | 34 | 360 | 6.4 | 20.9 | 0.00 | 0.00 | 0.00 | 46 | 1015.5 |
| 20260831205528 | 34 | 360 | 9.7 | 24.1 | 0.00 | 0.00 | 0.00 | 46 | 1015.4 |
| 20260831205426 | 34 | 360 | 12.9 | 24.1 | 0.00 | 0.00 | 0.00 | 46 | 1015.5 |
| 20260831205325 | 34 | 360 | 12.9 | 24.1 | 0.00 | 0.00 | 0.00 | 46 | 1015.5 |
| 20260831205226 | 35 | 360 | 12.9 | 24.1 | 0.00 | 0.00 | 0.00 | 46 | 1015.5 |
| 20260831205125 | 35 | 360 | 12.9 | 24.1 | 0.00 | 0.00 | 0.00 | 45 | 1015.5 |
| 20260831205025 | 35 | 360 | 12.9 | 24.1 | 0.00 | 0.00 | 0.00 | 46 | 1015.6 |
| 20260831204930 | 35 | 360 | 14.5 | 24.1 | 0.00 | 0.00 | 0.00 | 45 | 1015.6 |
| 20260831204830 | 35 | 360 | 17.7 | 24.1 | 0.00 | 0.00 | 0.00 | 45 | 1015.6 |
| 20260831204731 | 35 | 360 | 17.7 | 24.1 | 0.00 | 0.00 | 0.00 | 45 | 1015.6 |
| 20260831204630 | 35 | 360 | 14.5 | 22.5 | 0.00 | 0.00 | 0.00 | 45 | 1015.7 |
| 20260831204550 | 35 | 360 | 12.9 | 17.7 | 0.00 | 0.00 | 0.00 | 45 | 1015.6 |
| 20260831204449 | 35 | 360 | 9.7 | 17.7 | 0.00 | 0.00 | 0.00 | 46 | 1015.6 |
| 20260831204329 | 35 | 133 | 9.7 | 16.1 | 0.00 | 0.00 | 0.00 | 46 | 1015.8 |
| 20260831204230 | 35 | 360 | 11.3 | 16.1 | 0.00 | 0.00 | 0.00 | 46 | 1015.6 |
| 20260831204132 | 35 | 360 | 11.3 | 16.1 | 0.00 | 0.00 | 0.00 | 45 | 1015.7 |
| 20260831204032 | 35 | 360 | 9.7 | 17.7 | 0.00 | 0.00 | 0.00 | 45 | 1015.7 |
| 20260831203933 | 35 | 360 | 9.7 | 17.7 | 0.00 | 0.00 | 0.00 | 45 | 1015.7 |
| 20260831203832 | 35 | 360 | 8.0 | 17.7 | 0.00 | 0.00 | 0.00 | 45 | 1015.8 |
| 20260831203732 | 35 | 360 | 8.0 | 17.7 | 0.00 | 0.00 | 0.00 | 46 | 1015.8 |
| 20260831203653 | 35 | 360 | 3.2 | 20.9 | 0.00 | 0.00 | 0.00 | 45 | 1015.8 |
| 20260831203532 | 35 | 360 | 3.2 | 20.9 | 0.00 | 0.00 | 0.00 | 47 | 1015.8 |
| 20260831203431 | 35 | 360 | 4.8 | 20.9 | 0.00 | 0.00 | 0.00 | 46 | 1015.8 |
| 20260831203316 | 35 | 360 | 9.7 | 24.1 | 0.00 | 0.00 | 0.00 | 45 | 1015.9 |
| 20260831203216 | 35 | 360 | 11.3 | 24.1 | 0.00 | 0.00 | 0.00 | 45 | 1015.9 |
| 20260831203117 | 35 | 360 | 9.7 | 24.1 | 0.00 | 0.00 | 0.00 | 44 | 1015.9 |
| 20260831203017 | 35 | 360 | 11.3 | 24.1 | 0.00 | 0.00 | 0.00 | 45 | 1015.9 |
| 20260831202917 | 35 | 144 | 14.5 | 24.1 | 0.00 | 0.00 | 0.00 | 45 | 1015.9 |
| 20260831202818 | 35 | 360 | 16.1 | 24.1 | 0.00 | 0.00 | 0.00 | 45 | 1016.0 |
| 20260831202722 | 35 | 360 | 14.5 | 24.1 | 0.00 | 0.00 | 0.00 | 45 | 1016.1 |
| 20260831202623 | 35 | 360 | 14.5 | 24.1 | 0.00 | 0.00 | 0.00 | 45 | 1016.1 |
| 20260831202524 | 35 | 360 | 11.3 | 24.1 | 0.00 | 0.00 | 0.00 | 46 | 1016.1 |
| 20260831202425 | 35 | 360 | 8.0 | 22.5 | 0.00 | 0.00 | 0.00 | 46 | 1016.1 |
| 20260831202324 | 35 | 360 | 8.0 | 22.5 | 0.00 | 0.00 | 0.00 | 47 | 1016.1 |
| 20260831202225 | 35 | 360 | 9.7 | 22.5 | 0.00 | 0.00 | 0.00 | 47 | 1016.1 |
| 20260831202145 | 35 | 126 | 12.9 | 22.5 | 0.00 | 0.00 | 0.00 | 46 | 1016.1 |
| 20260831202029 | 35 | 360 | 11.3 | 22.5 | 0.00 | 0.00 | 0.00 | 46 | 1016.2 |
| 20260831201929 | 35 | 360 | 9.7 | 22.5 | 0.00 | 0.00 | 0.00 | 46 | 1016.3 |
| 20260831201830 | 35 | 360 | 4.8 | 17.7 | 0.00 | 0.00 | 0.00 | 45 | 1016.2 |
| 20260831201750 | 35 | 360 | 4.8 | 16.1 | 0.00 | 0.00 | 0.00 | 45 | 1016.2 |
| 20260831201629 | 35 | 360 | 3.2 | 19.3 | 0.00 | 0.00 | 0.00 | 46 | 1016.2 |
| 20260831201531 | 35 | 360 | 3.2 | 19.3 | 0.00 | 0.00 | 0.00 | 47 | 1016.2 |
| 20260831201430 | 34 | 360 | 4.8 | 19.3 | 0.00 | 0.00 | 0.00 | 46 | 1016.2 |
| 20260831201335 | 34 | 360 | 6.4 | 20.9 | 0.00 | 0.00 | 0.00 | 46 | 1016.3 |
| 20260831201235 | 34 | 360 | 8.0 | 20.9 | 0.00 | 0.00 | 0.00 | 47 | 1016.5 |
| 20260831201116 | 34 | 360 | 9.7 | 20.9 | 0.00 | 0.00 | 0.00 | 47 | 1016.4 |
| 20260831201035 | 34 | 360 | 11.3 | 20.9 | 0.00 | 0.00 | 0.00 | 47 | 1016.4 |
| 20260831200916 | 34 | 360 | 11.3 | 20.9 | 0.00 | 0.00 | 0.00 | 47 | 1016.5 |
| 20260831200817 | 35 | 360 | 12.9 | 20.9 | 0.00 | 0.00 | 0.00 | 47 | 1016.5 |
| 20260831200722 | 35 | 360 | 11.3 | 20.9 | 0.00 | 0.00 | 0.00 | 47 | 1016.5 |
| 20260831200622 | 35 | 360 | 8.0 | 22.5 | 0.00 | 0.00 | 0.00 | 46 | 1016.5 |
| 20260831200521 | 35 | 360 | 3.2 | 22.5 | 0.00 | 0.00 | 0.00 | 47 | 1016.5 |
| 20260831200422 | 35 | 360 | 1.6 | 22.5 | 0.00 | 0.00 | 0.00 | 47 | 1016.5 |
| 20260831200322 | 35 | 360 | 4.8 | 22.5 | 0.00 | 0.00 | 0.00 | 47 | 1016.5 |
| 20260831200223 | 35 | 360 | 6.4 | 22.5 | 0.00 | 0.00 | 0.00 | 49 | 1016.5 |
| 20260831200123 | 35 | 171 | 8.0 | 22.5 | 0.00 | 0.00 | 0.00 | 49 | 1016.7 |
| 20260831200023 | 35 | 360 | 9.7 | 22.5 | 0.00 | 0.00 | 0.00 | 48 | 1016.6 |
| 20260831195927 | 35 | 360 | 12.9 | 22.5 | 0.00 | 0.00 | 0.00 | 49 | 1016.6 |
| 20260831195828 | 35 | 360 | 14.5 | 22.5 | 0.00 | 0.00 | 0.00 | 48 | 1016.5 |
| 20260831195728 | 35 | 360 | 12.9 | 22.5 | 0.00 | 0.00 | 0.00 | 48 | 1016.6 |
| 20260831195628 | 35 | 360 | 12.9 | 20.9 | 0.00 | 0.00 | 0.00 | 48 | 1016.6 |
| 20260831195529 | 35 | 360 | 12.9 | 20.9 | 0.00 | 0.00 | 0.00 | 48 | 1016.6 |
| 20260831195429 | 35 | 360 | 8.0 | 24.1 | 0.00 | 0.00 | 0.00 | 48 | 1016.6 |
| 20260831195334 | 35 | 360 | 6.4 | 24.1 | 0.00 | 0.00 | 0.00 | 49 | 1016.6 |
| 20260831195234 | 35 | 360 | 6.4 | 24.1 | 0.00 | 0.00 | 0.00 | 49 | 1016.6 |
| 20260831195135 | 35 | 360 | 8.0 | 24.1 | 0.00 | 0.00 | 0.00 | 48 | 1016.6 |
| 20260831195035 | 35 | 360 | 8.0 | 24.1 | 0.00 | 0.00 | 0.00 | 48 | 1016.7 |
| 20260831194936 | 35 | 360 | 9.7 | 24.1 | 0.00 | 0.00 | 0.00 | 48 | 1016.7 |
| 20260831194816 | 35 | 360 | 12.9 | 24.1 | 0.00 | 0.00 | 0.00 | 48 | 1016.8 |
| 20260831194721 | 35 | 360 | 14.5 | 24.1 | 0.00 | 0.00 | 0.00 | 48 | 1016.8 |
| 20260831194623 | 35 | 360 | 14.5 | 24.1 | 0.00 | 0.00 | 0.00 | 47 | 1016.8 |
| 20260831194543 | 35 | 360 | 12.9 | 24.1 | 0.00 | 0.00 | 0.00 | 48 | 1016.8 |
| 20260831194423 | 35 | 360 | 9.7 | 30.6 | 0.00 | 0.00 | 0.00 | 48 | 1016.7 |
| 20260831194343 | 35 | 360 | 9.7 | 30.6 | 0.00 | 0.00 | 0.00 | 48 | 1016.8 |
| 20260831194224 | 34 | 360 | 8.0 | 30.6 | 0.00 | 0.00 | 0.00 | 48 | 1016.8 |
| 20260831194123 | 34 | 360 | 9.7 | 30.6 | 0.00 | 0.00 | 0.00 | 50 | 1016.9 |
| 20260831194044 | 34 | 95 | 9.7 | 30.6 | 0.00 | 0.00 | 0.00 | 50 | 1016.8 |
| 20260831193944 | 34 | 360 | 14.5 | 30.6 | 0.00 | 0.00 | 0.00 | 49 | 1016.9 |
| 20260831193827 | 34 | 360 | 16.1 | 30.6 | 0.00 | 0.00 | 0.00 | 49 | 1016.8 |
| 20260831193728 | 34 | 360 | 16.1 | 30.6 | 0.00 | 0.00 | 0.00 | 48 | 1016.8 |
| 20260831193629 | 34 | 360 | 14.5 | 30.6 | 0.00 | 0.00 | 0.00 | 49 | 1016.9 |
| 20260831193529 | 34 | 360 | 12.9 | 30.6 | 0.00 | 0.00 | 0.00 | 48 | 1017.0 |
| 20260831193431 | 34 | 360 | 12.9 | 24.1 | 0.00 | 0.00 | 0.00 | 47 | 1016.9 |
| 20260831193331 | 35 | 360 | 12.9 | 24.1 | 0.00 | 0.00 | 0.00 | 47 | 1016.9 |
| 20260831193217 | 35 | 360 | 11.3 | 24.1 | 0.00 | 0.00 | 0.00 | 47 | 1017.0 |
| 20260831193116 | 35 | 360 | 6.4 | 22.5 | 0.00 | 0.00 | 0.00 | 48 | 1016.9 |
| 20260831193017 | 35 | 360 | 8.0 | 24.1 | 0.00 | 0.00 | 0.00 | 48 | 1016.9 |
| 20260831192938 | 35 | 360 | 8.0 | 24.1 | 0.00 | 0.00 | 0.00 | 49 | 1017.0 |
| 20260831192819 | 35 | 360 | 8.0 | 24.1 | 0.00 | 0.00 | 0.00 | 49 | 1016.9 |
| 20260831192717 | 35 | 360 | 8.0 | 24.1 | 0.00 | 0.00 | 0.00 | 49 | 1017.0 |
| 20260831192618 | 35 | 179 | 6.4 | 24.1 | 0.00 | 0.00 | 0.00 | 49 | 1017.0 |
| 20260831192523 | 35 | 360 | 8.0 | 24.1 | 0.00 | 0.00 | 0.00 | 49 | 1016.9 |
| 20260831192324 | 34 | 360 | 14.5 | 24.1 | 0.00 | 0.00 | 0.00 | 49 | 1017.0 |
| 20260831192224 | 34 | 360 | 14.5 | 24.1 | 0.00 | 0.00 | 0.00 | 49 | 1017.0 |
| 20260831192125 | 34 | 360 | 14.5 | 33.8 | 0.00 | 0.00 | 0.00 | 50 | 1017.1 |
| 20260831192046 | 34 | 360 | 14.5 | 33.8 | 0.00 | 0.00 | 0.00 | 49 | 1017.1 |
| 20260831191925 | 34 | 360 | 12.9 | 33.8 | 0.00 | 0.00 | 0.00 | 50 | 1017.0 |
| 20260831191829 | 34 | 360 | 12.9 | 33.8 | 0.00 | 0.00 | 0.00 | 50 | 1017.1 |
| 20260831191728 | 34 | 360 | 12.9 | 33.8 | 0.00 | 0.00 | 0.00 | 51 | 1017.1 |
| 20260831191629 | 33 | 360 | 11.3 | 33.8 | 0.00 | 0.00 | 0.00 | 51 | 1017.1 |
| 20260831191530 | 33 | 360 | 16.1 | 33.8 | 0.00 | 0.00 | 0.00 | 50 | 1017.1 |
| 20260831191430 | 34 | 360 | 16.1 | 33.8 | 0.00 | 0.00 | 0.00 | 49 | 1017.1 |
| 20260831191351 | 34 | 360 | 17.7 | 33.8 | 0.00 | 0.00 | 0.00 | 50 | 1017.1 |
| 20260831191230 | 34 | 360 | 12.9 | 32.2 | 0.00 | 0.00 | 0.00 | 50 | 1017.1 |
| 20260831191136 | 34 | 360 | 11.3 | 32.2 | 0.00 | 0.00 | 0.00 | 50 | 1017.1 |
| 20260831191056 | 34 | 360 | 8.0 | 32.2 | 0.00 | 0.00 | 0.00 | 51 | 1017.1 |
| 20260831190934 | 34 | 360 | 6.4 | 32.2 | 0.00 | 0.00 | 0.00 | 51 | 1017.2 |
| 20260831190835 | 34 | 360 | 4.8 | 32.2 | 0.00 | 0.00 | 0.00 | 52 | 1017.2 |
| 20260831190735 | 33 | 360 | 9.7 | 32.2 | 0.00 | 0.00 | 0.00 | 52 | 1017.2 |
| 20260831190634 | 33 | 360 | 16.1 | 32.2 | 0.00 | 0.00 | 0.00 | 52 | 1017.3 |
| 20260831190534 | 33 | 360 | 20.9 | 32.2 | 0.00 | 0.00 | 0.00 | 51 | 1017.3 |
| 20260831190435 | 34 | 360 | 17.7 | 32.2 | 0.00 | 0.00 | 0.00 | 52 | 1017.3 |
| 20260831190339 | 34 | 360 | 11.3 | 20.9 | 0.00 | 0.00 | 0.00 | 52 | 1017.2 |
| 20260831190219 | 34 | 360 | 8.0 | 17.7 | 0.00 | 0.00 | 0.00 | 52 | 1017.3 |
| 20260831190119 | 34 | 360 | 9.7 | 17.7 | 0.00 | 0.00 | 0.00 | 53 | 1017.4 |
| 20260831190040 | 33 | 360 | 9.7 | 17.7 | 0.00 | 0.00 | 0.00 | 53 | 1017.4 |
| 20260831185919 | 33 | 360 | 9.7 | 17.7 | 0.00 | 0.00 | 0.00 | 52 | 1017.3 |
| 20260831185841 | 34 | 360 | 8.0 | 17.7 | 0.00 | 0.00 | 0.00 | 53 | 1017.4 |
| 20260831185719 | 33 | 360 | 6.4 | 16.1 | 0.00 | 0.00 | 0.00 | 53 | 1017.3 |
| 20260831185639 | 33 | 360 | 6.4 | 16.1 | 0.00 | 0.00 | 0.00 | 54 | 1017.4 |
| 20260831185523 | 33 | 360 | 6.4 | 16.1 | 0.00 | 0.00 | 0.00 | 53 | 1017.4 |
| 20260831185423 | 33 | 360 | 6.4 | 16.1 | 0.00 | 0.00 | 0.00 | 53 | 1017.3 |
| 20260831185324 | 33 | 360 | 6.4 | 20.9 | 0.00 | 0.00 | 0.00 | 53 | 1017.4 |
| 20260831185223 | 33 | 360 | 8.0 | 30.6 | 0.00 | 0.00 | 0.00 | 52 | 1017.4 |
| 20260831185144 | 34 | 360 | 9.7 | 30.6 | 0.00 | 0.00 | 0.00 | 52 | 1017.4 |
| 20260831185022 | 34 | 360 | 8.0 | 30.6 | 0.00 | 0.00 | 0.00 | 51 | 1017.4 |
| 20260831184922 | 34 | 360 | 6.4 | 30.6 | 0.00 | 0.00 | 0.00 | 51 | 1017.4 |
| 20260831184828 | 34 | 360 | 4.8 | 30.6 | 0.00 | 0.00 | 0.00 | 52 | 1017.5 |
| 20260831184748 | 33 | 360 | 6.4 | 30.6 | 0.00 | 0.00 | 0.00 | 52 | 1017.5 |
| 20260831184628 | 33 | 360 | 12.9 | 30.6 | 0.00 | 0.00 | 0.00 | 53 | 1017.6 |
| 20260831184529 | 33 | 360 | 19.3 | 30.6 | 0.00 | 0.00 | 0.00 | 52 | 1017.6 |
| 20260831184430 | 34 | 360 | 17.7 | 30.6 | 0.00 | 0.00 | 0.00 | 51 | 1017.6 |
| 20260831184330 | 34 | 360 | 11.3 | 27.4 | 0.00 | 0.00 | 0.00 | 51 | 1017.5 |
| 20260831184231 | 34 | 360 | 6.4 | 27.4 | 0.00 | 0.00 | 0.00 | 51 | 1017.4 |
| 20260831184136 | 34 | 360 | 3.2 | 27.4 | 0.00 | 0.00 | 0.00 | 52 | 1017.6 |
| 20260831184037 | 33 | 360 | 3.2 | 27.4 | 0.00 | 0.00 | 0.00 | 53 | 1017.5 |
| 20260831183956 | 33 | 360 | 6.4 | 27.4 | 0.00 | 0.00 | 0.00 | 54 | 1017.6 |
| 20260831183816 | 33 | 360 | 14.5 | 27.4 | 0.00 | 0.00 | 0.00 | 51 | 1017.6 |
| 20260831183717 | 33 | 360 | 14.5 | 27.4 | 0.00 | 0.00 | 0.00 | 51 | 1017.6 |
| 20260831183618 | 33 | 360 | 14.5 | 27.4 | 0.00 | 0.00 | 0.00 | 51 | 1017.6 |
| 20260831183517 | 33 | 360 | 12.9 | 27.4 | 0.00 | 0.00 | 0.00 | 52 | 1017.6 |
| 20260831183422 | 33 | 360 | 11.3 | 24.1 | 0.00 | 0.00 | 0.00 | 52 | 1017.6 |
| 20260831183322 | 33 | 360 | 11.3 | 24.1 | 0.00 | 0.00 | 0.00 | 52 | 1017.6 |
| 20260831183223 | 33 | 360 | 12.9 | 24.1 | 0.00 | 0.00 | 0.00 | 52 | 1017.6 |
| 20260831183124 | 33 | 360 | 14.5 | 24.1 | 0.00 | 0.00 | 0.00 | 52 | 1017.5 |
| 20260831183045 | 33 | 360 | 12.9 | 24.1 | 0.00 | 0.00 | 0.00 | 52 | 1017.7 |
| 20260831182924 | 33 | 360 | 11.3 | 19.3 | 0.00 | 0.00 | 0.00 | 53 | 1017.6 |
| 20260831182825 | 33 | 360 | 8.0 | 19.3 | 0.00 | 0.00 | 0.00 | 53 | 1017.6 |
| 20260831182729 | 33 | 360 | 4.8 | 19.3 | 0.00 | 0.00 | 0.00 | 53 | 1017.6 |
| 20260831182629 | 33 | 360 | 3.2 | 19.3 | 0.00 | 0.00 | 0.00 | 53 | 1017.7 |
| 20260831182530 | 33 | 360 | 3.2 | 19.3 | 0.00 | 0.00 | 0.00 | 53 | 1017.6 |
| 20260831182430 | 33 | 360 | 3.2 | 19.3 | 0.00 | 0.00 | 0.00 | 54 | 1017.6 |
| 20260831182329 | 33 | 360 | 6.4 | 22.5 | 0.00 | 0.00 | 0.00 | 55 | 1017.6 |
| 20260831182250 | 33 | 360 | 11.3 | 24.1 | 0.00 | 0.00 | 0.00 | 54 | 1017.7 |
| 20260831182130 | 33 | 360 | 11.3 | 24.1 | 0.00 | 0.00 | 0.00 | 56 | 1017.7 |
| 20260831182035 | 33 | 360 | 9.7 | 24.1 | 0.00 | 0.00 | 0.00 | 55 | 1017.7 |
| 20260831181955 | 33 | 360 | 9.7 | 24.1 | 0.00 | 0.00 | 0.00 | 54 | 1017.7 |
| 20260831181855 | 33 | 360 | 8.0 | 24.1 | 0.00 | 0.00 | 0.00 | 55 | 1017.7 |
| 20260831181734 | 33 | 360 | 9.7 | 24.1 | 0.00 | 0.00 | 0.00 | 55 | 1017.7 |
| 20260831181635 | 33 | 360 | 14.5 | 24.1 | 0.00 | 0.00 | 0.00 | 54 | 1017.7 |
| 20260831181556 | 33 | 360 | 16.1 | 24.1 | 0.00 | 0.00 | 0.00 | 53 | 1017.8 |
| 20260831181436 | 33 | 163 | 12.9 | 24.1 | 0.00 | 0.00 | 0.00 | 54 | 1017.7 |
| 20260831181355 | 33 | 360 | 9.7 | 24.1 | 0.00 | 0.00 | 0.00 | 55 | 1017.7 |
| 20260831181219 | 33 | 360 | 9.7 | 17.7 | 0.00 | 0.00 | 0.00 | 55 | 1017.8 |
| 20260831181119 | 33 | 360 | 6.4 | 17.7 | 0.00 | 0.00 | 0.00 | 55 | 1017.8 |
| 20260831181020 | 33 | 360 | 4.8 | 17.7 | 0.00 | 0.00 | 0.00 | 56 | 1017.7 |
| 20260831180920 | 33 | 360 | 4.8 | 19.3 | 0.00 | 0.00 | 0.00 | 56 | 1017.8 |
| 20260831180820 | 33 | 360 | 6.4 | 19.3 | 0.00 | 0.00 | 0.00 | 56 | 1017.8 |
| 20260831180717 | 33 | 360 | 8.0 | 19.3 | 0.00 | 0.00 | 0.00 | 56 | 1017.8 |
| 20260831180617 | 32 | 360 | 8.0 | 22.5 | 0.00 | 0.00 | 0.00 | 55 | 1017.9 |
| 20260831180518 | 33 | 360 | 9.7 | 22.5 | 0.00 | 0.00 | 0.00 | 56 | 1017.9 |
| 20260831180423 | 32 | 360 | 8.0 | 22.5 | 0.00 | 0.00 | 0.00 | 55 | 1017.8 |
| 20260831180323 | 33 | 360 | 6.4 | 22.5 | 0.00 | 0.00 | 0.00 | 55 | 1017.9 |
| 20260831180244 | 32 | 360 | 8.0 | 22.5 | 0.00 | 0.00 | 0.00 | 56 | 1018.0 |
| 20260831180124 | 32 | 360 | 6.4 | 22.5 | 0.00 | 0.00 | 0.00 | 56 | 1017.9 |
| 20260831180024 | 33 | 360 | 8.0 | 22.5 | 0.00 | 0.00 | 0.00 | 56 | 1017.9 |
| 20260831175925 | 33 | 360 | 9.7 | 22.5 | 0.00 | 0.00 | 0.00 | 56 | 1018.0 |
| 20260831175826 | 33 | 360 | 12.9 | 22.5 | 0.00 | 0.00 | 0.00 | 55 | 1017.9 |
| 20260831175730 | 33 | 360 | 9.7 | 24.1 | 0.00 | 0.00 | 0.00 | 55 | 1018.0 |
| 20260831175630 | 33 | 360 | 8.0 | 24.1 | 0.00 | 0.00 | 0.00 | 54 | 1018.0 |
| 20260831175531 | 33 | 360 | 6.4 | 24.1 | 0.00 | 0.00 | 0.00 | 56 | 1018.0 |
| 20260831175452 | 33 | 360 | 9.7 | 24.1 | 0.00 | 0.00 | 0.00 | 56 | 1018.1 |
| 20260831175331 | 33 | 360 | 14.5 | 24.1 | 0.00 | 0.00 | 0.00 | 55 | 1018.1 |
| 20260831175251 | 33 | 360 | 17.7 | 24.1 | 0.00 | 0.00 | 0.00 | 56 | 1018.2 |
| 20260831175131 | 33 | 360 | 17.7 | 24.1 | 0.00 | 0.00 | 0.00 | 55 | 1018.1 |
| 20260831175016 | 33 | 360 | 12.9 | 24.1 | 0.00 | 0.00 | 0.00 | 55 | 1018.1 |
| 20260831174937 | 33 | 360 | 9.7 | 24.1 | 0.00 | 0.00 | 0.00 | 55 | 1018.2 |
| 20260831174836 | 33 | 360 | 4.8 | 24.1 | 0.00 | 0.00 | 0.00 | 56 | 1018.1 |
| 20260831174717 | 33 | 111 | 3.2 | 14.5 | 0.00 | 0.00 | 0.00 | 56 | 1018.1 |
| 20260831174616 | 33 | 82 | 3.2 | 14.5 | 0.00 | 0.00 | 0.00 | 55 | 1018.2 |
| 20260831174518 | 33 | 138 | 4.8 | 14.5 | 0.00 | 0.00 | 0.00 | 56 | 1018.1 |
| 20260831174419 | 33 | 360 | 4.8 | 14.5 | 0.00 | 0.00 | 0.00 | 56 | 1018.2 |
| 20260831174323 | 33 | 360 | 6.4 | 14.5 | 0.00 | 0.00 | 0.00 | 57 | 1018.3 |
| 20260831174224 | 32 | 360 | 8.0 | 14.5 | 0.00 | 0.00 | 0.00 | 58 | 1018.2 |
| 20260831174124 | 32 | 360 | 9.7 | 14.5 | 0.00 | 0.00 | 0.00 | 57 | 1018.2 |
| 20260831174025 | 33 | 360 | 9.7 | 14.5 | 0.00 | 0.00 | 0.00 | 56 | 1018.2 |
| 20260831173927 | 33 | 360 | 8.0 | 17.7 | 0.00 | 0.00 | 0.00 | 57 | 1018.2 |
| 20260831173818 | 33 | 360 | 9.7 | 17.7 | 0.00 | 0.00 | 0.00 | 57 | 1018.3 |
| 20260831173719 | 33 | 360 | 6.4 | 17.7 | 0.00 | 0.00 | 0.00 | 57 | 1018.2 |
| 20260831173623 | 33 | 360 | 4.8 | 22.5 | 0.00 | 0.00 | 0.00 | 57 | 1018.3 |
| 20260831173543 | 32 | 360 | 3.2 | 25.7 | 0.00 | 0.00 | 0.00 | 58 | 1018.2 |
| 20260831173421 | 32 | 360 | 3.2 | 25.7 | 0.00 | 0.00 | 0.00 | 58 | 1018.3 |
| 20260831173321 | 32 | 360 | 4.8 | 25.7 | 0.00 | 0.00 | 0.00 | 58 | 1018.3 |
| 20260831173222 | 32 | 360 | 6.4 | 25.7 | 0.00 | 0.00 | 0.00 | 58 | 1018.3 |
| 20260831173122 | 32 | 360 | 8.0 | 25.7 | 0.00 | 0.00 | 0.00 | 59 | 1018.3 |
| 20260831173023 | 32 | 360 | 11.3 | 25.7 | 0.00 | 0.00 | 0.00 | 59 | 1018.3 |
| 20260831172928 | 32 | 360 | 11.3 | 25.7 | 0.00 | 0.00 | 0.00 | 58 | 1018.4 |
| 20260831172849 | 32 | 360 | 14.5 | 25.7 | 0.00 | 0.00 | 0.00 | 58 | 1018.4 |
| 20260831172728 | 32 | 360 | 11.3 | 25.7 | 0.00 | 0.00 | 0.00 | 59 | 1018.3 |
| 20260831172628 | 32 | 360 | 9.7 | 25.7 | 0.00 | 0.00 | 0.00 | 59 | 1018.4 |
| 20260831172529 | 32 | 360 | 8.0 | 24.1 | 0.00 | 0.00 | 0.00 | 59 | 1018.4 |
| 20260831172449 | 32 | 360 | 11.3 | 24.1 | 0.00 | 0.00 | 0.00 | 58 | 1018.4 |
| 20260831172328 | 32 | 360 | 12.9 | 24.1 | 0.00 | 0.00 | 0.00 | 58 | 1018.4 |
| 20260831172229 | 31 | 360 | 14.5 | 24.1 | 0.00 | 0.00 | 0.00 | 57 | 1018.4 |
| 20260831172134 | 32 | 360 | 14.5 | 29.0 | 0.00 | 0.00 | 0.00 | 57 | 1018.5 |
| 20260831172034 | 32 | 360 | 11.3 | 29.0 | 0.00 | 0.00 | 0.00 | 57 | 1018.4 |
| 20260831171954 | 32 | 360 | 8.0 | 29.0 | 0.00 | 0.00 | 0.00 | 58 | 1018.4 |
| 20260831171834 | 32 | 360 | 8.0 | 29.0 | 0.00 | 0.00 | 0.00 | 58 | 1018.4 |
| 20260831171735 | 32 | 360 | 6.4 | 29.0 | 0.00 | 0.00 | 0.00 | 58 | 1018.5 |
| 20260831171636 | 32 | 360 | 8.0 | 29.0 | 0.00 | 0.00 | 0.00 | 61 | 1018.5 |
| 20260831171556 | 31 | 360 | 9.7 | 29.0 | 0.00 | 0.00 | 0.00 | 60 | 1018.4 |
| 20260831171440 | 31 | 360 | 14.5 | 27.4 | 0.00 | 0.00 | 0.00 | 60 | 1018.5 |
| 20260831171339 | 32 | 360 | 16.1 | 27.4 | 0.00 | 0.00 | 0.00 | 62 | 1018.5 |
| 20260831171219 | 32 | 360 | 11.3 | 25.7 | 0.00 | 0.00 | 0.00 | 61 | 1018.4 |
| 20260831171118 | 31 | 360 | 8.0 | 25.7 | 0.00 | 0.00 | 0.00 | 62 | 1018.5 |
| 20260831171019 | 31 | 360 | 9.7 | 25.7 | 0.00 | 0.00 | 0.00 | 61 | 1018.5 |
| 20260831170918 | 31 | 360 | 16.1 | 25.7 | 0.00 | 0.00 | 0.00 | 62 | 1018.6 |
| 20260831170818 | 31 | 360 | 16.1 | 27.4 | 0.00 | 0.00 | 0.00 | 62 | 1018.5 |
| 20260831170718 | 31 | 360 | 14.5 | 27.4 | 0.00 | 0.00 | 0.00 | 61 | 1018.6 |
| 20260831170624 | 31 | 360 | 11.3 | 27.4 | 0.00 | 0.00 | 0.00 | 61 | 1018.5 |
| 20260831170544 | 31 | 360 | 9.7 | 27.4 | 0.00 | 0.00 | 0.00 | 63 | 1018.6 |
| 20260831170424 | 31 | 360 | 9.7 | 27.4 | 0.00 | 0.00 | 0.00 | 63 | 1018.6 |
| 20260831170324 | 31 | 360 | 14.5 | 27.4 | 0.00 | 0.00 | 0.00 | 63 | 1018.5 |
| 20260831170225 | 31 | 360 | 17.7 | 27.4 | 0.00 | 0.00 | 0.00 | 62 | 1018.6 |
| 20260831170125 | 31 | 360 | 16.1 | 27.4 | 0.00 | 0.00 | 0.00 | 62 | 1018.6 |
| 20260831170027 | 31 | 360 | 11.3 | 27.4 | 0.00 | 0.00 | 0.00 | 63 | 1018.6 |
| 20260831165931 | 31 | 360 | 9.7 | 24.1 | 0.00 | 0.00 | 0.00 | 63 | 1018.5 |
| 20260831165852 | 31 | 360 | 9.7 | 24.1 | 0.00 | 0.00 | 0.00 | 64 | 1018.5 |
| 20260831165730 | 31 | 360 | 9.7 | 24.1 | 0.00 | 0.00 | 0.00 | 63 | 1018.5 |
| 20260831165631 | 31 | 360 | 12.9 | 24.1 | 0.00 | 0.00 | 0.00 | 62 | 1018.6 |
| 20260831165532 | 31 | 360 | 14.5 | 24.1 | 0.00 | 0.00 | 0.00 | 62 | 1018.5 |
| 20260831165433 | 31 | 360 | 16.1 | 24.1 | 0.00 | 0.00 | 0.00 | 62 | 1018.5 |
| 20260831165317 | 31 | 360 | 17.7 | 24.1 | 0.00 | 0.00 | 0.00 | 62 | 1018.5 |
| 20260831165238 | 31 | 360 | 17.7 | 24.1 | 0.00 | 0.00 | 0.00 | 62 | 1018.5 |
| 20260831165117 | 31 | 360 | 16.1 | 24.1 | 0.00 | 0.00 | 0.00 | 61 | 1018.5 |
| 20260831165017 | 31 | 360 | 12.9 | 20.9 | 0.00 | 0.00 | 0.00 | 63 | 1018.4 |
| 20260831164937 | 31 | 360 | 12.9 | 20.9 | 0.00 | 0.00 | 0.00 | 63 | 1018.6 |
| 20260831164817 | 31 | 360 | 14.5 | 20.9 | 0.00 | 0.00 | 0.00 | 63 | 1018.6 |
| 20260831164717 | 31 | 162 | 9.7 | 19.3 | 0.00 | 0.00 | 0.00 | 64 | 1018.6 |
| 20260831164618 | 31 | 131 | 6.4 | 19.3 | 0.00 | 0.00 | 0.00 | 65 | 1018.6 |
| 20260831164523 | 31 | 360 | 4.8 | 19.3 | 0.00 | 0.00 | 0.00 | 65 | 1018.6 |
| 20260831164422 | 31 | 360 | 9.7 | 19.3 | 0.00 | 0.00 | 0.00 | 65 | 1018.6 |
| 20260831164323 | 31 | 360 | 11.3 | 19.3 | 0.00 | 0.00 | 0.00 | 65 | 1018.6 |
| 20260831164224 | 31 | 360 | 12.9 | 19.3 | 0.00 | 0.00 | 0.00 | 65 | 1018.6 |
| 20260831164123 | 31 | 360 | 12.9 | 19.3 | 0.00 | 0.00 | 0.00 | 65 | 1018.6 |
| 20260831164023 | 31 | 360 | 12.9 | 19.3 | 0.00 | 0.00 | 0.00 | 65 | 1018.6 |
| 20260831163923 | 31 | 360 | 11.3 | 17.7 | 0.00 | 0.00 | 0.00 | 66 | 1018.6 |
| 20260831163827 | 31 | 360 | 11.3 | 17.7 | 0.00 | 0.00 | 0.00 | 66 | 1018.6 |
| 20260831163728 | 31 | 360 | 9.7 | 17.7 | 0.00 | 0.00 | 0.00 | 66 | 1018.6 |
| 20260831163629 | 31 | 360 | 9.7 | 17.7 | 0.00 | 0.00 | 0.00 | 66 | 1018.7 |
| 20260831163550 | 31 | 360 | 9.7 | 17.7 | 0.00 | 0.00 | 0.00 | 66 | 1018.6 |
| 20260831163430 | 31 | 360 | 8.0 | 16.1 | 0.00 | 0.00 | 0.00 | 65 | 1018.6 |
| 20260831163331 | 31 | 360 | 9.7 | 16.1 | 0.00 | 0.00 | 0.00 | 65 | 1018.6 |
| 20260831163231 | 31 | 360 | 9.7 | 16.1 | 0.00 | 0.00 | 0.00 | 65 | 1018.5 |
| 20260831163136 | 31 | 161 | 9.7 | 16.1 | 0.00 | 0.00 | 0.00 | 64 | 1018.6 |
| 20260831163056 | 31 | 360 | 9.7 | 24.1 | 0.00 | 0.00 | 0.00 | 65 | 1018.6 |
| 20260831162954 | 31 | 360 | 6.4 | 24.1 | 0.00 | 0.00 | 0.00 | 65 | 1018.6 |
| 20260831162834 | 31 | 360 | 4.8 | 24.1 | 0.00 | 0.00 | 0.00 | 65 | 1018.6 |
| 20260831162734 | 31 | 360 | 4.8 | 24.1 | 0.00 | 0.00 | 0.00 | 65 | 1018.6 |
| 20260831162635 | 31 | 360 | 8.0 | 24.1 | 0.00 | 0.00 | 0.00 | 65 | 1018.6 |
| 20260831162556 | 31 | 360 | 8.0 | 24.1 | 0.00 | 0.00 | 0.00 | 66 | 1018.7 |
| 20260831162434 | 31 | 360 | 6.4 | 24.1 | 0.00 | 0.00 | 0.00 | 66 | 1018.7 |
| 20260831162318 | 31 | 360 | 6.4 | 24.1 | 0.00 | 0.00 | 0.00 | 66 | 1018.7 |
| 20260831162218 | 30 | 360 | 9.7 | 24.1 | 0.00 | 0.00 | 0.00 | 68 | 1018.6 |
| 20260831162120 | 30 | 360 | 12.9 | 24.1 | 0.00 | 0.00 | 0.00 | 67 | 1018.7 |
| 20260831162020 | 31 | 360 | 11.3 | 17.7 | 0.00 | 0.00 | 0.00 | 66 | 1018.6 |
| 20260831161919 | 31 | 360 | 9.7 | 22.5 | 0.00 | 0.00 | 0.00 | 67 | 1018.6 |
| 20260831161820 | 31 | 360 | 9.7 | 22.5 | 0.00 | 0.00 | 0.00 | 67 | 1018.6 |
| 20260831161721 | 31 | 360 | 9.7 | 22.5 | 0.00 | 0.00 | 0.00 | 67 | 1018.6 |
| 20260831161625 | 31 | 360 | 9.7 | 22.5 | 0.00 | 0.00 | 0.00 | 66 | 1018.5 |
| 20260831161526 | 30 | 213 | 9.7 | 22.5 | 0.00 | 0.00 | 0.00 | 66 | 1018.5 |
| 20260831161426 | 31 | 360 | 6.4 | 22.5 | 0.00 | 0.00 | 0.00 | 65 | 1018.6 |
| 20260831161327 | 31 | 360 | 6.4 | 22.5 | 0.00 | 0.00 | 0.00 | 66 | 1018.5 |
| 20260831161227 | 31 | 360 | 8.0 | 22.5 | 0.00 | 0.00 | 0.00 | 66 | 1018.4 |
| 20260831161127 | 30 | 360 | 11.3 | 22.5 | 0.00 | 0.00 | 0.00 | 66 | 1018.5 |
| 20260831161032 | 31 | 360 | 11.3 | 22.5 | 0.00 | 0.00 | 0.00 | 66 | 1018.5 |
| 20260831160932 | 31 | 360 | 8.0 | 22.5 | 0.00 | 0.00 | 0.00 | 66 | 1018.6 |
| 20260831160832 | 31 | 360 | 4.8 | 20.9 | 0.00 | 0.00 | 0.00 | 67 | 1018.4 |
| 20260831160733 | 30 | 360 | 6.4 | 20.9 | 0.00 | 0.00 | 0.00 | 67 | 1018.5 |
| 20260831160632 | 30 | 360 | 9.7 | 20.9 | 0.00 | 0.00 | 0.00 | 68 | 1018.5 |
| 20260831160532 | 30 | 360 | 12.9 | 20.9 | 0.00 | 0.00 | 0.00 | 67 | 1018.5 |
| 20260831160432 | 30 | 360 | 11.3 | 20.9 | 0.00 | 0.00 | 0.00 | 67 | 1018.5 |
| 20260831160338 | 30 | 360 | 11.3 | 20.9 | 0.00 | 0.00 | 0.00 | 69 | 1018.5 |
| 20260831160218 | 30 | 360 | 12.9 | 20.9 | 0.00 | 0.00 | 0.00 | 69 | 1018.5 |
| 20260831160139 | 30 | 360 | 14.5 | 20.9 | 0.00 | 0.00 | 0.00 | 68 | 1018.6 |
| 20260831160019 | 30 | 360 | 14.5 | 20.9 | 0.00 | 0.00 | 0.00 | 68 | 1018.6 |
| 20260831155918 | 30 | 360 | 14.5 | 20.9 | 0.00 | 0.00 | 0.00 | 68 | 1018.6 |
| 20260831155820 | 30 | 360 | 12.9 | 20.9 | 0.00 | 0.00 | 0.00 | 69 | 1018.6 |
| 20260831155719 | 30 | 360 | 11.3 | 17.7 | 0.00 | 0.00 | 0.00 | 71 | 1018.6 |
| 20260831155624 | 30 | 360 | 8.0 | 16.1 | 0.00 | 0.00 | 0.00 | 71 | 1018.6 |
| 20260831155524 | 30 | 360 | 6.4 | 12.9 | 0.00 | 0.00 | 0.00 | 71 | 1018.6 |
| 20260831155424 | 30 | 360 | 6.4 | 9.7 | 0.00 | 0.00 | 0.00 | 72 | 1018.5 |
| 20260831155345 | 30 | 360 | 4.8 | 12.9 | 0.00 | 0.00 | 0.00 | 71 | 1018.6 |
| 20260831155224 | 30 | 360 | 3.2 | 12.9 | 0.00 | 0.00 | 0.00 | 72 | 1018.6 |
| 20260831155125 | 30 | 360 | 3.2 | 14.5 | 0.00 | 0.00 | 0.00 | 72 | 1018.6 |
| 20260831155026 | 30 | 360 | 1.6 | 17.7 | 0.00 | 0.00 | 0.00 | 72 | 1018.6 |
| 20260831154946 | 30 | 360 | 1.6 | 19.3 | 0.00 | 0.00 | 0.00 | 72 | 1018.6 |
| 20260831154849 | 30 | 360 | 3.2 | 19.3 | 0.00 | 0.00 | 0.00 | 72 | 1018.7 |
| 20260831154749 | 29 | 360 | 4.8 | 19.3 | 0.00 | 0.00 | 0.00 | 73 | 1018.6 |
| 20260831154630 | 29 | 360 | 6.4 | 19.3 | 0.00 | 0.00 | 0.00 | 73 | 1018.7 |
| 20260831154529 | 29 | 360 | 8.0 | 19.3 | 0.00 | 0.00 | 0.00 | 73 | 1018.6 |
| 20260831154430 | 29 | 360 | 9.7 | 19.3 | 0.00 | 0.00 | 0.00 | 72 | 1018.6 |
| 20260831154330 | 29 | 360 | 11.3 | 19.3 | 0.00 | 0.00 | 0.00 | 72 | 1018.6 |
| 20260831154231 | 30 | 360 | 9.7 | 19.3 | 0.00 | 0.00 | 0.00 | 72 | 1018.6 |
| 20260831154152 | 30 | 360 | 8.0 | 19.3 | 0.00 | 0.00 | 0.00 | 71 | 1018.6 |
| 20260831154036 | 30 | 360 | 8.0 | 19.3 | 0.00 | 0.00 | 0.00 | 72 | 1018.6 |
| 20260831153935 | 29 | 360 | 8.0 | 19.3 | 0.00 | 0.00 | 0.00 | 72 | 1018.5 |
| 20260831153856 | 29 | 360 | 9.7 | 19.3 | 0.00 | 0.00 | 0.00 | 73 | 1018.6 |
| 20260831153716 | 29 | 360 | 11.3 | 22.5 | 0.00 | 0.00 | 0.00 | 73 | 1018.6 |
| 20260831153617 | 29 | 360 | 11.3 | 27.4 | 0.00 | 0.00 | 0.00 | 73 | 1018.5 |
| 20260831153517 | 29 | 360 | 11.3 | 27.4 | 0.00 | 0.00 | 0.00 | 73 | 1018.5 |
| 20260831153418 | 28 | 360 | 11.3 | 27.4 | 0.00 | 0.00 | 0.00 | 73 | 1018.5 |
| 20260831153322 | 28 | 360 | 12.9 | 27.4 | 0.00 | 0.00 | 0.00 | 73 | 1018.4 |
| 20260831153222 | 28 | 360 | 12.9 | 27.4 | 0.00 | 0.00 | 0.00 | 73 | 1018.5 |
| 20260831153122 | 28 | 360 | 14.5 | 27.4 | 0.00 | 0.00 | 0.00 | 73 | 1018.4 |
| 20260831153023 | 28 | 360 | 16.1 | 27.4 | 0.00 | 0.00 | 0.00 | 72 | 1018.4 |
| 20260831152924 | 29 | 360 | 17.7 | 27.4 | 0.00 | 0.00 | 0.00 | 71 | 1018.4 |
| 20260831152826 | 29 | 360 | 16.1 | 25.7 | 0.00 | 0.00 | 0.00 | 71 | 1018.3 |
| 20260831152729 | 30 | 360 | 16.1 | 25.7 | 0.00 | 0.00 | 0.00 | 70 | 1018.3 |
| 20260831152649 | 30 | 140 | 11.3 | 22.5 | 0.00 | 0.00 | 0.00 | 71 | 1018.3 |
| 20260831152528 | 30 | 360 | 9.7 | 22.5 | 0.00 | 0.00 | 0.00 | 71 | 1018.4 |
| 20260831152447 | 30 | 360 | 6.4 | 22.5 | 0.00 | 0.00 | 0.00 | 73 | 1018.4 |
| 20260831152326 | 30 | 180 | 6.4 | 16.1 | 0.00 | 0.00 | 0.00 | 73 | 1018.4 |
| 20260831152226 | 30 | 360 | 4.8 | 16.1 | 0.00 | 0.00 | 0.00 | 73 | 1018.4 |
| 20260831152126 | 30 | 360 | 6.4 | 16.1 | 0.00 | 0.00 | 0.00 | 74 | 1018.4 |
| 20260831152026 | 30 | 360 | 6.4 | 16.1 | 0.00 | 0.00 | 0.00 | 74 | 1018.4 |
| 20260831151931 | 29 | 360 | 6.4 | 17.7 | 0.00 | 0.00 | 0.00 | 74 | 1018.3 |
| 20260831151851 | 29 | 360 | 6.4 | 19.3 | 0.00 | 0.00 | 0.00 | 75 | 1018.4 |
| 20260831151729 | 29 | 360 | 6.4 | 19.3 | 0.00 | 0.00 | 0.00 | 75 | 1018.4 |
| 20260831151629 | 28 | 360 | 6.4 | 19.3 | 0.00 | 0.00 | 0.00 | 75 | 1018.4 |
| 20260831151529 | 28 | 360 | 6.4 | 19.3 | 0.00 | 0.00 | 0.00 | 75 | 1018.3 |
| 20260831151449 | 28 | 360 | 6.4 | 19.3 | 0.00 | 0.00 | 0.00 | 76 | 1018.2 |
| 20260831151348 | 28 | 360 | 8.0 | 22.5 | 0.00 | 0.00 | 0.00 | 76 | 1018.2 |
| 20260831151228 | 28 | 360 | 8.0 | 22.5 | 0.00 | 0.00 | 0.00 | 77 | 1018.3 |
| 20260831151127 | 28 | 360 | 6.4 | 22.5 | 0.00 | 0.00 | 0.00 | 78 | 1018.3 |
| 20260831151026 | 28 | 360 | 6.4 | 22.5 | 0.00 | 0.00 | 0.00 | 78 | 1018.2 |
| 20260831150952 | 28 | 360 | 4.8 | 22.5 | 0.00 | 0.00 | 0.00 | 78 | 1018.2 |
| 20260831150830 | 28 | 360 | 8.0 | 22.5 | 0.00 | 0.00 | 0.00 | 78 | 1018.2 |
| 20260831150731 | 28 | 360 | 11.3 | 22.5 | 0.00 | 0.00 | 0.00 | 78 | 1018.2 |
| 20260831150632 | 27 | 360 | 11.3 | 22.5 | 0.00 | 0.00 | 0.00 | 78 | 1018.2 |
| 20260831150553 | 27 | 360 | 9.7 | 22.5 | 0.00 | 0.00 | 0.00 | 79 | 1018.3 |
| 20260831150452 | 27 | 360 | 9.7 | 20.9 | 0.00 | 0.00 | 0.00 | 79 | 1018.3 |
| 20260831150332 | 27 | 360 | 11.3 | 17.7 | 0.00 | 0.00 | 0.00 | 79 | 1018.2 |
| 20260831150232 | 27 | 360 | 11.3 | 17.7 | 0.00 | 0.00 | 0.00 | 79 | 1018.2 |
| 20260831150116 | 27 | 360 | 8.0 | 17.7 | 0.00 | 0.00 | 0.00 | 79 | 1018.2 |
| 20260831150017 | 27 | 360 | 6.4 | 17.7 | 0.00 | 0.00 | 0.00 | 79 | 1018.2 |
| 20260831145918 | 27 | 360 | 6.4 | 17.7 | 0.00 | 0.00 | 0.00 | 80 | 1018.2 |
| 20260831145818 | 27 | 360 | 6.4 | 17.7 | 0.00 | 0.00 | 0.00 | 80 | 1018.2 |
| 20260831145717 | 27 | 360 | 6.4 | 17.7 | 0.00 | 0.00 | 0.00 | 80 | 1018.2 |
| 20260831145617 | 27 | 360 | 6.4 | 17.7 | 0.00 | 0.00 | 0.00 | 80 | 1018.2 |
| 20260831145522 | 27 | 360 | 6.4 | 17.7 | 0.00 | 0.00 | 0.00 | 80 | 1018.2 |
| 20260831145423 | 27 | 360 | 6.4 | 19.3 | 0.00 | 0.00 | 0.00 | 80 | 1018.2 |
| 20260831145325 | 27 | 360 | 8.0 | 19.3 | 0.00 | 0.00 | 0.00 | 80 | 1018.2 |
| 20260831145224 | 27 | 360 | 6.4 | 19.3 | 0.00 | 0.00 | 0.00 | 80 | 1018.1 |
| 20260831145125 | 27 | 360 | 4.8 | 19.3 | 0.00 | 0.00 | 0.00 | 80 | 1018.2 |
| 20260831145046 | 27 | 360 | 4.8 | 19.3 | 0.00 | 0.00 | 0.00 | 80 | 1018.2 |
| 20260831144926 | 27 | 360 | 6.4 | 19.3 | 0.00 | 0.00 | 0.00 | 80 | 1018.2 |
| 20260831144826 | 27 | 360 | 8.0 | 20.9 | 0.00 | 0.00 | 0.00 | 80 | 1018.2 |
| 20260831144731 | 27 | 360 | 9.7 | 20.9 | 0.00 | 0.00 | 0.00 | 80 | 1018.2 |
| 20260831144650 | 27 | 360 | 9.7 | 20.9 | 0.00 | 0.00 | 0.00 | 80 | 1018.2 |
| 20260831144529 | 27 | 360 | 8.0 | 20.9 | 0.00 | 0.00 | 0.00 | 80 | 1018.1 |
| 20260831144430 | 27 | 360 | 6.4 | 22.5 | 0.00 | 0.00 | 0.00 | 80 | 1018.2 |
| 20260831144330 | 27 | 360 | 8.0 | 22.5 | 0.00 | 0.00 | 0.00 | 80 | 1018.2 |
| 20260831144231 | 27 | 360 | 9.7 | 22.5 | 0.00 | 0.00 | 0.00 | 80 | 1018.2 |
| 20260831144131 | 27 | 360 | 9.7 | 22.5 | 0.00 | 0.00 | 0.00 | 80 | 1018.1 |
| 20260831144035 | 27 | 360 | 8.0 | 22.5 | 0.00 | 0.00 | 0.00 | 79 | 1018.1 |
| 20260831143916 | 27 | 360 | 8.0 | 22.5 | 0.00 | 0.00 | 0.00 | 80 | 1018.1 |
| 20260831143817 | 27 | 360 | 8.0 | 22.5 | 0.00 | 0.00 | 0.00 | 80 | 1018.1 |
| 20260831143717 | 27 | 360 | 9.7 | 22.5 | 0.00 | 0.00 | 0.00 | 80 | 1018.1 |
| 20260831143617 | 27 | 360 | 9.7 | 19.3 | 0.00 | 0.00 | 0.00 | 80 | 1018.1 |
| 20260831143518 | 27 | 360 | 9.7 | 19.3 | 0.00 | 0.00 | 0.00 | 80 | 1018.1 |
| 20260831143423 | 27 | 360 | 8.0 | 19.3 | 0.00 | 0.00 | 0.00 | 81 | 1018.0 |
| 20260831143323 | 27 | 360 | 11.3 | 19.3 | 0.00 | 0.00 | 0.00 | 81 | 1018.1 |
| 20260831143223 | 27 | 360 | 11.3 | 19.3 | 0.00 | 0.00 | 0.00 | 80 | 1018.1 |
| 20260831143124 | 27 | 360 | 11.3 | 19.3 | 0.00 | 0.00 | 0.00 | 80 | 1018.0 |
| 20260831143025 | 27 | 360 | 8.0 | 19.3 | 0.00 | 0.00 | 0.00 | 80 | 1018.1 |
| 20260831142926 | 27 | 360 | 4.8 | 20.9 | 0.00 | 0.00 | 0.00 | 80 | 1018.0 |
| 20260831142832 | 27 | 360 | 4.8 | 20.9 | 0.00 | 0.00 | 0.00 | 80 | 1018.1 |
| 20260831142730 | 27 | 360 | 6.4 | 20.9 | 0.00 | 0.00 | 0.00 | 80 | 1018.0 |
| 20260831142632 | 27 | 360 | 8.0 | 20.9 | 0.00 | 0.00 | 0.00 | 80 | 1018.0 |
| 20260831142552 | 27 | 360 | 8.0 | 20.9 | 0.00 | 0.00 | 0.00 | 80 | 1017.9 |
| 20260831142432 | 27 | 360 | 8.0 | 20.9 | 0.00 | 0.00 | 0.00 | 81 | 1017.9 |
| 20260831142333 | 27 | 360 | 8.0 | 20.9 | 0.00 | 0.00 | 0.00 | 81 | 1017.9 |
| 20260831142232 | 27 | 360 | 8.0 | 20.9 | 0.00 | 0.00 | 0.00 | 81 | 1017.9 |
| 20260831142117 | 27 | 360 | 8.0 | 20.9 | 0.00 | 0.00 | 0.00 | 81 | 1017.9 |
| 20260831142017 | 27 | 360 | 9.7 | 20.9 | 0.00 | 0.00 | 0.00 | 81 | 1017.9 |
| 20260831141917 | 27 | 360 | 11.3 | 20.9 | 0.00 | 0.00 | 0.00 | 81 | 1017.9 |
| 20260831141816 | 27 | 360 | 11.3 | 20.9 | 0.00 | 0.00 | 0.00 | 80 | 1017.9 |
| 20260831141737 | 27 | 360 | 8.0 | 20.9 | 0.00 | 0.00 | 0.00 | 81 | 1017.8 |
| 20260831141617 | 27 | 360 | 4.8 | 20.9 | 0.00 | 0.00 | 0.00 | 81 | 1017.8 |
| 20260831141517 | 27 | 360 | 4.8 | 20.9 | 0.00 | 0.00 | 0.00 | 81 | 1017.9 |
| 20260831141438 | 27 | 360 | 6.4 | 20.9 | 0.00 | 0.00 | 0.00 | 81 | 1017.9 |
| 20260831141321 | 27 | 360 | 6.4 | 20.9 | 0.00 | 0.00 | 0.00 | 82 | 1017.9 |
| 20260831141221 | 27 | 360 | 4.8 | 20.9 | 0.00 | 0.00 | 0.00 | 82 | 1017.8 |
| 20260831141122 | 27 | 360 | 4.8 | 17.7 | 0.00 | 0.00 | 0.00 | 82 | 1017.9 |
| 20260831141021 | 27 | 360 | 4.8 | 16.1 | 0.00 | 0.00 | 0.00 | 82 | 1017.9 |
| 20260831140922 | 27 | 360 | 6.4 | 16.1 | 0.00 | 0.00 | 0.00 | 83 | 1017.9 |
| 20260831140822 | 27 | 360 | 6.4 | 16.1 | 0.00 | 0.00 | 0.00 | 83 | 1017.9 |
| 20260831140742 | 27 | 360 | 4.8 | 14.5 | 0.00 | 0.00 | 0.00 | 84 | 1017.8 |
| 20260831140626 | 27 | 360 | 6.4 | 14.5 | 0.00 | 0.00 | 0.00 | 83 | 1017.8 |
| 20260831140527 | 27 | 360 | 4.8 | 14.5 | 0.00 | 0.00 | 0.00 | 83 | 1017.8 |
| 20260831140426 | 27 | 360 | 4.8 | 14.5 | 0.00 | 0.00 | 0.00 | 84 | 1017.7 |
| 20260831140326 | 27 | 360 | 3.2 | 12.9 | 0.00 | 0.00 | 0.00 | 84 | 1017.8 |
| 20260831140227 | 27 | 360 | 3.2 | 12.9 | 0.00 | 0.00 | 0.00 | 84 | 1017.8 |
| 20260831140148 | 27 | 360 | 3.2 | 12.9 | 0.00 | 0.00 | 0.00 | 84 | 1017.7 |
| 20260831140028 | 27 | 360 | 3.2 | 12.9 | 0.00 | 0.00 | 0.00 | 84 | 1017.7 |
| 20260831135929 | 27 | 360 | 4.8 | 14.5 | 0.00 | 0.00 | 0.00 | 84 | 1017.8 |
| 20260831135835 | 27 | 360 | 4.8 | 14.5 | 0.00 | 0.00 | 0.00 | 85 | 1017.7 |
| 20260831135735 | 27 | 360 | 3.2 | 14.5 | 0.00 | 0.00 | 0.00 | 85 | 1017.7 |
| 20260831135616 | 27 | 360 | 4.8 | 14.5 | 0.00 | 0.00 | 0.00 | 85 | 1017.6 |
| 20260831135515 | 27 | 360 | 6.4 | 14.5 | 0.00 | 0.00 | 0.00 | 85 | 1017.7 |
| 20260831135416 | 26 | 360 | 6.4 | 16.1 | 0.00 | 0.00 | 0.00 | 86 | 1017.6 |
| 20260831135317 | 26 | 360 | 6.4 | 16.1 | 0.00 | 0.00 | 0.00 | 86 | 1017.6 |
| 20260831135222 | 26 | 360 | 6.4 | 17.7 | 0.00 | 0.00 | 0.00 | 86 | 1017.6 |
| 20260831135122 | 26 | 360 | 6.4 | 17.7 | 0.00 | 0.00 | 0.00 | 86 | 1017.7 |
| 20260831134943 | 26 | 360 | 6.4 | 17.7 | 0.00 | 0.00 | 0.00 | 86 | 1017.6 |
| 20260831134822 | 26 | 360 | 6.4 | 17.7 | 0.00 | 0.00 | 0.00 | 86 | 1017.6 |
| 20260831134723 | 26 | 360 | 6.4 | 17.7 | 0.00 | 0.00 | 0.00 | 86 | 1017.7 |
| 20260831134623 | 26 | 360 | 8.0 | 17.7 | 0.00 | 0.00 | 0.00 | 86 | 1017.7 |
| 20260831134528 | 26 | 360 | 8.0 | 17.7 | 0.00 | 0.00 | 0.00 | 86 | 1017.7 |
| 20260831134428 | 26 | 360 | 6.4 | 17.7 | 0.00 | 0.00 | 0.00 | 87 | 1017.7 |
| 20260831134349 | 26 | 360 | 4.8 | 12.9 | 0.00 | 0.00 | 0.00 | 87 | 1017.5 |
| 20260831134228 | 26 | 360 | 3.2 | 12.9 | 0.00 | 0.00 | 0.00 | 87 | 1017.6 |
| 20260831134149 | 26 | 360 | 3.2 | 12.9 | 0.00 | 0.00 | 0.00 | 88 | 1017.6 |
| 20260831134028 | 26 | 360 | 4.8 | 12.9 | 0.00 | 0.00 | 0.00 | 87 | 1017.6 |
| 20260831133929 | 26 | 198 | 6.4 | 12.9 | 0.00 | 0.00 | 0.00 | 87 | 1017.5 |
| 20260831133829 | 26 | 360 | 8.0 | 12.9 | 0.00 | 0.00 | 0.00 | 88 | 1017.5 |
| 20260831133755 | 26 | 360 | 6.4 | 12.9 | 0.00 | 0.00 | 0.00 | 88 | 1017.6 |
| 20260831133635 | 26 | 360 | 4.8 | 12.9 | 0.00 | 0.00 | 0.00 | 88 | 1017.5 |
| 20260831133554 | 26 | 360 | 3.2 | 9.7 | 0.00 | 0.00 | 0.00 | 88 | 1017.5 |
| 20260831133435 | 26 | 360 | 1.6 | 9.7 | 0.00 | 0.00 | 0.00 | 89 | 1017.5 |
| 20260831133356 | 26 | 360 | 3.2 | 9.7 | 0.00 | 0.00 | 0.00 | 89 | 1017.5 |
| 20260831133215 | 26 | 360 | 4.8 | 9.7 | 0.00 | 0.00 | 0.00 | 89 | 1017.5 |
| 20260831133116 | 26 | 360 | 4.8 | 12.9 | 0.00 | 0.00 | 0.00 | 89 | 1017.5 |
| 20260831133022 | 26 | 360 | 6.4 | 14.5 | 0.00 | 0.00 | 0.00 | 89 | 1017.5 |
| 20260831132921 | 26 | 360 | 6.4 | 14.5 | 0.00 | 0.00 | 0.00 | 89 | 1017.4 |
| 20260831132824 | 26 | 360 | 6.4 | 14.5 | 0.00 | 0.00 | 0.00 | 89 | 1017.4 |
| 20260831132724 | 26 | 360 | 4.8 | 14.5 | 0.00 | 0.00 | 0.00 | 89 | 1017.5 |
| 20260831132624 | 26 | 360 | 3.2 | 14.5 | 0.00 | 0.00 | 0.00 | 89 | 1017.4 |
| 20260831132525 | 26 | 360 | 4.8 | 14.5 | 0.00 | 0.00 | 0.00 | 89 | 1017.5 |
| 20260831132426 | 25 | 360 | 6.4 | 14.5 | 0.00 | 0.00 | 0.00 | 89 | 1017.5 |
| 20260831132350 | 25 | 360 | 6.4 | 14.5 | 0.00 | 0.00 | 0.00 | 89 | 1017.5 |
| 20260831132230 | 25 | 360 | 6.4 | 14.5 | 0.00 | 0.00 | 0.00 | 90 | 1017.5 |
| 20260831132131 | 25 | 360 | 6.4 | 14.5 | 0.00 | 0.00 | 0.00 | 89 | 1017.5 |
| 20260831132031 | 25 | 360 | 8.0 | 14.5 | 0.00 | 0.00 | 0.00 | 89 | 1017.5 |
| 20260831131951 | 25 | 360 | 8.0 | 14.5 | 0.00 | 0.00 | 0.00 | 90 | 1017.5 |
| 20260831131832 | 25 | 360 | 8.0 | 14.5 | 0.00 | 0.00 | 0.00 | 90 | 1017.5 |
| 20260831131732 | 25 | 360 | 9.7 | 14.5 | 0.00 | 0.00 | 0.00 | 90 | 1017.4 |
| 20260831131616 | 25 | 360 | 6.4 | 14.5 | 0.00 | 0.00 | 0.00 | 90 | 1017.4 |
| 20260831131518 | 25 | 360 | 6.4 | 12.9 | 0.00 | 0.00 | 0.00 | 90 | 1017.5 |
| 20260831131419 | 25 | 360 | 6.4 | 12.9 | 0.00 | 0.00 | 0.00 | 90 | 1017.4 |
| 20260831131320 | 25 | 360 | 6.4 | 12.9 | 0.00 | 0.00 | 0.00 | 90 | 1017.4 |
| 20260831131220 | 25 | 360 | 4.8 | 9.7 | 0.00 | 0.00 | 0.00 | 90 | 1017.5 |
| 20260831131120 | 25 | 360 | 4.8 | 12.9 | 0.00 | 0.00 | 0.00 | 90 | 1017.5 |
| 20260831131025 | 25 | 360 | 4.8 | 12.9 | 0.00 | 0.00 | 0.00 | 90 | 1017.4 |
| 20260831130927 | 25 | 360 | 6.4 | 12.9 | 0.00 | 0.00 | 0.00 | 90 | 1017.4 |
| 20260831130827 | 25 | 360 | 6.4 | 12.9 | 0.00 | 0.00 | 0.00 | 90 | 1017.4 |
| 20260831130728 | 25 | 360 | 6.4 | 12.9 | 0.00 | 0.00 | 0.00 | 90 | 1017.3 |
| 20260831130629 | 25 | 360 | 4.8 | 12.9 | 0.00 | 0.00 | 0.00 | 90 | 1017.4 |
| 20260831130528 | 25 | 360 | 4.8 | 12.9 | 0.00 | 0.00 | 0.00 | 90 | 1017.3 |
| 20260831130429 | 25 | 360 | 4.8 | 12.9 | 0.00 | 0.00 | 0.00 | 90 | 1017.3 |
| 20260831130353 | 25 | 360 | 4.8 | 12.9 | 0.00 | 0.00 | 0.00 | 90 | 1017.3 |
| 20260831130232 | 25 | 360 | 3.2 | 12.9 | 0.00 | 0.00 | 0.00 | 90 | 1017.3 |
| 20260831130133 | 25 | 360 | 1.6 | 9.7 | 0.00 | 0.00 | 0.00 | 90 | 1017.3 |
| 20260831130033 | 25 | 360 | 1.6 | 9.7 | 0.00 | 0.00 | 0.00 | 90 | 1017.2 |
| 20260831125933 | 25 | 360 | 3.2 | 9.7 | 0.00 | 0.00 | 0.00 | 90 | 1017.3 |
| 20260831125835 | 25 | 360 | 3.2 | 9.7 | 0.00 | 0.00 | 0.00 | 90 | 1017.3 |
| 20260831125719 | 25 | 360 | 4.8 | 9.7 | 0.00 | 0.00 | 0.00 | 90 | 1017.3 |
| 20260831125617 | 25 | 360 | 3.2 | 9.7 | 0.00 | 0.00 | 0.00 | 90 | 1017.3 |
| 20260831125517 | 25 | 360 | 3.2 | 9.7 | 0.00 | 0.00 | 0.00 | 91 | 1017.2 |
| 20260831125418 | 25 | 360 | 3.2 | 8.0 | 0.00 | 0.00 | 0.00 | 91 | 1017.1 |
| 20260831125318 | 25 | 360 | 4.8 | 8.0 | 0.00 | 0.00 | 0.00 | 90 | 1017.2 |
| 20260831125219 | 25 | 360 | 4.8 | 8.0 | 0.00 | 0.00 | 0.00 | 91 | 1017.1 |
| 20260831125119 | 25 | 360 | 4.8 | 8.0 | 0.00 | 0.00 | 0.00 | 91 | 1017.1 |
| 20260831125024 | 25 | 360 | 3.2 | 8.0 | 0.00 | 0.00 | 0.00 | 91 | 1017.1 |
| 20260831124925 | 25 | 360 | 1.6 | 8.0 | 0.00 | 0.00 | 0.00 | 91 | 1017.1 |
| 20260831124826 | 25 | 360 | 1.6 | 8.0 | 0.00 | 0.00 | 0.00 | 91 | 1017.2 |
| 20260831124728 | 25 | 360 | 1.6 | 8.0 | 0.00 | 0.00 | 0.00 | 91 | 1017.1 |
| 20260831124629 | 25 | 360 | 3.2 | 8.0 | 0.00 | 0.00 | 0.00 | 91 | 1017.1 |
| 20260831124530 | 25 | 360 | 3.2 | 6.4 | 0.00 | 0.00 | 0.00 | 91 | 1017.1 |
| 20260831124450 | 25 | 360 | 3.2 | 6.4 | 0.00 | 0.00 | 0.00 | 91 | 1017.1 |
| 20260831124334 | 25 | 360 | 3.2 | 6.4 | 0.00 | 0.00 | 0.00 | 91 | 1017.1 |
| 20260831124254 | 25 | 360 | 1.6 | 6.4 | 0.00 | 0.00 | 0.00 | 91 | 1017.1 |
| 20260831124134 | 25 | 360 | 3.2 | 6.4 | 0.00 | 0.00 | 0.00 | 91 | 1017.1 |
| 20260831124034 | 25 | 360 | 3.2 | 6.4 | 0.00 | 0.00 | 0.00 | 91 | 1017.0 |
| 20260831123935 | 25 | 360 | 3.2 | 6.4 | 0.00 | 0.00 | 0.00 | 91 | 1017.1 |
| 20260831123816 | 25 | 360 | 1.6 | 6.4 | 0.00 | 0.00 | 0.00 | 91 | 1017.1 |
| 20260831123717 | 25 | 360 | 3.2 | 8.0 | 0.00 | 0.00 | 0.00 | 91 | 1017.0 |
| 20260831123621 | 25 | 360 | 3.2 | 8.0 | 0.00 | 0.00 | 0.00 | 91 | 1017.1 |
| 20260831123523 | 25 | 360 | 3.2 | 8.0 | 0.00 | 0.00 | 0.00 | 91 | 1017.1 |
| 20260831123423 | 25 | 360 | 3.2 | 8.0 | 0.00 | 0.00 | 0.00 | 91 | 1017.1 |
| 20260831123344 | 25 | 360 | 1.6 | 8.0 | 0.00 | 0.00 | 0.00 | 91 | 1017.1 |
| 20260831123224 | 25 | 360 | 3.2 | 8.0 | 0.00 | 0.00 | 0.00 | 91 | 1017.1 |
| 20260831123125 | 25 | 360 | 3.2 | 8.0 | 0.00 | 0.00 | 0.00 | 91 | 1017.0 |
| 20260831123025 | 25 | 360 | 4.8 | 8.0 | 0.00 | 0.00 | 0.00 | 91 | 1017.0 |
| 20260831122950 | 25 | 360 | 4.8 | 8.0 | 0.00 | 0.00 | 0.00 | 91 | 1017.0 |
| 20260831122832 | 25 | 360 | 4.8 | 8.0 | 0.00 | 0.00 | 0.00 | 91 | 1017.1 |
| 20260831122731 | 24 | 360 | 4.8 | 8.0 | 0.00 | 0.00 | 0.00 | 91 | 1017.0 |
| 20260831122631 | 24 | 188 | 4.8 | 8.0 | 0.00 | 0.00 | 0.00 | 91 | 1017.0 |
| 20260831122532 | 24 | 360 | 3.2 | 8.0 | 0.00 | 0.00 | 0.00 | 90 | 1017.0 |
| 20260831122433 | 24 | 360 | 4.8 | 8.0 | 0.00 | 0.00 | 0.00 | 90 | 1017.0 |
| 20260831122354 | 24 | 360 | 4.8 | 8.0 | 0.00 | 0.00 | 0.00 | 90 | 1017.0 |
| 20260831122218 | 24 | 360 | 4.8 | 8.0 | 0.00 | 0.00 | 0.00 | 90 | 1017.0 |
| 20260831122118 | 25 | 360 | 4.8 | 8.0 | 0.00 | 0.00 | 0.00 | 90 | 1017.1 |
| 20260831122018 | 25 | 360 | 4.8 | 8.0 | 0.00 | 0.00 | 0.00 | 90 | 1017.2 |
| 20260831121938 | 25 | 360 | 4.8 | 8.0 | 0.00 | 0.00 | 0.00 | 90 | 1017.0 |
| 20260831121818 | 25 | 360 | 4.8 | 8.0 | 0.00 | 0.00 | 0.00 | 90 | 1017.1 |
| 20260831121718 | 25 | 360 | 3.2 | 6.4 | 0.00 | 0.00 | 0.00 | 90 | 1017.1 |
| 20260831121619 | 25 | 360 | 3.2 | 6.4 | 0.00 | 0.00 | 0.00 | 90 | 1017.0 |
| 20260831121524 | 25 | 360 | 3.2 | 6.4 | 0.00 | 0.00 | 0.00 | 90 | 1017.1 |
| 20260831121424 | 25 | 360 | 4.8 | 6.4 | 0.00 | 0.00 | 0.00 | 90 | 1017.0 |
| 20260831121324 | 25 | 360 | 3.2 | 6.4 | 0.00 | 0.00 | 0.00 | 90 | 1017.1 |
| 20260831121226 | 25 | 360 | 3.2 | 6.4 | 0.00 | 0.00 | 0.00 | 90 | 1017.0 |
| 20260831121147 | 25 | 360 | 3.2 | 6.4 | 0.00 | 0.00 | 0.00 | 90 | 1017.0 |
| 20260831121027 | 25 | 360 | 3.2 | 6.4 | 0.00 | 0.00 | 0.00 | 90 | 1017.1 |
| 20260831120947 | 25 | 360 | 3.2 | 6.4 | 0.00 | 0.00 | 0.00 | 90 | 1017.0 |
| 20260831120831 | 25 | 360 | 3.2 | 6.4 | 0.00 | 0.00 | 0.00 | 90 | 1016.9 |
| 20260831120731 | 25 | 360 | 1.6 | 6.4 | 0.00 | 0.00 | 0.00 | 90 | 1017.0 |
| 20260831120631 | 25 | 186 | 1.6 | 6.4 | 0.00 | 0.00 | 0.00 | 90 | 1016.9 |
| 20260831120531 | 25 | 360 | 1.6 | 6.4 | 0.00 | 0.00 | 0.00 | 90 | 1017.0 |
| 20260831120451 | 25 | 360 | 1.6 | 6.4 | 0.00 | 0.00 | 0.00 | 90 | 1017.0 |
| 20260831120330 | 25 | 360 | 3.2 | 6.4 | 0.00 | 0.00 | 0.00 | 90 | 1016.9 |
| 20260831120231 | 25 | 360 | 3.2 | 6.4 | 0.00 | 0.00 | 0.00 | 90 | 1016.9 |
| 20260831120116 | 25 | 360 | 3.2 | 6.4 | 0.00 | 0.00 | 0.00 | 90 | 1017.0 |
| 20260831120017 | 25 | 360 | 3.2 | 6.4 | 0.00 | 0.00 | 0.00 | 90 | 1017.0 |
| 20260831115917 | 25 | 360 | 1.6 | 8.0 | 0.00 | 0.00 | 0.00 | 90 | 1017.0 |
| 20260831115819 | 25 | 360 | 1.6 | 8.0 | 0.00 | 0.00 | 0.00 | 90 | 1017.0 |
| 20260831115720 | 25 | 360 | 3.2 | 8.0 | 0.00 | 0.00 | 0.00 | 90 | 1017.0 |
| 20260831115620 | 25 | 360 | 3.2 | 8.0 | 0.00 | 0.00 | 0.00 | 90 | 1017.0 |
| 20260831115520 | 25 | 360 | 3.2 | 9.7 | 0.00 | 0.00 | 0.00 | 90 | 1017.0 |
| 20260831115424 | 25 | 360 | 4.8 | 9.7 | 0.00 | 0.00 | 0.00 | 90 | 1017.0 |
| 20260831115325 | 25 | 360 | 4.8 | 9.7 | 0.00 | 0.00 | 0.00 | 90 | 1017.0 |
| 20260831115225 | 25 | 360 | 4.8 | 9.7 | 0.00 | 0.00 | 0.00 | 90 | 1017.1 |
| 20260831115125 | 25 | 360 | 6.4 | 9.7 | 0.00 | 0.00 | 0.00 | 90 | 1017.0 |
| 20260831115027 | 25 | 360 | 6.4 | 9.7 | 0.00 | 0.00 | 0.00 | 90 | 1017.0 |
| 20260831114927 | 25 | 360 | 6.4 | 9.7 | 0.00 | 0.00 | 0.00 | 90 | 1017.0 |
| 20260831114831 | 25 | 360 | 6.4 | 14.5 | 0.00 | 0.00 | 0.00 | 90 | 1017.0 |
| 20260831114732 | 25 | 360 | 6.4 | 14.5 | 0.00 | 0.00 | 0.00 | 90 | 1017.0 |
| 20260831114632 | 25 | 360 | 4.8 | 14.5 | 0.00 | 0.00 | 0.00 | 89 | 1017.0 |
| 20260831114532 | 25 | 360 | 4.8 | 14.5 | 0.00 | 0.00 | 0.00 | 90 | 1017.0 |
| 20260831114432 | 25 | 360 | 4.8 | 14.5 | 0.00 | 0.00 | 0.00 | 89 | 1017.0 |
| 20260831114332 | 25 | 360 | 4.8 | 14.5 | 0.00 | 0.00 | 0.00 | 89 | 1017.0 |
| 20260831114216 | 25 | 360 | 4.8 | 14.5 | 0.00 | 0.00 | 0.00 | 89 | 1017.0 |
| 20260831114117 | 25 | 360 | 6.4 | 14.5 | 0.00 | 0.00 | 0.00 | 89 | 1016.9 |
| 20260831114017 | 25 | 360 | 6.4 | 14.5 | 0.00 | 0.00 | 0.00 | 89 | 1016.9 |
| 20260831113918 | 25 | 360 | 6.4 | 14.5 | 0.00 | 0.00 | 0.00 | 89 | 1016.9 |
| 20260831113818 | 25 | 360 | 6.4 | 14.5 | 0.00 | 0.00 | 0.00 | 89 | 1016.9 |
| 20260831113719 | 25 | 360 | 6.4 | 14.5 | 0.00 | 0.00 | 0.00 | 89 | 1017.0 |
| 20260831113619 | 25 | 360 | 6.4 | 14.5 | 0.00 | 0.00 | 0.00 | 89 | 1017.0 |
| 20260831113544 | 25 | 360 | 6.4 | 14.5 | 0.00 | 0.00 | 0.00 | 89 | 1016.9 |
| 20260831113424 | 25 | 360 | 6.4 | 14.5 | 0.00 | 0.00 | 0.00 | 89 | 1016.9 |
| 20260831113325 | 25 | 360 | 6.4 | 8.0 | 0.00 | 0.00 | 0.00 | 89 | 1017.0 |
| 20260831113225 | 25 | 360 | 6.4 | 8.0 | 0.00 | 0.00 | 0.00 | 89 | 1017.0 |
| 20260831113126 | 25 | 360 | 4.8 | 8.0 | 0.00 | 0.00 | 0.00 | 89 | 1017.0 |
| 20260831113028 | 25 | 360 | 3.2 | 8.0 | 0.00 | 0.00 | 0.00 | 89 | 1017.0 |
| 20260831112928 | 25 | 360 | 3.2 | 8.0 | 0.00 | 0.00 | 0.00 | 89 | 1017.1 |
| 20260831112834 | 25 | 360 | 1.6 | 8.0 | 0.00 | 0.00 | 0.00 | 89 | 1017.1 |
| 20260831112733 | 25 | 360 | 3.2 | 8.0 | 0.00 | 0.00 | 0.00 | 89 | 1017.1 |
| 20260831112633 | 25 | 360 | 3.2 | 11.3 | 0.00 | 0.00 | 0.00 | 89 | 1017.1 |
| 20260831112534 | 25 | 360 | 3.2 | 11.3 | 0.00 | 0.00 | 0.00 | 89 | 1017.1 |
| 20260831112453 | 25 | 360 | 3.2 | 11.3 | 0.00 | 0.00 | 0.00 | 89 | 1017.0 |
| 20260831112333 | 25 | 360 | 3.2 | 11.3 | 0.00 | 0.00 | 0.00 | 89 | 1017.0 |
| 20260831112234 | 25 | 360 | 3.2 | 11.3 | 0.00 | 0.00 | 0.00 | 89 | 1017.0 |
| 20260831112139 | 25 | 360 | 4.8 | 11.3 | 0.00 | 0.00 | 0.00 | 89 | 1017.1 |
| 20260831112019 | 25 | 360 | 6.4 | 12.9 | 0.00 | 0.00 | 0.00 | 89 | 1017.0 |
| 20260831111919 | 25 | 360 | 6.4 | 12.9 | 0.00 | 0.00 | 0.00 | 89 | 1017.1 |
| 20260831111819 | 25 | 360 | 8.0 | 12.9 | 0.00 | 0.00 | 0.00 | 89 | 1017.0 |
| 20260831111720 | 25 | 360 | 6.4 | 9.7 | 0.00 | 0.00 | 0.00 | 89 | 1017.1 |
| 20260831111621 | 25 | 360 | 4.8 | 8.0 | 0.00 | 0.00 | 0.00 | 89 | 1017.0 |
| 20260831111521 | 25 | 360 | 3.2 | 8.0 | 0.00 | 0.00 | 0.00 | 89 | 1017.0 |
| 20260831111426 | 25 | 360 | 1.6 | 8.0 | 0.00 | 0.00 | 0.00 | 89 | 1017.0 |
| 20260831111346 | 25 | 360 | 1.6 | 8.0 | 0.00 | 0.00 | 0.00 | 89 | 1017.0 |
| 20260831111246 | 25 | 360 | 3.2 | 8.0 | 0.00 | 0.00 | 0.00 | 89 | 1017.1 |
| 20260831111125 | 25 | 360 | 4.8 | 8.0 | 0.00 | 0.00 | 0.00 | 89 | 1017.0 |
| 20260831111025 | 25 | 360 | 4.8 | 8.0 | 0.00 | 0.00 | 0.00 | 89 | 1016.9 |
| 20260831110926 | 25 | 360 | 3.2 | 8.0 | 0.00 | 0.00 | 0.00 | 89 | 1017.0 |
| 20260831110827 | 25 | 360 | 1.6 | 8.0 | 0.00 | 0.00 | 0.00 | 89 | 1017.0 |
| 20260831110748 | 25 | 360 | 1.6 | 8.0 | 0.00 | 0.00 | 0.00 | 89 | 1017.0 |
| 20260831110632 | 25 | 360 | 1.6 | 8.0 | 0.00 | 0.00 | 0.00 | 89 | 1017.0 |
| 20260831110532 | 25 | 360 | 1.6 | 8.0 | 0.00 | 0.00 | 0.00 | 89 | 1017.0 |
| 20260831110432 | 25 | 360 | 1.6 | 8.0 | 0.00 | 0.00 | 0.00 | 89 | 1017.0 |
| 20260831110333 | 25 | 360 | 3.2 | 8.0 | 0.00 | 0.00 | 0.00 | 89 | 1016.9 |
| 20260831110233 | 25 | 360 | 3.2 | 8.0 | 0.00 | 0.00 | 0.00 | 89 | 1016.9 |
| 20260831110134 | 25 | 360 | 3.2 | 8.0 | 0.00 | 0.00 | 0.00 | 89 | 1016.9 |
| 20260831110019 | 25 | 360 | 3.2 | 8.0 | 0.00 | 0.00 | 0.00 | 89 | 1016.9 |
| 20260831105920 | 25 | 360 | 3.2 | 8.0 | 0.00 | 0.00 | 0.00 | 89 | 1016.9 |
| 20260831105821 | 25 | 360 | 4.8 | 8.0 | 0.00 | 0.00 | 0.00 | 89 | 1016.9 |
| 20260831105720 | 25 | 360 | 3.2 | 8.0 | 0.00 | 0.00 | 0.00 | 89 | 1016.8 |
| 20260831105621 | 25 | 360 | 3.2 | 8.0 | 0.00 | 0.00 | 0.00 | 89 | 1016.8 |
| 20260831105522 | 25 | 360 | 1.6 | 8.0 | 0.00 | 0.00 | 0.00 | 89 | 1016.8 |
| 20260831105426 | 25 | 360 | 3.2 | 8.0 | 0.00 | 0.00 | 0.00 | 89 | 1016.8 |
| 20260831105326 | 25 | 360 | 3.2 | 8.0 | 0.00 | 0.00 | 0.00 | 89 | 1016.9 |
| 20260831105225 | 25 | 360 | 3.2 | 8.0 | 0.00 | 0.00 | 0.00 | 89 | 1016.8 |
| 20260831105126 | 25 | 360 | 3.2 | 8.0 | 0.00 | 0.00 | 0.00 | 89 | 1016.8 |
| 20260831105027 | 25 | 360 | 4.8 | 8.0 | 0.00 | 0.00 | 0.00 | 89 | 1016.8 |
| 20260831104929 | 25 | 360 | 3.2 | 8.0 | 0.00 | 0.00 | 0.00 | 89 | 1016.8 |
| 20260831104829 | 25 | 360 | 3.2 | 8.0 | 0.00 | 0.00 | 0.00 | 89 | 1016.8 |
| 20260831104733 | 25 | 360 | 3.2 | 8.0 | 0.00 | 0.00 | 0.00 | 89 | 1016.7 |
| 20260831104633 | 25 | 360 | 3.2 | 8.0 | 0.00 | 0.00 | 0.00 | 89 | 1016.9 |
| 20260831104533 | 25 | 360 | 1.6 | 8.0 | 0.00 | 0.00 | 0.00 | 89 | 1016.8 |
| 20260831104454 | 25 | 360 | 1.6 | 8.0 | 0.00 | 0.00 | 0.00 | 89 | 1016.8 |
| 20260831104333 | 25 | 360 | 1.6 | 8.0 | 0.00 | 0.00 | 0.00 | 89 | 1016.8 |
| 20260831104233 | 25 | 360 | 3.2 | 8.0 | 0.00 | 0.00 | 0.00 | 89 | 1016.8 |
| 20260831104133 | 25 | 360 | 3.2 | 8.0 | 0.00 | 0.00 | 0.00 | 89 | 1016.9 |
| 20260831104018 | 25 | 360 | 3.2 | 8.0 | 0.00 | 0.00 | 0.00 | 89 | 1016.8 |
| 20260831103919 | 25 | 360 | 1.6 | 8.0 | 0.00 | 0.00 | 0.00 | 89 | 1016.9 |
| 20260831103819 | 25 | 360 | 1.6 | 8.0 | 0.00 | 0.00 | 0.00 | 89 | 1016.8 |
| 20260831103720 | 25 | 360 | 1.6 | 8.0 | 0.00 | 0.00 | 0.00 | 89 | 1016.8 |
| 20260831103642 | 25 | 360 | 3.2 | 8.0 | 0.00 | 0.00 | 0.00 | 89 | 1016.8 |
| 20260831103520 | 25 | 198 | 3.2 | 8.0 | 0.00 | 0.00 | 0.00 | 89 | 1016.8 |
| 20260831103421 | 25 | 360 | 4.8 | 8.0 | 0.00 | 0.00 | 0.00 | 89 | 1016.9 |
| 20260831103341 | 25 | 360 | 4.8 | 9.7 | 0.00 | 0.00 | 0.00 | 89 | 1016.8 |
| 20260831103225 | 25 | 360 | 4.8 | 9.7 | 0.00 | 0.00 | 0.00 | 89 | 1016.9 |
| 20260831103125 | 25 | 360 | 4.8 | 9.7 | 0.00 | 0.00 | 0.00 | 89 | 1016.9 |
| 20260831103025 | 25 | 360 | 3.2 | 9.7 | 0.00 | 0.00 | 0.00 | 89 | 1016.9 |
| 20260831102927 | 25 | 360 | 4.8 | 9.7 | 0.00 | 0.00 | 0.00 | 89 | 1016.9 |
| 20260831102828 | 25 | 360 | 4.8 | 9.7 | 0.00 | 0.00 | 0.00 | 89 | 1016.9 |
| 20260831102728 | 25 | 360 | 6.4 | 9.7 | 0.00 | 0.00 | 0.00 | 89 | 1016.8 |
| 20260831102632 | 25 | 360 | 6.4 | 9.7 | 0.00 | 0.00 | 0.00 | 89 | 1016.8 |
| 20260831102533 | 25 | 360 | 4.8 | 9.7 | 0.00 | 0.00 | 0.00 | 89 | 1016.8 |
| 20260831102433 | 25 | 360 | 4.8 | 9.7 | 0.00 | 0.00 | 0.00 | 88 | 1016.8 |
| 20260831102334 | 25 | 360 | 3.2 | 9.7 | 0.00 | 0.00 | 0.00 | 88 | 1016.8 |
| 20260831102234 | 25 | 360 | 3.2 | 9.7 | 0.00 | 0.00 | 0.00 | 88 | 1016.7 |
| 20260831102135 | 25 | 360 | 3.2 | 9.7 | 0.00 | 0.00 | 0.00 | 88 | 1016.8 |
| 20260831102020 | 25 | 360 | 3.2 | 9.7 | 0.00 | 0.00 | 0.00 | 88 | 1016.8 |
| 20260831101921 | 25 | 360 | 3.2 | 9.7 | 0.00 | 0.00 | 0.00 | 88 | 1016.8 |
| 20260831101822 | 25 | 360 | 3.2 | 9.7 | 0.00 | 0.00 | 0.00 | 88 | 1016.8 |
| 20260831101722 | 25 | 360 | 4.8 | 9.7 | 0.00 | 0.00 | 0.00 | 88 | 1016.8 |
| 20260831101643 | 25 | 360 | 4.8 | 12.9 | 0.00 | 0.00 | 0.00 | 88 | 1016.9 |
| 20260831101603 | 25 | 360 | 4.8 | 12.9 | 0.00 | 0.00 | 0.00 | 88 | 1016.9 |
| 20260831101416 | 25 | 360 | 4.8 | 12.9 | 0.00 | 0.00 | 0.00 | 88 | 1016.8 |
| 20260831101321 | 25 | 360 | 4.8 | 12.9 | 0.00 | 0.00 | 0.00 | 88 | 1016.9 |
| 20260831101223 | 25 | 184 | 4.8 | 12.9 | 0.00 | 0.00 | 0.00 | 88 | 1016.8 |
| 20260831101123 | 25 | 360 | 4.8 | 12.9 | 0.00 | 0.00 | 0.00 | 88 | 1016.9 |
| 20260831101024 | 25 | 360 | 6.4 | 12.9 | 0.00 | 0.00 | 0.00 | 88 | 1016.9 |
| 20260831100925 | 25 | 184 | 6.4 | 12.9 | 0.00 | 0.00 | 0.00 | 88 | 1016.9 |
| 20260831100825 | 25 | 360 | 4.8 | 12.9 | 0.00 | 0.00 | 0.00 | 88 | 1016.8 |
| 20260831100727 | 25 | 360 | 4.8 | 12.9 | 0.00 | 0.00 | 0.00 | 88 | 1016.9 |
| 20260831100630 | 25 | 360 | 4.8 | 12.9 | 0.00 | 0.00 | 0.00 | 88 | 1016.9 |
| 20260831100531 | 25 | 360 | 4.8 | 12.9 | 0.00 | 0.00 | 0.00 | 88 | 1016.9 |
| 20260831100432 | 25 | 360 | 4.8 | 12.9 | 0.00 | 0.00 | 0.00 | 88 | 1016.9 |
| 20260831100353 | 25 | 360 | 6.4 | 12.9 | 0.00 | 0.00 | 0.00 | 88 | 1016.9 |
| 20260831100252 | 25 | 360 | 6.4 | 12.9 | 0.00 | 0.00 | 0.00 | 88 | 1017.0 |
| 20260831100130 | 25 | 360 | 6.4 | 12.9 | 0.00 | 0.00 | 0.00 | 88 | 1016.9 |
| 20260831100050 | 25 | 360 | 6.4 | 12.9 | 0.00 | 0.00 | 0.00 | 88 | 1017.0 |
| 20260831095950 | 25 | 360 | 6.4 | 12.9 | 0.00 | 0.00 | 0.00 | 88 | 1016.9 |
| 20260831095832 | 25 | 360 | 6.4 | 12.9 | 0.00 | 0.00 | 0.00 | 88 | 1016.9 |
| 20260831095734 | 25 | 360 | 4.8 | 17.7 | 0.00 | 0.00 | 0.00 | 88 | 1016.9 |
| 20260831095635 | 25 | 161 | 3.2 | 17.7 | 0.00 | 0.00 | 0.00 | 88 | 1016.9 |
| 20260831095534 | 25 | 360 | 3.2 | 17.7 | 0.00 | 0.00 | 0.00 | 88 | 1016.9 |
| 20260831095455 | 25 | 198 | 3.2 | 17.7 | 0.00 | 0.00 | 0.00 | 88 | 1016.8 |
| 20260831095355 | 25 | 360 | 3.2 | 17.7 | 0.00 | 0.00 | 0.00 | 88 | 1016.9 |
| 20260831095235 | 25 | 360 | 4.8 | 17.7 | 0.00 | 0.00 | 0.00 | 88 | 1016.9 |
| 20260831095134 | 25 | 360 | 6.4 | 17.7 | 0.00 | 0.00 | 0.00 | 88 | 1016.9 |
| 20260831095019 | 25 | 360 | 6.4 | 17.7 | 0.00 | 0.00 | 0.00 | 88 | 1016.9 |
| 20260831094920 | 25 | 360 | 6.4 | 17.7 | 0.00 | 0.00 | 0.00 | 88 | 1016.9 |
| 20260831094821 | 25 | 360 | 6.4 | 16.1 | 0.00 | 0.00 | 0.00 | 88 | 1016.9 |
| 20260831094721 | 25 | 360 | 6.4 | 16.1 | 0.00 | 0.00 | 0.00 | 88 | 1016.9 |
| 20260831094643 | 25 | 360 | 6.4 | 16.1 | 0.00 | 0.00 | 0.00 | 88 | 1016.8 |
| 20260831094516 | 25 | 360 | 6.4 | 16.1 | 0.00 | 0.00 | 0.00 | 87 | 1016.9 |
| 20260831094437 | 25 | 360 | 4.8 | 14.5 | 0.00 | 0.00 | 0.00 | 87 | 1016.9 |
| 20260831094321 | 25 | 360 | 4.8 | 14.5 | 0.00 | 0.00 | 0.00 | 87 | 1016.9 |
| 20260831094221 | 25 | 360 | 4.8 | 14.5 | 0.00 | 0.00 | 0.00 | 87 | 1016.8 |
| 20260831094122 | 25 | 360 | 4.8 | 14.5 | 0.00 | 0.00 | 0.00 | 87 | 1016.8 |
| 20260831094023 | 25 | 360 | 4.8 | 14.5 | 0.00 | 0.00 | 0.00 | 87 | 1016.8 |
| 20260831093923 | 25 | 360 | 4.8 | 14.5 | 0.00 | 0.00 | 0.00 | 87 | 1016.8 |
| 20260831093824 | 25 | 360 | 4.8 | 14.5 | 0.00 | 0.00 | 0.00 | 87 | 1016.7 |
| 20260831093725 | 25 | 360 | 4.8 | 12.9 | 0.00 | 0.00 | 0.00 | 87 | 1016.7 |
| 20260831093629 | 25 | 360 | 4.8 | 16.1 | 0.00 | 0.00 | 0.00 | 87 | 1016.7 |
| 20260831093531 | 25 | 360 | 4.8 | 16.1 | 0.00 | 0.00 | 0.00 | 87 | 1016.7 |
| 20260831093432 | 25 | 360 | 6.4 | 16.1 | 0.00 | 0.00 | 0.00 | 87 | 1016.7 |
| 20260831093333 | 25 | 360 | 6.4 | 16.1 | 0.00 | 0.00 | 0.00 | 87 | 1016.8 |
| 20260831093235 | 25 | 360 | 4.8 | 16.1 | 0.00 | 0.00 | 0.00 | 87 | 1016.7 |
| 20260831093135 | 25 | 360 | 3.2 | 16.1 | 0.00 | 0.00 | 0.00 | 87 | 1016.8 |
| 20260831093019 | 25 | 360 | 4.8 | 16.1 | 0.00 | 0.00 | 0.00 | 87 | 1016.8 |
| 20260831092940 | 25 | 360 | 4.8 | 16.1 | 0.00 | 0.00 | 0.00 | 87 | 1016.7 |
| 20260831092840 | 25 | 360 | 4.8 | 16.1 | 0.00 | 0.00 | 0.00 | 87 | 1016.7 |
| 20260831092719 | 25 | 360 | 6.4 | 16.1 | 0.00 | 0.00 | 0.00 | 87 | 1016.7 |
| 20260831092640 | 25 | 360 | 4.8 | 19.3 | 0.00 | 0.00 | 0.00 | 87 | 1016.7 |
| 20260831092520 | 25 | 360 | 4.8 | 19.3 | 0.00 | 0.00 | 0.00 | 87 | 1016.7 |
| 20260831092420 | 25 | 360 | 4.8 | 19.3 | 0.00 | 0.00 | 0.00 | 87 | 1016.7 |
| 20260831092320 | 25 | 360 | 6.4 | 19.3 | 0.00 | 0.00 | 0.00 | 87 | 1016.7 |
| 20260831092222 | 25 | 360 | 6.4 | 19.3 | 0.00 | 0.00 | 0.00 | 87 | 1016.7 |
| 20260831092123 | 25 | 360 | 8.0 | 20.9 | 0.00 | 0.00 | 0.00 | 87 | 1016.6 |
| 20260831092043 | 25 | 360 | 8.0 | 20.9 | 0.00 | 0.00 | 0.00 | 87 | 1016.7 |
| 20260831091923 | 25 | 360 | 8.0 | 20.9 | 0.00 | 0.00 | 0.00 | 87 | 1016.7 |
| 20260831091823 | 25 | 360 | 6.4 | 20.9 | 0.00 | 0.00 | 0.00 | 87 | 1016.7 |
| 20260831091724 | 25 | 360 | 4.8 | 20.9 | 0.00 | 0.00 | 0.00 | 87 | 1016.6 |
| 20260831091624 | 25 | 360 | 3.2 | 20.9 | 0.00 | 0.00 | 0.00 | 87 | 1016.6 |
| 20260831091529 | 25 | 360 | 6.4 | 20.9 | 0.00 | 0.00 | 0.00 | 87 | 1016.6 |
| 20260831091431 | 25 | 360 | 6.4 | 20.9 | 0.00 | 0.00 | 0.00 | 87 | 1016.6 |
| 20260831091331 | 25 | 360 | 8.0 | 20.9 | 0.00 | 0.00 | 0.00 | 87 | 1016.6 |
| 20260831091231 | 25 | 360 | 9.7 | 20.9 | 0.00 | 0.00 | 0.00 | 87 | 1016.6 |
| 20260831091132 | 25 | 360 | 8.0 | 20.9 | 0.00 | 0.00 | 0.00 | 87 | 1016.7 |
| 20260831091033 | 25 | 360 | 8.0 | 20.9 | 0.00 | 0.00 | 0.00 | 87 | 1016.6 |
| 20260831090918 | 25 | 360 | 4.8 | 17.7 | 0.00 | 0.00 | 0.00 | 87 | 1016.5 |
| 20260831090818 | 25 | 360 | 4.8 | 17.7 | 0.00 | 0.00 | 0.00 | 87 | 1016.6 |
| 20260831090718 | 25 | 360 | 6.4 | 17.7 | 0.00 | 0.00 | 0.00 | 87 | 1016.6 |
| 20260831090618 | 25 | 360 | 6.4 | 17.7 | 0.00 | 0.00 | 0.00 | 87 | 1016.6 |
| 20260831090519 | 25 | 360 | 8.0 | 19.3 | 0.00 | 0.00 | 0.00 | 87 | 1016.6 |
| 20260831090439 | 25 | 360 | 6.4 | 19.3 | 0.00 | 0.00 | 0.00 | 87 | 1016.6 |
| 20260831090318 | 25 | 360 | 6.4 | 19.3 | 0.00 | 0.00 | 0.00 | 86 | 1016.6 |
| 20260831090243 | 25 | 360 | 6.4 | 19.3 | 0.00 | 0.00 | 0.00 | 86 | 1016.7 |
| 20260831090142 | 25 | 360 | 6.4 | 19.3 | 0.00 | 0.00 | 0.00 | 86 | 1016.6 |
| 20260831090022 | 25 | 360 | 6.4 | 19.3 | 0.00 | 0.00 | 0.00 | 86 | 1016.7 |
| 20260831085923 | 25 | 360 | 6.4 | 19.3 | 0.00 | 0.00 | 0.00 | 86 | 1016.7 |
| 20260831085824 | 25 | 360 | 6.4 | 19.3 | 0.00 | 0.00 | 0.00 | 86 | 1016.6 |
| 20260831085723 | 25 | 360 | 9.7 | 19.3 | 0.00 | 0.00 | 0.00 | 86 | 1016.7 |
| 20260831085624 | 25 | 360 | 9.7 | 19.3 | 0.00 | 0.00 | 0.00 | 86 | 1016.7 |
| 20260831085529 | 25 | 360 | 8.0 | 19.3 | 0.00 | 0.00 | 0.00 | 86 | 1016.7 |
| 20260831085430 | 25 | 360 | 8.0 | 19.3 | 0.00 | 0.00 | 0.00 | 86 | 1016.7 |
| 20260831085350 | 25 | 360 | 8.0 | 19.3 | 0.00 | 0.00 | 0.00 | 86 | 1016.7 |
| 20260831085229 | 25 | 360 | 8.0 | 19.3 | 0.00 | 0.00 | 0.00 | 86 | 1016.7 |
| 20260831085129 | 25 | 360 | 11.3 | 19.3 | 0.00 | 0.00 | 0.00 | 86 | 1016.7 |
| 20260831085050 | 25 | 360 | 9.7 | 20.9 | 0.00 | 0.00 | 0.00 | 86 | 1016.7 |
| 20260831084930 | 25 | 360 | 9.7 | 20.9 | 0.00 | 0.00 | 0.00 | 86 | 1016.7 |
| 20260831084831 | 25 | 360 | 8.0 | 20.9 | 0.00 | 0.00 | 0.00 | 86 | 1016.8 |
| 20260831084716 | 25 | 360 | 8.0 | 20.9 | 0.00 | 0.00 | 0.00 | 86 | 1016.8 |
| 20260831084616 | 25 | 360 | 6.4 | 20.9 | 0.00 | 0.00 | 0.00 | 86 | 1016.8 |
| 20260831084517 | 25 | 360 | 8.0 | 20.9 | 0.00 | 0.00 | 0.00 | 86 | 1016.7 |
| 20260831084418 | 25 | 360 | 8.0 | 20.9 | 0.00 | 0.00 | 0.00 | 86 | 1016.8 |
| 20260831084317 | 25 | 360 | 8.0 | 20.9 | 0.00 | 0.00 | 0.00 | 86 | 1016.8 |
| 20260831084217 | 25 | 360 | 8.0 | 19.3 | 0.00 | 0.00 | 0.00 | 86 | 1016.7 |
| 20260831084122 | 25 | 360 | 8.0 | 19.3 | 0.00 | 0.00 | 0.00 | 86 | 1016.7 |
| 20260831084023 | 25 | 360 | 8.0 | 19.3 | 0.00 | 0.00 | 0.00 | 86 | 1016.7 |
| 20260831083944 | 25 | 360 | 9.7 | 19.3 | 0.00 | 0.00 | 0.00 | 86 | 1016.8 |
| 20260831083823 | 25 | 360 | 8.0 | 19.3 | 0.00 | 0.00 | 0.00 | 85 | 1016.7 |
| 20260831083723 | 25 | 360 | 8.0 | 19.3 | 0.00 | 0.00 | 0.00 | 85 | 1016.8 |
| 20260831083623 | 25 | 360 | 8.0 | 17.7 | 0.00 | 0.00 | 0.00 | 85 | 1016.7 |
| 20260831083544 | 25 | 360 | 9.7 | 19.3 | 0.00 | 0.00 | 0.00 | 85 | 1016.7 |
| 20260831083423 | 25 | 360 | 9.7 | 19.3 | 0.00 | 0.00 | 0.00 | 85 | 1016.8 |
| 20260831083328 | 25 | 360 | 11.3 | 20.9 | 0.00 | 0.00 | 0.00 | 85 | 1016.8 |
| 20260831083229 | 25 | 360 | 9.7 | 20.9 | 0.00 | 0.00 | 0.00 | 85 | 1016.8 |
| 20260831083130 | 25 | 360 | 8.0 | 20.9 | 0.00 | 0.00 | 0.00 | 85 | 1016.9 |
| 20260831083051 | 25 | 360 | 8.0 | 20.9 | 0.00 | 0.00 | 0.00 | 85 | 1016.8 |
| 20260831082929 | 25 | 360 | 9.7 | 20.9 | 0.00 | 0.00 | 0.00 | 85 | 1016.9 |
| 20260831082832 | 25 | 360 | 11.3 | 20.9 | 0.00 | 0.00 | 0.00 | 85 | 1016.8 |
| 20260831082751 | 26 | 360 | 12.9 | 20.9 | 0.00 | 0.00 | 0.00 | 85 | 1016.9 |
| 20260831082631 | 25 | 360 | 12.9 | 20.9 | 0.00 | 0.00 | 0.00 | 85 | 1016.8 |
| 20260831082536 | 25 | 360 | 12.9 | 20.9 | 0.00 | 0.00 | 0.00 | 85 | 1016.9 |
| 20260831082456 | 26 | 360 | 11.3 | 17.7 | 0.00 | 0.00 | 0.00 | 85 | 1016.9 |
| 20260831082355 | 26 | 360 | 9.7 | 17.7 | 0.00 | 0.00 | 0.00 | 85 | 1016.9 |
| 20260831082255 | 26 | 360 | 9.7 | 17.7 | 0.00 | 0.00 | 0.00 | 85 | 1016.9 |
| 20260831082135 | 25 | 360 | 8.0 | 17.7 | 0.00 | 0.00 | 0.00 | 85 | 1016.9 |
| 20260831082036 | 26 | 360 | 6.4 | 19.3 | 0.00 | 0.00 | 0.00 | 85 | 1016.9 |
| 20260831081935 | 25 | 360 | 6.4 | 19.3 | 0.00 | 0.00 | 0.00 | 85 | 1017.0 |
| 20260831081835 | 25 | 360 | 6.4 | 19.3 | 0.00 | 0.00 | 0.00 | 84 | 1016.9 |
| 20260831081720 | 25 | 360 | 8.0 | 19.3 | 0.00 | 0.00 | 0.00 | 84 | 1017.0 |
| 20260831081620 | 25 | 360 | 8.0 | 19.3 | 0.00 | 0.00 | 0.00 | 84 | 1016.9 |
| 20260831081542 | 25 | 360 | 6.4 | 19.3 | 0.00 | 0.00 | 0.00 | 84 | 1017.1 |
| 20260831081416 | 25 | 360 | 6.4 | 19.3 | 0.00 | 0.00 | 0.00 | 84 | 1016.9 |
| 20260831081317 | 25 | 360 | 6.4 | 19.3 | 0.00 | 0.00 | 0.00 | 84 | 1017.0 |
| 20260831081238 | 25 | 360 | 6.4 | 19.3 | 0.00 | 0.00 | 0.00 | 84 | 1016.9 |
| 20260831081117 | 25 | 360 | 6.4 | 19.3 | 0.00 | 0.00 | 0.00 | 84 | 1016.9 |
| 20260831081021 | 25 | 360 | 6.4 | 16.1 | 0.00 | 0.00 | 0.00 | 84 | 1016.8 |
| 20260831080922 | 25 | 360 | 8.0 | 16.1 | 0.00 | 0.00 | 0.00 | 84 | 1016.9 |
| 20260831080822 | 25 | 360 | 8.0 | 16.1 | 0.00 | 0.00 | 0.00 | 84 | 1016.9 |
| 20260831080723 | 25 | 360 | 8.0 | 14.5 | 0.00 | 0.00 | 0.00 | 84 | 1016.9 |
| 20260831080623 | 25 | 360 | 6.4 | 14.5 | 0.00 | 0.00 | 0.00 | 84 | 1016.9 |
| 20260831080523 | 25 | 360 | 6.4 | 14.5 | 0.00 | 0.00 | 0.00 | 84 | 1016.9 |
| 20260831080428 | 25 | 360 | 6.4 | 14.5 | 0.00 | 0.00 | 0.00 | 84 | 1016.8 |
| 20260831080348 | 25 | 360 | 6.4 | 14.5 | 0.00 | 0.00 | 0.00 | 84 | 1016.9 |
| 20260831080227 | 25 | 180 | 8.0 | 16.1 | 0.00 | 0.00 | 0.00 | 84 | 1016.9 |
| 20260831080128 | 25 | 360 | 8.0 | 16.1 | 0.00 | 0.00 | 0.00 | 84 | 1016.9 |
| 20260831080029 | 25 | 360 | 8.0 | 16.1 | 0.00 | 0.00 | 0.00 | 84 | 1016.8 |
| 20260831075927 | 25 | 360 | 8.0 | 16.1 | 0.00 | 0.00 | 0.00 | 84 | 1016.8 |
| 20260831075829 | 26 | 360 | 6.4 | 16.1 | 0.00 | 0.00 | 0.00 | 84 | 1016.9 |
| 20260831075728 | 26 | 360 | 6.4 | 16.1 | 0.00 | 0.00 | 0.00 | 84 | 1016.9 |
| 20260831075632 | 26 | 360 | 8.0 | 16.1 | 0.00 | 0.00 | 0.00 | 83 | 1016.8 |
| 20260831075552 | 26 | 360 | 6.4 | 16.1 | 0.00 | 0.00 | 0.00 | 83 | 1016.8 |
| 20260831075430 | 26 | 360 | 6.4 | 16.1 | 0.00 | 0.00 | 0.00 | 83 | 1016.8 |
| 20260831075328 | 26 | 360 | 8.0 | 16.1 | 0.00 | 0.00 | 0.00 | 83 | 1016.8 |
| 20260831075229 | 26 | 360 | 4.8 | 16.1 | 0.00 | 0.00 | 0.00 | 83 | 1016.8 |
| 20260831075130 | 26 | 183 | 4.8 | 16.1 | 0.00 | 0.00 | 0.00 | 83 | 1016.8 |
| 20260831075030 | 26 | 360 | 4.8 | 16.1 | 0.00 | 0.00 | 0.00 | 83 | 1016.9 |
| 20260831074932 | 26 | 360 | 4.8 | 16.1 | 0.00 | 0.00 | 0.00 | 83 | 1016.9 |
| 20260831074837 | 26 | 188 | 6.4 | 17.7 | 0.00 | 0.00 | 0.00 | 83 | 1016.9 |
| 20260831074735 | 26 | 360 | 8.0 | 17.7 | 0.00 | 0.00 | 0.00 | 83 | 1016.8 |
| 20260831074633 | 26 | 360 | 8.0 | 17.7 | 0.00 | 0.00 | 0.00 | 83 | 1016.9 |
| 20260831074533 | 26 | 360 | 9.7 | 17.7 | 0.00 | 0.00 | 0.00 | 83 | 1016.8 |
| 20260831074433 | 26 | 360 | 8.0 | 17.7 | 0.00 | 0.00 | 0.00 | 83 | 1016.9 |
| 20260831074335 | 26 | 360 | 8.0 | 17.7 | 0.00 | 0.00 | 0.00 | 83 | 1016.9 |
| 20260831074234 | 26 | 360 | 8.0 | 17.7 | 0.00 | 0.00 | 0.00 | 83 | 1016.8 |
| 20260831074120 | 26 | 360 | 9.7 | 17.7 | 0.00 | 0.00 | 0.00 | 82 | 1016.8 |
| 20260831074021 | 26 | 360 | 9.7 | 17.7 | 0.00 | 0.00 | 0.00 | 82 | 1016.7 |
| 20260831073943 | 26 | 360 | 9.7 | 17.7 | 0.00 | 0.00 | 0.00 | 82 | 1016.8 |
| 20260831073822 | 26 | 360 | 11.3 | 17.7 | 0.00 | 0.00 | 0.00 | 82 | 1016.8 |
| 20260831073723 | 26 | 360 | 8.0 | 16.1 | 0.00 | 0.00 | 0.00 | 82 | 1016.9 |
| 20260831073644 | 26 | 360 | 8.0 | 16.1 | 0.00 | 0.00 | 0.00 | 82 | 1016.8 |
| 20260831073523 | 26 | 360 | 9.7 | 16.1 | 0.00 | 0.00 | 0.00 | 82 | 1016.8 |
| 20260831073424 | 26 | 360 | 9.7 | 16.1 | 0.00 | 0.00 | 0.00 | 82 | 1016.9 |
| 20260831073329 | 26 | 360 | 9.7 | 16.1 | 0.00 | 0.00 | 0.00 | 82 | 1016.9 |
| 20260831073250 | 26 | 360 | 8.0 | 16.1 | 0.00 | 0.00 | 0.00 | 82 | 1016.9 |
| 20260831073130 | 26 | 360 | 6.4 | 16.1 | 0.00 | 0.00 | 0.00 | 82 | 1017.0 |
| 20260831073030 | 26 | 360 | 6.4 | 16.1 | 0.00 | 0.00 | 0.00 | 82 | 1016.9 |
| 20260831072951 | 26 | 360 | 6.4 | 16.1 | 0.00 | 0.00 | 0.00 | 82 | 1016.9 |
| 20260831072832 | 26 | 360 | 6.4 | 16.1 | 0.00 | 0.00 | 0.00 | 82 | 1016.9 |
| 20260831072752 | 26 | 360 | 8.0 | 16.1 | 0.00 | 0.00 | 0.00 | 81 | 1016.9 |
| 20260831072616 | 26 | 360 | 6.4 | 14.5 | 0.00 | 0.00 | 0.00 | 81 | 1016.9 |
| 20260831072517 | 26 | 360 | 6.4 | 14.5 | 0.00 | 0.00 | 0.00 | 81 | 1016.9 |
| 20260831072419 | 26 | 360 | 6.4 | 14.5 | 0.00 | 0.00 | 0.00 | 82 | 1016.9 |
| 20260831072319 | 26 | 360 | 4.8 | 14.5 | 0.00 | 0.00 | 0.00 | 82 | 1016.9 |
| 20260831072240 | 26 | 360 | 6.4 | 14.5 | 0.00 | 0.00 | 0.00 | 82 | 1016.9 |
| 20260831072140 | 26 | 360 | 6.4 | 12.9 | 0.00 | 0.00 | 0.00 | 81 | 1016.9 |
| 20260831072020 | 26 | 360 | 6.4 | 9.7 | 0.00 | 0.00 | 0.00 | 81 | 1016.9 |
| 20260831071940 | 26 | 360 | 6.4 | 16.1 | 0.00 | 0.00 | 0.00 | 81 | 1016.9 |
| 20260831071824 | 26 | 360 | 6.4 | 16.1 | 0.00 | 0.00 | 0.00 | 81 | 1017.0 |
| 20260831071723 | 26 | 360 | 6.4 | 16.1 | 0.00 | 0.00 | 0.00 | 81 | 1016.9 |
| 20260831071624 | 26 | 360 | 4.8 | 16.1 | 0.00 | 0.00 | 0.00 | 81 | 1016.9 |
| 20260831071525 | 26 | 360 | 4.8 | 16.1 | 0.00 | 0.00 | 0.00 | 81 | 1016.9 |
| 20260831071427 | 26 | 360 | 4.8 | 16.1 | 0.00 | 0.00 | 0.00 | 81 | 1016.9 |
| 20260831071348 | 26 | 360 | 3.2 | 20.9 | 0.00 | 0.00 | 0.00 | 81 | 1016.8 |
| 20260831071308 | 26 | 360 | 4.8 | 20.9 | 0.00 | 0.00 | 0.00 | 80 | 1016.8 |
| 20260831071022 | 26 | 360 | 8.0 | 20.9 | 0.00 | 0.00 | 0.00 | 80 | 1016.8 |
| 20260831070924 | 26 | 360 | 8.0 | 20.9 | 0.00 | 0.00 | 0.00 | 80 | 1016.8 |
| 20260831070826 | 26 | 360 | 9.7 | 20.9 | 0.00 | 0.00 | 0.00 | 80 | 1016.8 |
| 20260831070747 | 26 | 360 | 9.7 | 20.9 | 0.00 | 0.00 | 0.00 | 80 | 1016.8 |
| 20260831070627 | 26 | 360 | 9.7 | 20.9 | 0.00 | 0.00 | 0.00 | 80 | 1016.8 |
| 20260831070527 | 26 | 360 | 9.7 | 20.9 | 0.00 | 0.00 | 0.00 | 80 | 1016.9 |
| 20260831070428 | 26 | 360 | 9.7 | 20.9 | 0.00 | 0.00 | 0.00 | 80 | 1016.9 |
| 20260831070333 | 26 | 360 | 8.0 | 20.9 | 0.00 | 0.00 | 0.00 | 80 | 1016.9 |
| 20260831070234 | 26 | 360 | 8.0 | 20.9 | 0.00 | 0.00 | 0.00 | 80 | 1016.9 |
| 20260831070133 | 26 | 360 | 9.7 | 20.9 | 0.00 | 0.00 | 0.00 | 80 | 1016.9 |
| 20260831070034 | 26 | 185 | 9.7 | 20.9 | 0.00 | 0.00 | 0.00 | 80 | 1016.9 |
| 20260831065935 | 26 | 360 | 11.3 | 20.9 | 0.00 | 0.00 | 0.00 | 80 | 1016.9 |
| 20260831065817 | 26 | 360 | 9.7 | 17.7 | 0.00 | 0.00 | 0.00 | 79 | 1017.0 |
| 20260831065717 | 26 | 360 | 9.7 | 17.7 | 0.00 | 0.00 | 0.00 | 79 | 1017.0 |
| 20260831065642 | 26 | 360 | 9.7 | 17.7 | 0.00 | 0.00 | 0.00 | 79 | 1016.9 |
| 20260831065516 | 26 | 360 | 9.7 | 27.4 | 0.00 | 0.00 | 0.00 | 79 | 1016.9 |
| 20260831065416 | 26 | 360 | 9.7 | 27.4 | 0.00 | 0.00 | 0.00 | 79 | 1016.9 |
| 20260831065317 | 26 | 360 | 8.0 | 27.4 | 0.00 | 0.00 | 0.00 | 79 | 1017.0 |
| 20260831065218 | 26 | 360 | 6.4 | 27.4 | 0.00 | 0.00 | 0.00 | 79 | 1016.9 |
| 20260831065118 | 26 | 360 | 6.4 | 27.4 | 0.00 | 0.00 | 0.00 | 79 | 1017.0 |
| 20260831065040 | 26 | 360 | 6.4 | 27.4 | 0.00 | 0.00 | 0.00 | 79 | 1016.9 |
| 20260831064923 | 26 | 360 | 9.7 | 27.4 | 0.00 | 0.00 | 0.00 | 79 | 1016.9 |
| 20260831064824 | 26 | 360 | 9.7 | 27.4 | 0.00 | 0.00 | 0.00 | 79 | 1016.9 |
| 20260831064725 | 26 | 360 | 11.3 | 27.4 | 0.00 | 0.00 | 0.00 | 79 | 1016.9 |
| 20260831064645 | 26 | 360 | 9.7 | 24.1 | 0.00 | 0.00 | 0.00 | 78 | 1017.0 |
| 20260831064525 | 26 | 360 | 9.7 | 24.1 | 0.00 | 0.00 | 0.00 | 78 | 1016.9 |
| 20260831064447 | 26 | 360 | 8.0 | 24.1 | 0.00 | 0.00 | 0.00 | 78 | 1016.9 |
| 20260831064325 | 26 | 360 | 8.0 | 24.1 | 0.00 | 0.00 | 0.00 | 78 | 1017.0 |
| 20260831064230 | 27 | 360 | 8.0 | 24.1 | 0.00 | 0.00 | 0.00 | 78 | 1016.9 |
| 20260831064131 | 27 | 360 | 11.3 | 24.1 | 0.00 | 0.00 | 0.00 | 78 | 1016.9 |
| 20260831064031 | 27 | 360 | 12.9 | 24.1 | 0.00 | 0.00 | 0.00 | 78 | 1016.9 |
| 20260831063931 | 27 | 360 | 14.5 | 24.1 | 0.00 | 0.00 | 0.00 | 78 | 1016.9 |
| 20260831063852 | 27 | 360 | 14.5 | 25.7 | 0.00 | 0.00 | 0.00 | 78 | 1016.9 |
| 20260831063753 | 27 | 360 | 12.9 | 25.7 | 0.00 | 0.00 | 0.00 | 78 | 1017.0 |
| 20260831063633 | 27 | 360 | 11.3 | 25.7 | 0.00 | 0.00 | 0.00 | 78 | 1017.0 |
| 20260831063533 | 27 | 360 | 12.9 | 25.7 | 0.00 | 0.00 | 0.00 | 78 | 1017.0 |
| 20260831063453 | 27 | 360 | 14.5 | 25.7 | 0.00 | 0.00 | 0.00 | 77 | 1017.0 |
| 20260831063333 | 27 | 360 | 17.7 | 25.7 | 0.00 | 0.00 | 0.00 | 77 | 1017.0 |
| 20260831063232 | 27 | 360 | 16.1 | 25.7 | 0.00 | 0.00 | 0.00 | 77 | 1017.0 |
| 20260831063153 | 27 | 360 | 12.9 | 25.7 | 0.00 | 0.00 | 0.00 | 77 | 1017.0 |
| 20260831063032 | 27 | 360 | 9.7 | 25.7 | 0.00 | 0.00 | 0.00 | 77 | 1017.1 |
| 20260831062933 | 27 | 360 | 11.3 | 24.1 | 0.00 | 0.00 | 0.00 | 77 | 1017.1 |
| 20260831062834 | 27 | 360 | 11.3 | 24.1 | 0.00 | 0.00 | 0.00 | 77 | 1017.0 |
| 20260831062717 | 27 | 360 | 12.9 | 24.1 | 0.00 | 0.00 | 0.00 | 77 | 1017.1 |
| 20260831062618 | 27 | 360 | 12.9 | 22.5 | 0.00 | 0.00 | 0.00 | 77 | 1017.0 |
| 20260831062538 | 27 | 360 | 12.9 | 22.5 | 0.00 | 0.00 | 0.00 | 77 | 1017.1 |
| 20260831062438 | 27 | 360 | 12.9 | 22.5 | 0.00 | 0.00 | 0.00 | 77 | 1017.0 |
| 20260831062338 | 27 | 360 | 11.3 | 20.9 | 0.00 | 0.00 | 0.00 | 76 | 1017.1 |
| 20260831062216 | 27 | 360 | 9.7 | 30.6 | 0.00 | 0.00 | 0.00 | 76 | 1017.0 |
| 20260831062117 | 27 | 360 | 8.0 | 30.6 | 0.00 | 0.00 | 0.00 | 76 | 1017.0 |
| 20260831062016 | 27 | 360 | 8.0 | 30.6 | 0.00 | 0.00 | 0.00 | 76 | 1016.9 |
| 20260831061937 | 27 | 360 | 8.0 | 30.6 | 0.00 | 0.00 | 0.00 | 76 | 1017.0 |
| 20260831061820 | 27 | 360 | 8.0 | 30.6 | 0.00 | 0.00 | 0.00 | 76 | 1016.9 |
| 20260831061721 | 27 | 360 | 9.7 | 30.6 | 0.00 | 0.00 | 0.00 | 76 | 1016.9 |
| 20260831061620 | 27 | 360 | 11.3 | 30.6 | 0.00 | 0.00 | 0.00 | 76 | 1017.0 |
| 20260831061521 | 27 | 360 | 14.5 | 30.6 | 0.00 | 0.00 | 0.00 | 76 | 1016.9 |
| 20260831061422 | 27 | 360 | 12.9 | 30.6 | 0.00 | 0.00 | 0.00 | 76 | 1016.8 |
| 20260831061343 | 27 | 360 | 11.3 | 30.6 | 0.00 | 0.00 | 0.00 | 76 | 1016.8 |
| 20260831061221 | 27 | 360 | 6.4 | 20.9 | 0.00 | 0.00 | 0.00 | 76 | 1016.9 |
| 20260831061125 | 27 | 360 | 6.4 | 22.5 | 0.00 | 0.00 | 0.00 | 75 | 1016.9 |
| 20260831061025 | 27 | 360 | 8.0 | 22.5 | 0.00 | 0.00 | 0.00 | 75 | 1016.8 |
| 20260831060926 | 27 | 360 | 9.7 | 22.5 | 0.00 | 0.00 | 0.00 | 75 | 1016.8 |
| 20260831060846 | 27 | 360 | 9.7 | 22.5 | 0.00 | 0.00 | 0.00 | 76 | 1016.8 |
| 20260831060726 | 27 | 360 | 11.3 | 22.5 | 0.00 | 0.00 | 0.00 | 75 | 1016.8 |
| 20260831060626 | 27 | 360 | 11.3 | 22.5 | 0.00 | 0.00 | 0.00 | 75 | 1016.8 |
| 20260831060527 | 27 | 360 | 11.3 | 22.5 | 0.00 | 0.00 | 0.00 | 75 | 1016.7 |
| 20260831060430 | 27 | 360 | 11.3 | 22.5 | 0.00 | 0.00 | 0.00 | 75 | 1016.8 |
| 20260831060331 | 27 | 360 | 11.3 | 22.5 | 0.00 | 0.00 | 0.00 | 75 | 1016.8 |
| 20260831060230 | 27 | 360 | 9.7 | 20.9 | 0.00 | 0.00 | 0.00 | 76 | 1016.8 |
| 20260831060151 | 27 | 360 | 8.0 | 20.9 | 0.00 | 0.00 | 0.00 | 76 | 1016.8 |
| 20260831060030 | 27 | 360 | 6.4 | 20.9 | 0.00 | 0.00 | 0.00 | 76 | 1016.8 |
| 20260831055931 | 27 | 360 | 8.0 | 22.5 | 0.00 | 0.00 | 0.00 | 76 | 1016.8 |
| 20260831055832 | 27 | 360 | 8.0 | 22.5 | 0.00 | 0.00 | 0.00 | 76 | 1016.8 |
| 20260831055732 | 27 | 360 | 8.0 | 22.5 | 0.00 | 0.00 | 0.00 | 75 | 1016.8 |
| 20260831055634 | 27 | 360 | 9.7 | 22.5 | 0.00 | 0.00 | 0.00 | 75 | 1016.8 |
| 20260831055555 | 27 | 360 | 9.7 | 22.5 | 0.00 | 0.00 | 0.00 | 75 | 1016.8 |
| 20260831055435 | 27 | 360 | 12.9 | 22.5 | 0.00 | 0.00 | 0.00 | 75 | 1016.8 |
| 20260831055356 | 27 | 360 | 12.9 | 22.5 | 0.00 | 0.00 | 0.00 | 75 | 1016.8 |
| 20260831055235 | 27 | 360 | 14.5 | 22.5 | 0.00 | 0.00 | 0.00 | 75 | 1016.7 |
| 20260831055116 | 27 | 360 | 12.9 | 20.9 | 0.00 | 0.00 | 0.00 | 75 | 1016.7 |
| 20260831055016 | 27 | 360 | 14.5 | 20.9 | 0.00 | 0.00 | 0.00 | 75 | 1016.7 |
| 20260831054921 | 27 | 360 | 14.5 | 20.9 | 0.00 | 0.00 | 0.00 | 75 | 1016.7 |
| 20260831054822 | 27 | 360 | 12.9 | 22.5 | 0.00 | 0.00 | 0.00 | 75 | 1016.7 |
| 20260831054722 | 27 | 360 | 11.3 | 20.9 | 0.00 | 0.00 | 0.00 | 75 | 1016.7 |
| 20260831054623 | 27 | 360 | 9.7 | 27.4 | 0.00 | 0.00 | 0.00 | 75 | 1016.6 |
| 20260831054522 | 27 | 360 | 8.0 | 29.0 | 0.00 | 0.00 | 0.00 | 75 | 1016.7 |
| 20260831054423 | 27 | 360 | 6.4 | 29.0 | 0.00 | 0.00 | 0.00 | 75 | 1016.6 |
| 20260831054325 | 27 | 360 | 8.0 | 29.0 | 0.00 | 0.00 | 0.00 | 75 | 1016.6 |
| 20260831054230 | 27 | 360 | 9.7 | 29.0 | 0.00 | 0.00 | 0.00 | 75 | 1016.6 |
| 20260831054130 | 27 | 360 | 11.3 | 29.0 | 0.00 | 0.00 | 0.00 | 75 | 1016.6 |
| 20260831054050 | 28 | 360 | 12.9 | 29.0 | 0.00 | 0.00 | 0.00 | 75 | 1016.5 |
| 20260831053930 | 28 | 360 | 12.9 | 30.6 | 0.00 | 0.00 | 0.00 | 75 | 1016.6 |
| 20260831053831 | 28 | 360 | 14.5 | 30.6 | 0.00 | 0.00 | 0.00 | 75 | 1016.6 |
| 20260831053732 | 28 | 360 | 14.5 | 30.6 | 0.00 | 0.00 | 0.00 | 75 | 1016.6 |
| 20260831053632 | 28 | 360 | 14.5 | 30.6 | 0.00 | 0.00 | 0.00 | 74 | 1016.6 |
| 20260831053536 | 28 | 360 | 14.5 | 30.6 | 0.00 | 0.00 | 0.00 | 74 | 1016.6 |
| 20260831053456 | 28 | 360 | 14.5 | 30.6 | 0.00 | 0.00 | 0.00 | 74 | 1016.6 |
| 20260831053317 | 28 | 360 | 16.1 | 30.6 | 0.00 | 0.00 | 0.00 | 74 | 1016.5 |
| 20260831053218 | 28 | 360 | 17.7 | 30.6 | 0.00 | 0.00 | 0.00 | 74 | 1016.6 |
| 20260831053119 | 28 | 360 | 16.1 | 30.6 | 0.00 | 0.00 | 0.00 | 74 | 1016.6 |
| 20260831053019 | 28 | 360 | 14.5 | 30.6 | 0.00 | 0.00 | 0.00 | 74 | 1016.6 |
| 20260831052939 | 28 | 360 | 12.9 | 30.6 | 0.00 | 0.00 | 0.00 | 74 | 1016.5 |
| 20260831052843 | 28 | 360 | 11.3 | 22.5 | 0.00 | 0.00 | 0.00 | 74 | 1016.6 |
| 20260831052716 | 28 | 360 | 11.3 | 22.5 | 0.00 | 0.00 | 0.00 | 74 | 1016.5 |
| 20260831052616 | 28 | 360 | 9.7 | 20.9 | 0.00 | 0.00 | 0.00 | 74 | 1016.5 |
| 20260831052517 | 28 | 360 | 11.3 | 20.9 | 0.00 | 0.00 | 0.00 | 74 | 1016.5 |
| 20260831052417 | 28 | 360 | 9.7 | 20.9 | 0.00 | 0.00 | 0.00 | 74 | 1016.5 |
| 20260831052337 | 28 | 360 | 8.0 | 20.9 | 0.00 | 0.00 | 0.00 | 74 | 1016.5 |
| 20260831052237 | 28 | 360 | 8.0 | 22.5 | 0.00 | 0.00 | 0.00 | 74 | 1016.5 |
| 20260831052117 | 28 | 360 | 8.0 | 22.5 | 0.00 | 0.00 | 0.00 | 74 | 1016.5 |
| 20260831052020 | 28 | 360 | 9.7 | 22.5 | 0.00 | 0.00 | 0.00 | 74 | 1016.5 |
| 20260831051921 | 28 | 360 | 9.7 | 32.2 | 0.00 | 0.00 | 0.00 | 74 | 1016.5 |
| 20260831051822 | 28 | 360 | 9.7 | 32.2 | 0.00 | 0.00 | 0.00 | 74 | 1016.4 |
| 20260831051722 | 28 | 360 | 6.4 | 32.2 | 0.00 | 0.00 | 0.00 | 74 | 1016.4 |
| 20260831051623 | 28 | 360 | 8.0 | 32.2 | 0.00 | 0.00 | 0.00 | 74 | 1016.4 |
| 20260831051523 | 28 | 360 | 11.3 | 32.2 | 0.00 | 0.00 | 0.00 | 73 | 1016.4 |
| 20260831051424 | 28 | 360 | 12.9 | 32.2 | 0.00 | 0.00 | 0.00 | 73 | 1016.4 |
| 20260831051329 | 28 | 360 | 14.5 | 32.2 | 0.00 | 0.00 | 0.00 | 73 | 1016.3 |
| 20260831051230 | 28 | 360 | 16.1 | 32.2 | 0.00 | 0.00 | 0.00 | 73 | 1016.4 |
| 20260831051130 | 28 | 360 | 17.7 | 32.2 | 0.00 | 0.00 | 0.00 | 73 | 1016.4 |
| 20260831051030 | 28 | 360 | 17.7 | 29.0 | 0.00 | 0.00 | 0.00 | 73 | 1016.4 |
| 20260831050931 | 28 | 360 | 19.3 | 29.0 | 0.00 | 0.00 | 0.00 | 73 | 1016.4 |
| 20260831050832 | 28 | 360 | 17.7 | 25.7 | 0.00 | 0.00 | 0.00 | 73 | 1016.4 |
| 20260831050731 | 28 | 360 | 16.1 | 25.7 | 0.00 | 0.00 | 0.00 | 73 | 1016.4 |
| 20260831050636 | 28 | 360 | 16.1 | 25.7 | 0.00 | 0.00 | 0.00 | 73 | 1016.5 |
| 20260831050556 | 28 | 360 | 14.5 | 25.7 | 0.00 | 0.00 | 0.00 | 73 | 1016.4 |
| 20260831050435 | 28 | 360 | 14.5 | 25.7 | 0.00 | 0.00 | 0.00 | 73 | 1016.5 |
| 20260831050316 | 28 | 360 | 11.3 | 25.7 | 0.00 | 0.00 | 0.00 | 73 | 1016.5 |
| 20260831050216 | 28 | 360 | 11.3 | 25.7 | 0.00 | 0.00 | 0.00 | 73 | 1016.5 |
| 20260831050136 | 28 | 360 | 11.3 | 35.4 | 0.00 | 0.00 | 0.00 | 73 | 1016.5 |
| 20260831050057 | 28 | 360 | 12.9 | 35.4 | 0.00 | 0.00 | 0.00 | 73 | 1016.5 |
| 20260831045934 | 28 | 360 | 12.9 | 35.4 | 0.00 | 0.00 | 0.00 | 72 | 1016.5 |
| 20260831045836 | 28 | 360 | 14.5 | 35.4 | 0.00 | 0.00 | 0.00 | 72 | 1016.4 |
| 20260831045736 | 28 | 360 | 14.5 | 35.4 | 0.00 | 0.00 | 0.00 | 72 | 1016.4 |
| 20260831045616 | 28 | 360 | 14.5 | 35.4 | 0.00 | 0.00 | 0.00 | 72 | 1016.4 |
| 20260831045517 | 28 | 360 | 16.1 | 35.4 | 0.00 | 0.00 | 0.00 | 72 | 1016.4 |
| 20260831045419 | 28 | 360 | 16.1 | 35.4 | 0.00 | 0.00 | 0.00 | 72 | 1016.4 |
| 20260831045323 | 28 | 360 | 19.3 | 35.4 | 0.00 | 0.00 | 0.00 | 72 | 1016.4 |
| 20260831045224 | 28 | 360 | 17.7 | 32.2 | 0.00 | 0.00 | 0.00 | 72 | 1016.3 |
| 20260831045125 | 28 | 360 | 19.3 | 32.2 | 0.00 | 0.00 | 0.00 | 72 | 1016.4 |
| 20260831045025 | 28 | 360 | 17.7 | 32.2 | 0.00 | 0.00 | 0.00 | 72 | 1016.4 |
| 20260831044926 | 28 | 360 | 16.1 | 29.0 | 0.00 | 0.00 | 0.00 | 72 | 1016.4 |
| 20260831044847 | 28 | 360 | 14.5 | 29.0 | 0.00 | 0.00 | 0.00 | 72 | 1016.4 |
| 20260831044726 | 28 | 360 | 9.7 | 35.4 | 0.00 | 0.00 | 0.00 | 72 | 1016.3 |
| 20260831044632 | 28 | 360 | 11.3 | 35.4 | 0.00 | 0.00 | 0.00 | 71 | 1016.4 |
| 20260831044532 | 28 | 360 | 9.7 | 35.4 | 0.00 | 0.00 | 0.00 | 71 | 1016.4 |
| 20260831044433 | 28 | 360 | 12.9 | 35.4 | 0.00 | 0.00 | 0.00 | 71 | 1016.4 |
| 20260831044334 | 28 | 360 | 14.5 | 35.4 | 0.00 | 0.00 | 0.00 | 71 | 1016.5 |
| 20260831044235 | 28 | 360 | 17.7 | 35.4 | 0.00 | 0.00 | 0.00 | 71 | 1016.4 |
| 20260831044135 | 29 | 360 | 17.7 | 35.4 | 0.00 | 0.00 | 0.00 | 71 | 1016.4 |
| 20260831044035 | 29 | 360 | 17.7 | 35.4 | 0.00 | 0.00 | 0.00 | 70 | 1016.5 |
| 20260831043919 | 29 | 360 | 14.5 | 33.8 | 0.00 | 0.00 | 0.00 | 70 | 1016.4 |
| 20260831043821 | 29 | 360 | 11.3 | 22.5 | 0.00 | 0.00 | 0.00 | 70 | 1016.4 |
| 20260831043722 | 29 | 360 | 11.3 | 24.1 | 0.00 | 0.00 | 0.00 | 70 | 1016.4 |
| 20260831043622 | 29 | 360 | 11.3 | 24.1 | 0.00 | 0.00 | 0.00 | 70 | 1016.5 |
| 20260831043523 | 29 | 360 | 11.3 | 24.1 | 0.00 | 0.00 | 0.00 | 69 | 1016.5 |
| 20260831043443 | 29 | 360 | 9.7 | 24.1 | 0.00 | 0.00 | 0.00 | 69 | 1016.5 |
| 20260831043323 | 29 | 360 | 11.3 | 24.1 | 0.00 | 0.00 | 0.00 | 69 | 1016.5 |
| 20260831043228 | 29 | 360 | 9.7 | 24.1 | 0.00 | 0.00 | 0.00 | 69 | 1016.5 |
| 20260831043129 | 29 | 360 | 11.3 | 22.5 | 0.00 | 0.00 | 0.00 | 69 | 1016.5 |
| 20260831043029 | 29 | 360 | 11.3 | 22.5 | 0.00 | 0.00 | 0.00 | 69 | 1016.5 |
| 20260831042930 | 29 | 360 | 11.3 | 22.5 | 0.00 | 0.00 | 0.00 | 69 | 1016.5 |
| 20260831042852 | 29 | 360 | 12.9 | 22.5 | 0.00 | 0.00 | 0.00 | 69 | 1016.4 |
| 20260831042730 | 29 | 360 | 12.9 | 22.5 | 0.00 | 0.00 | 0.00 | 69 | 1016.4 |
| 20260831042631 | 29 | 360 | 11.3 | 22.5 | 0.00 | 0.00 | 0.00 | 68 | 1016.4 |
| 20260831042515 | 29 | 360 | 9.7 | 22.5 | 0.00 | 0.00 | 0.00 | 68 | 1016.4 |
| 20260831042416 | 29 | 360 | 11.3 | 22.5 | 0.00 | 0.00 | 0.00 | 68 | 1016.4 |
| 20260831042337 | 29 | 360 | 11.3 | 22.5 | 0.00 | 0.00 | 0.00 | 68 | 1016.4 |
| 20260831042217 | 29 | 360 | 12.9 | 22.5 | 0.00 | 0.00 | 0.00 | 68 | 1016.4 |
| 20260831042118 | 29 | 360 | 12.9 | 22.5 | 0.00 | 0.00 | 0.00 | 68 | 1016.4 |
| 20260831042018 | 29 | 360 | 12.9 | 22.5 | 0.00 | 0.00 | 0.00 | 68 | 1016.4 |
| 20260831041918 | 29 | 360 | 14.5 | 22.5 | 0.00 | 0.00 | 0.00 | 68 | 1016.4 |
| 20260831041842 | 29 | 360 | 14.5 | 22.5 | 0.00 | 0.00 | 0.00 | 68 | 1016.3 |
| 20260831041741 | 29 | 360 | 14.5 | 22.5 | 0.00 | 0.00 | 0.00 | 68 | 1016.5 |
| 20260831041620 | 29 | 360 | 14.5 | 22.5 | 0.00 | 0.00 | 0.00 | 68 | 1016.4 |
| 20260831041521 | 29 | 360 | 12.9 | 22.5 | 0.00 | 0.00 | 0.00 | 68 | 1016.5 |
| 20260831041442 | 29 | 360 | 12.9 | 22.5 | 0.00 | 0.00 | 0.00 | 68 | 1016.5 |
| 20260831041403 | 29 | 360 | 14.5 | 22.5 | 0.00 | 0.00 | 0.00 | 68 | 1016.5 |
| 20260831041303 | 29 | 360 | 14.5 | 22.5 | 0.00 | 0.00 | 0.00 | 68 | 1016.4 |
| 20260831041203 | 29 | 360 | 14.5 | 22.5 | 0.00 | 0.00 | 0.00 | 68 | 1016.4 |
| 20260831041021 | 29 | 360 | 14.5 | 22.5 | 0.00 | 0.00 | 0.00 | 67 | 1016.4 |
| 20260831040926 | 29 | 360 | 14.5 | 22.5 | 0.00 | 0.00 | 0.00 | 67 | 1016.5 |
| 20260831040826 | 29 | 360 | 12.9 | 22.5 | 0.00 | 0.00 | 0.00 | 67 | 1016.4 |
| 20260831040747 | 30 | 360 | 11.3 | 22.5 | 0.00 | 0.00 | 0.00 | 67 | 1016.5 |
| 20260831040627 | 30 | 360 | 9.7 | 22.5 | 0.00 | 0.00 | 0.00 | 67 | 1016.5 |
| 20260831040528 | 30 | 360 | 9.7 | 29.0 | 0.00 | 0.00 | 0.00 | 67 | 1016.5 |
| 20260831040428 | 30 | 360 | 9.7 | 29.0 | 0.00 | 0.00 | 0.00 | 67 | 1016.5 |
| 20260831040328 | 30 | 360 | 9.7 | 29.0 | 0.00 | 0.00 | 0.00 | 67 | 1016.4 |
| 20260831040228 | 30 | 360 | 9.7 | 29.0 | 0.00 | 0.00 | 0.00 | 66 | 1016.4 |
| 20260831040133 | 30 | 360 | 11.3 | 29.0 | 0.00 | 0.00 | 0.00 | 66 | 1016.4 |
| 20260831040034 | 30 | 360 | 12.9 | 29.0 | 0.00 | 0.00 | 0.00 | 66 | 1016.4 |
| 20260831035935 | 30 | 360 | 17.7 | 29.0 | 0.00 | 0.00 | 0.00 | 66 | 1016.4 |
| 20260831035837 | 30 | 360 | 17.7 | 29.0 | 0.00 | 0.00 | 0.00 | 66 | 1016.4 |
| 20260831035756 | 30 | 360 | 19.3 | 29.0 | 0.00 | 0.00 | 0.00 | 66 | 1016.4 |
| 20260831035635 | 30 | 360 | 17.7 | 29.0 | 0.00 | 0.00 | 0.00 | 66 | 1016.4 |
| 20260831035535 | 30 | 360 | 16.1 | 29.0 | 0.00 | 0.00 | 0.00 | 66 | 1016.4 |
| 20260831035419 | 30 | 360 | 16.1 | 29.0 | 0.00 | 0.00 | 0.00 | 66 | 1016.4 |
| 20260831035320 | 30 | 360 | 14.5 | 27.4 | 0.00 | 0.00 | 0.00 | 66 | 1016.3 |
| 20260831035221 | 30 | 360 | 14.5 | 27.4 | 0.00 | 0.00 | 0.00 | 66 | 1016.3 |
| 20260831035120 | 30 | 360 | 14.5 | 29.0 | 0.00 | 0.00 | 0.00 | 66 | 1016.4 |
| 20260831035021 | 30 | 360 | 14.5 | 29.0 | 0.00 | 0.00 | 0.00 | 66 | 1016.3 |
| 20260831034941 | 30 | 360 | 16.1 | 29.0 | 0.00 | 0.00 | 0.00 | 66 | 1016.3 |
| 20260831034820 | 30 | 360 | 16.1 | 29.0 | 0.00 | 0.00 | 0.00 | 65 | 1016.2 |
| 20260831034741 | 30 | 360 | 16.1 | 29.0 | 0.00 | 0.00 | 0.00 | 65 | 1016.4 |
| 20260831034624 | 30 | 360 | 17.7 | 29.0 | 0.00 | 0.00 | 0.00 | 65 | 1016.2 |
| 20260831034525 | 30 | 360 | 17.7 | 29.0 | 0.00 | 0.00 | 0.00 | 65 | 1016.2 |
| 20260831034426 | 30 | 360 | 17.7 | 29.0 | 0.00 | 0.00 | 0.00 | 65 | 1016.2 |
| 20260831034347 | 30 | 360 | 17.7 | 29.0 | 0.00 | 0.00 | 0.00 | 65 | 1016.2 |
| 20260831034225 | 30 | 360 | 16.1 | 29.0 | 0.00 | 0.00 | 0.00 | 65 | 1016.2 |
| 20260831034126 | 30 | 360 | 14.5 | 37.0 | 0.00 | 0.00 | 0.00 | 65 | 1016.2 |
| 20260831034047 | 30 | 360 | 12.9 | 37.0 | 0.00 | 0.00 | 0.00 | 65 | 1016.1 |
| 20260831033926 | 30 | 360 | 14.5 | 37.0 | 0.00 | 0.00 | 0.00 | 65 | 1016.1 |
| 20260831033831 | 30 | 360 | 14.5 | 37.0 | 0.00 | 0.00 | 0.00 | 65 | 1016.1 |
| 20260831033732 | 30 | 360 | 14.5 | 37.0 | 0.00 | 0.00 | 0.00 | 64 | 1016.1 |
| 20260831033631 | 30 | 360 | 17.7 | 37.0 | 0.00 | 0.00 | 0.00 | 64 | 1016.1 |
| 20260831033552 | 30 | 360 | 22.5 | 37.0 | 0.00 | 0.00 | 0.00 | 64 | 1016.1 |
| 20260831033452 | 30 | 360 | 22.5 | 37.0 | 0.00 | 0.00 | 0.00 | 64 | 1016.1 |
| 20260831033331 | 30 | 360 | 22.5 | 37.0 | 0.00 | 0.00 | 0.00 | 64 | 1016.0 |
| 20260831033232 | 30 | 360 | 20.9 | 37.0 | 0.00 | 0.00 | 0.00 | 64 | 1016.0 |
| 20260831033116 | 30 | 360 | 17.7 | 32.2 | 0.00 | 0.00 | 0.00 | 64 | 1016.0 |
| 20260831033016 | 30 | 360 | 19.3 | 32.2 | 0.00 | 0.00 | 0.00 | 64 | 1016.0 |
| 20260831032916 | 30 | 360 | 16.1 | 32.2 | 0.00 | 0.00 | 0.00 | 63 | 1016.0 |
| 20260831032818 | 30 | 360 | 16.1 | 32.2 | 0.00 | 0.00 | 0.00 | 63 | 1015.9 |
| 20260831032717 | 30 | 360 | 16.1 | 35.4 | 0.00 | 0.00 | 0.00 | 63 | 1016.0 |
| 20260831032617 | 30 | 360 | 17.7 | 35.4 | 0.00 | 0.00 | 0.00 | 63 | 1015.9 |
| 20260831032517 | 30 | 360 | 20.9 | 35.4 | 0.00 | 0.00 | 0.00 | 63 | 1016.0 |
| 20260831032422 | 30 | 360 | 22.5 | 35.4 | 0.00 | 0.00 | 0.00 | 63 | 1015.9 |
| 20260831032343 | 30 | 360 | 24.1 | 35.4 | 0.00 | 0.00 | 0.00 | 63 | 1016.0 |
| 20260831032223 | 30 | 360 | 24.1 | 35.4 | 0.00 | 0.00 | 0.00 | 62 | 1015.9 |
| 20260831032123 | 30 | 360 | 22.5 | 35.4 | 0.00 | 0.00 | 0.00 | 62 | 1015.9 |
| 20260831032024 | 30 | 360 | 20.9 | 35.4 | 0.00 | 0.00 | 0.00 | 62 | 1015.9 |
| 20260831031925 | 30 | 360 | 19.3 | 35.4 | 0.00 | 0.00 | 0.00 | 62 | 1015.9 |
| 20260831031825 | 30 | 360 | 19.3 | 35.4 | 0.00 | 0.00 | 0.00 | 62 | 1015.9 |
| 20260831031730 | 30 | 360 | 22.5 | 35.4 | 0.00 | 0.00 | 0.00 | 62 | 1015.9 |
| 20260831031630 | 30 | 360 | 20.9 | 35.4 | 0.00 | 0.00 | 0.00 | 62 | 1015.9 |
| 20260831031530 | 30 | 360 | 20.9 | 35.4 | 0.00 | 0.00 | 0.00 | 62 | 1015.9 |
| 20260831031432 | 31 | 360 | 20.9 | 35.4 | 0.00 | 0.00 | 0.00 | 62 | 1015.9 |
| 20260831031330 | 31 | 360 | 22.5 | 35.4 | 0.00 | 0.00 | 0.00 | 61 | 1015.9 |
| 20260831031251 | 31 | 360 | 22.5 | 35.4 | 0.00 | 0.00 | 0.00 | 61 | 1015.8 |
| 20260831031151 | 31 | 360 | 22.5 | 35.4 | 0.00 | 0.00 | 0.00 | 61 | 1015.8 |
| 20260831031031 | 31 | 360 | 19.3 | 35.4 | 0.00 | 0.00 | 0.00 | 61 | 1015.8 |
| 20260831030916 | 31 | 360 | 12.9 | 32.2 | 0.00 | 0.00 | 0.00 | 61 | 1015.7 |
| 20260831030817 | 31 | 360 | 11.3 | 32.2 | 0.00 | 0.00 | 0.00 | 61 | 1015.7 |
| 20260831030737 | 31 | 360 | 12.9 | 32.2 | 0.00 | 0.00 | 0.00 | 61 | 1015.7 |
| 20260831030617 | 31 | 360 | 14.5 | 32.2 | 0.00 | 0.00 | 0.00 | 61 | 1015.7 |
| 20260831030538 | 31 | 360 | 19.3 | 32.2 | 0.00 | 0.00 | 0.00 | 61 | 1015.6 |
| 20260831030417 | 31 | 360 | 20.9 | 32.2 | 0.00 | 0.00 | 0.00 | 61 | 1015.6 |
| 20260831030317 | 31 | 360 | 20.9 | 32.2 | 0.00 | 0.00 | 0.00 | 61 | 1015.6 |
| 20260831030221 | 31 | 360 | 19.3 | 33.8 | 0.00 | 0.00 | 0.00 | 61 | 1015.6 |
| 20260831030122 | 31 | 360 | 17.7 | 33.8 | 0.00 | 0.00 | 0.00 | 61 | 1015.6 |
| 20260831030023 | 31 | 360 | 14.5 | 33.8 | 0.00 | 0.00 | 0.00 | 61 | 1015.6 |
| 20260831025923 | 31 | 360 | 14.5 | 33.8 | 0.00 | 0.00 | 0.00 | 61 | 1015.6 |
| 20260831025825 | 31 | 360 | 16.1 | 33.8 | 0.00 | 0.00 | 0.00 | 61 | 1015.6 |
| 20260831025725 | 31 | 360 | 17.7 | 33.8 | 0.00 | 0.00 | 0.00 | 61 | 1015.5 |
| 20260831025646 | 31 | 360 | 22.5 | 33.8 | 0.00 | 0.00 | 0.00 | 60 | 1015.6 |
| 20260831025529 | 31 | 360 | 20.9 | 33.8 | 0.00 | 0.00 | 0.00 | 60 | 1015.5 |
| 20260831025429 | 31 | 360 | 19.3 | 33.8 | 0.00 | 0.00 | 0.00 | 61 | 1015.5 |
| 20260831025330 | 31 | 360 | 17.7 | 29.0 | 0.00 | 0.00 | 0.00 | 61 | 1015.5 |
| 20260831025231 | 31 | 360 | 16.1 | 24.1 | 0.00 | 0.00 | 0.00 | 61 | 1015.4 |
| 20260831025130 | 31 | 360 | 16.1 | 24.1 | 0.00 | 0.00 | 0.00 | 61 | 1015.4 |
| 20260831025051 | 31 | 360 | 16.1 | 24.1 | 0.00 | 0.00 | 0.00 | 61 | 1015.5 |
| 20260831024931 | 31 | 360 | 16.1 | 22.5 | 0.00 | 0.00 | 0.00 | 61 | 1015.4 |
| 20260831024816 | 31 | 360 | 14.5 | 22.5 | 0.00 | 0.00 | 0.00 | 61 | 1015.4 |
| 20260831024716 | 31 | 360 | 12.9 | 22.5 | 0.00 | 0.00 | 0.00 | 61 | 1015.4 |
| 20260831024617 | 31 | 360 | 14.5 | 22.5 | 0.00 | 0.00 | 0.00 | 61 | 1015.4 |
| 20260831024518 | 31 | 360 | 14.5 | 22.5 | 0.00 | 0.00 | 0.00 | 61 | 1015.4 |
| 20260831024437 | 31 | 360 | 14.5 | 22.5 | 0.00 | 0.00 | 0.00 | 61 | 1015.4 |
| 20260831024316 | 31 | 360 | 12.9 | 20.9 | 0.00 | 0.00 | 0.00 | 61 | 1015.3 |
| 20260831024237 | 31 | 360 | 11.3 | 22.5 | 0.00 | 0.00 | 0.00 | 61 | 1015.3 |
| 20260831024157 | 31 | 360 | 11.3 | 22.5 | 0.00 | 0.00 | 0.00 | 61 | 1015.3 |
| 20260831024036 | 31 | 360 | 11.3 | 22.5 | 0.00 | 0.00 | 0.00 | 61 | 1015.3 |
| 20260831023919 | 31 | 360 | 12.9 | 32.2 | 0.00 | 0.00 | 0.00 | 61 | 1015.3 |
| 20260831023820 | 31 | 360 | 14.5 | 32.2 | 0.00 | 0.00 | 0.00 | 60 | 1015.2 |
| 20260831023720 | 31 | 360 | 14.5 | 32.2 | 0.00 | 0.00 | 0.00 | 60 | 1015.2 |
| 20260831023621 | 31 | 360 | 14.5 | 32.2 | 0.00 | 0.00 | 0.00 | 60 | 1015.2 |
| 20260831023522 | 31 | 360 | 12.9 | 32.2 | 0.00 | 0.00 | 0.00 | 60 | 1015.2 |
| 20260831023421 | 31 | 360 | 14.5 | 32.2 | 0.00 | 0.00 | 0.00 | 60 | 1015.1 |
| 20260831023342 | 31 | 360 | 16.1 | 32.2 | 0.00 | 0.00 | 0.00 | 60 | 1015.2 |
| 20260831023227 | 31 | 360 | 19.3 | 32.2 | 0.00 | 0.00 | 0.00 | 60 | 1015.1 |
| 20260831023129 | 31 | 165 | 20.9 | 32.2 | 0.00 | 0.00 | 0.00 | 60 | 1015.2 |
| 20260831023030 | 31 | 360 | 19.3 | 30.6 | 0.00 | 0.00 | 0.00 | 59 | 1015.1 |
| 20260831022931 | 31 | 360 | 19.3 | 30.6 | 0.00 | 0.00 | 0.00 | 59 | 1015.1 |
| 20260831022853 | 31 | 360 | 20.9 | 30.6 | 0.00 | 0.00 | 0.00 | 59 | 1015.1 |
| 20260831022732 | 31 | 360 | 20.9 | 30.6 | 0.00 | 0.00 | 0.00 | 59 | 1015.0 |
| 20260831022617 | 31 | 360 | 19.3 | 30.6 | 0.00 | 0.00 | 0.00 | 59 | 1015.0 |
| 20260831022517 | 31 | 360 | 17.7 | 30.6 | 0.00 | 0.00 | 0.00 | 59 | 1015.0 |
| 20260831022419 | 31 | 360 | 14.5 | 25.7 | 0.00 | 0.00 | 0.00 | 58 | 1015.0 |
| 20260831022318 | 31 | 360 | 16.1 | 25.7 | 0.00 | 0.00 | 0.00 | 58 | 1015.0 |
| 20260831022240 | 31 | 360 | 14.5 | 24.1 | 0.00 | 0.00 | 0.00 | 57 | 1015.0 |
| 20260831022120 | 31 | 158 | 16.1 | 24.1 | 0.00 | 0.00 | 0.00 | 57 | 1014.9 |
| 20260831022020 | 31 | 360 | 16.1 | 24.1 | 0.00 | 0.00 | 0.00 | 57 | 1014.9 |
| 20260831021941 | 31 | 360 | 16.1 | 24.1 | 0.00 | 0.00 | 0.00 | 57 | 1014.9 |
| 20260831021825 | 31 | 360 | 16.1 | 24.1 | 0.00 | 0.00 | 0.00 | 57 | 1014.9 |
| 20260831021724 | 31 | 360 | 16.1 | 24.1 | 0.00 | 0.00 | 0.00 | 57 | 1014.9 |
| 20260831021626 | 31 | 360 | 16.1 | 24.1 | 0.00 | 0.00 | 0.00 | 56 | 1014.9 |
| 20260831021526 | 31 | 360 | 12.9 | 24.1 | 0.00 | 0.00 | 0.00 | 56 | 1015.0 |
| 20260831021427 | 32 | 360 | 12.9 | 27.4 | 0.00 | 0.00 | 0.00 | 56 | 1014.8 |
| 20260831021327 | 32 | 360 | 12.9 | 27.4 | 0.00 | 0.00 | 0.00 | 56 | 1014.9 |
| 20260831021233 | 32 | 360 | 12.9 | 27.4 | 0.00 | 0.00 | 0.00 | 56 | 1014.8 |
| 20260831021153 | 32 | 360 | 14.5 | 27.4 | 0.00 | 0.00 | 0.00 | 56 | 1014.8 |
| 20260831021032 | 32 | 360 | 12.9 | 29.0 | 0.00 | 0.00 | 0.00 | 56 | 1014.8 |
| 20260831020933 | 32 | 360 | 14.5 | 29.0 | 0.00 | 0.00 | 0.00 | 56 | 1014.8 |
| 20260831020833 | 32 | 360 | 17.7 | 29.0 | 0.00 | 0.00 | 0.00 | 56 | 1014.8 |
| 20260831020733 | 32 | 360 | 17.7 | 29.0 | 0.00 | 0.00 | 0.00 | 56 | 1014.8 |
| 20260831020654 | 32 | 360 | 17.7 | 29.0 | 0.00 | 0.00 | 0.00 | 56 | 1014.8 |
| 20260831020517 | 32 | 360 | 16.1 | 33.8 | 0.00 | 0.00 | 0.00 | 55 | 1014.7 |
| 20260831020417 | 32 | 360 | 19.3 | 33.8 | 0.00 | 0.00 | 0.00 | 55 | 1014.8 |
| 20260831020320 | 32 | 360 | 19.3 | 33.8 | 0.00 | 0.00 | 0.00 | 55 | 1014.7 |
| 20260831020220 | 32 | 360 | 17.7 | 33.8 | 0.00 | 0.00 | 0.00 | 55 | 1014.7 |
| 20260831020122 | 32 | 360 | 16.1 | 33.8 | 0.00 | 0.00 | 0.00 | 54 | 1014.7 |
| 20260831020042 | 32 | 360 | 17.7 | 33.8 | 0.00 | 0.00 | 0.00 | 54 | 1014.6 |
| 20260831015923 | 32 | 360 | 17.7 | 33.8 | 0.00 | 0.00 | 0.00 | 54 | 1014.6 |
| 20260831015828 | 32 | 360 | 19.3 | 30.6 | 0.00 | 0.00 | 0.00 | 54 | 1014.5 |
| 20260831015749 | 32 | 360 | 20.9 | 30.6 | 0.00 | 0.00 | 0.00 | 54 | 1014.6 |
| 20260831015628 | 32 | 360 | 20.9 | 30.6 | 0.00 | 0.00 | 0.00 | 53 | 1014.6 |
| 20260831015528 | 32 | 360 | 20.9 | 30.6 | 0.00 | 0.00 | 0.00 | 53 | 1014.6 |
| 20260831015429 | 32 | 360 | 19.3 | 27.4 | 0.00 | 0.00 | 0.00 | 53 | 1014.5 |
| 20260831015349 | 32 | 360 | 14.5 | 24.1 | 0.00 | 0.00 | 0.00 | 53 | 1014.5 |
| 20260831015228 | 32 | 360 | 12.9 | 24.1 | 0.00 | 0.00 | 0.00 | 52 | 1014.5 |
| 20260831015148 | 32 | 360 | 11.3 | 24.1 | 0.00 | 0.00 | 0.00 | 52 | 1014.4 |
| 20260831015033 | 32 | 360 | 11.3 | 24.1 | 0.00 | 0.00 | 0.00 | 52 | 1014.5 |
| 20260831014932 | 32 | 360 | 11.3 | 24.1 | 0.00 | 0.00 | 0.00 | 52 | 1014.5 |
| 20260831014833 | 32 | 360 | 11.3 | 22.5 | 0.00 | 0.00 | 0.00 | 52 | 1014.4 |
| 20260831014753 | 32 | 360 | 11.3 | 22.5 | 0.00 | 0.00 | 0.00 | 52 | 1014.4 |
| 20260831014632 | 32 | 360 | 14.5 | 22.5 | 0.00 | 0.00 | 0.00 | 52 | 1014.4 |
| 20260831014551 | 32 | 360 | 14.5 | 22.5 | 0.00 | 0.00 | 0.00 | 52 | 1014.4 |
| 20260831014431 | 32 | 360 | 16.1 | 22.5 | 0.00 | 0.00 | 0.00 | 52 | 1014.4 |
| 20260831014351 | 32 | 360 | 16.1 | 22.5 | 0.00 | 0.00 | 0.00 | 52 | 1014.4 |
| 20260831014231 | 32 | 360 | 16.1 | 22.5 | 0.00 | 0.00 | 0.00 | 51 | 1014.4 |
| 20260831014151 | 32 | 360 | 14.5 | 22.5 | 0.00 | 0.00 | 0.00 | 51 | 1014.4 |
| 20260831014034 | 32 | 360 | 12.9 | 19.3 | 0.00 | 0.00 | 0.00 | 50 | 1014.3 |
| 20260831013935 | 32 | 360 | 11.3 | 14.5 | 0.00 | 0.00 | 0.00 | 50 | 1014.3 |
| 20260831013853 | 32 | 360 | 9.7 | 14.5 | 0.00 | 0.00 | 0.00 | 50 | 1014.3 |
| 20260831013733 | 32 | 360 | 8.0 | 14.5 | 0.00 | 0.00 | 0.00 | 50 | 1014.3 |
| 20260831013632 | 32 | 360 | 8.0 | 9.7 | 0.00 | 0.00 | 0.00 | 50 | 1014.2 |
| 20260831013554 | 32 | 360 | 6.4 | 8.0 | 0.00 | 0.00 | 0.00 | 50 | 1014.1 |
| 20260831013432 | 32 | 360 | 6.4 | 8.0 | 0.00 | 0.00 | 0.00 | 50 | 1014.1 |
| 20260831013317 | 32 | 360 | 6.4 | 8.0 | 0.00 | 0.00 | 0.00 | 49 | 1014.1 |
| 20260831013217 | 32 | 360 | 6.4 | 8.0 | 0.00 | 0.00 | 0.00 | 49 | 1014.1 |
| 20260831013118 | 32 | 167 | 6.4 | 8.0 | 0.00 | 0.00 | 0.00 | 49 | 1014.1 |
| 20260831013038 | 32 | 360 | 6.4 | 8.0 | 0.00 | 0.00 | 0.00 | 49 | 1014.1 |
| 20260831012917 | 32 | 360 | 4.8 | 8.0 | 0.00 | 0.00 | 0.00 | 49 | 1014.0 |
| 20260831012820 | 32 | 360 | 4.8 | 8.0 | 0.00 | 0.00 | 0.00 | 49 | 1014.0 |
| 20260831012740 | 32 | 360 | 4.8 | 8.0 | 0.00 | 0.00 | 0.00 | 49 | 1014.0 |
| 20260831012623 | 32 | 360 | 4.8 | 8.0 | 0.00 | 0.00 | 0.00 | 49 | 1014.0 |
| 20260831012544 | 32 | 360 | 4.8 | 9.7 | 0.00 | 0.00 | 0.00 | 49 | 1014.0 |
| 20260831012443 | 32 | 360 | 4.8 | 9.7 | 0.00 | 0.00 | 0.00 | 49 | 1014.0 |
| 20260831012343 | 32 | 360 | 4.8 | 9.7 | 0.00 | 0.00 | 0.00 | 49 | 1014.0 |
| 20260831012222 | 32 | 360 | 4.8 | 9.7 | 0.00 | 0.00 | 0.00 | 49 | 1014.0 |
| 20260831012123 | 32 | 360 | 4.8 | 9.7 | 0.00 | 0.00 | 0.00 | 49 | 1014.0 |
| 20260831012023 | 32 | 360 | 6.4 | 9.7 | 0.00 | 0.00 | 0.00 | 49 | 1013.9 |
| 20260831011925 | 32 | 360 | 6.4 | 9.7 | 0.00 | 0.00 | 0.00 | 49 | 1013.9 |
| 20260831011824 | 32 | 360 | 6.4 | 9.7 | 0.00 | 0.00 | 0.00 | 49 | 1014.0 |
| 20260831011728 | 32 | 360 | 6.4 | 9.7 | 0.00 | 0.00 | 0.00 | 49 | 1013.9 |
| 20260831011629 | 32 | 360 | 6.4 | 12.9 | 0.00 | 0.00 | 0.00 | 49 | 1013.9 |
| 20260831011529 | 32 | 360 | 6.4 | 16.1 | 0.00 | 0.00 | 0.00 | 49 | 1013.9 |
| 20260831011429 | 32 | 360 | 6.4 | 16.1 | 0.00 | 0.00 | 0.00 | 49 | 1013.9 |
| 20260831011329 | 32 | 360 | 6.4 | 16.1 | 0.00 | 0.00 | 0.00 | 49 | 1014.0 |
| 20260831011231 | 32 | 360 | 6.4 | 16.1 | 0.00 | 0.00 | 0.00 | 49 | 1014.0 |
| 20260831011116 | 32 | 360 | 6.4 | 16.1 | 0.00 | 0.00 | 0.00 | 49 | 1014.0 |
| 20260831011016 | 32 | 360 | 8.0 | 16.1 | 0.00 | 0.00 | 0.00 | 49 | 1014.0 |
| 20260831010916 | 32 | 360 | 8.0 | 16.1 | 0.00 | 0.00 | 0.00 | 48 | 1014.0 |
| 20260831010818 | 33 | 360 | 8.0 | 16.1 | 0.00 | 0.00 | 0.00 | 48 | 1014.0 |
| 20260831010738 | 33 | 360 | 8.0 | 16.1 | 0.00 | 0.00 | 0.00 | 48 | 1014.1 |
| 20260831010638 | 33 | 360 | 8.0 | 16.1 | 0.00 | 0.00 | 0.00 | 48 | 1014.1 |
| 20260831010518 | 33 | 360 | 8.0 | 16.1 | 0.00 | 0.00 | 0.00 | 48 | 1014.0 |
| 20260831010422 | 33 | 360 | 8.0 | 16.1 | 0.00 | 0.00 | 0.00 | 48 | 1014.0 |
| 20260831010323 | 33 | 360 | 6.4 | 9.7 | 0.00 | 0.00 | 0.00 | 48 | 1014.0 |
| 20260831010224 | 33 | 360 | 6.4 | 9.7 | 0.00 | 0.00 | 0.00 | 48 | 1014.0 |
| 20260831010125 | 33 | 360 | 6.4 | 9.7 | 0.00 | 0.00 | 0.00 | 48 | 1013.9 |
| 20260831010046 | 33 | 360 | 6.4 | 8.0 | 0.00 | 0.00 | 0.00 | 48 | 1013.9 |
| 20260831005925 | 33 | 360 | 6.4 | 8.0 | 0.00 | 0.00 | 0.00 | 48 | 1014.0 |
| 20260831005827 | 33 | 360 | 4.8 | 8.0 | 0.00 | 0.00 | 0.00 | 48 | 1013.9 |
| 20260831005730 | 33 | 165 | 4.8 | 9.7 | 0.00 | 0.00 | 0.00 | 48 | 1014.0 |
| 20260831005631 | 33 | 360 | 4.8 | 9.7 | 0.00 | 0.00 | 0.00 | 48 | 1013.9 |
| 20260831005532 | 33 | 360 | 4.8 | 9.7 | 0.00 | 0.00 | 0.00 | 48 | 1014.0 |
| 20260831005433 | 33 | 165 | 4.8 | 9.7 | 0.00 | 0.00 | 0.00 | 48 | 1013.9 |
| 20260831005332 | 33 | 165 | 4.8 | 9.7 | 0.00 | 0.00 | 0.00 | 47 | 1013.9 |
| 20260831005233 | 33 | 360 | 4.8 | 9.7 | 0.00 | 0.00 | 0.00 | 47 | 1013.9 |
| 20260831005118 | 33 | 360 | 6.4 | 9.7 | 0.00 | 0.00 | 0.00 | 47 | 1013.9 |
| 20260831005019 | 33 | 360 | 6.4 | 9.7 | 0.00 | 0.00 | 0.00 | 47 | 1013.8 |
| 20260831004919 | 33 | 360 | 6.4 | 9.7 | 0.00 | 0.00 | 0.00 | 47 | 1013.9 |
| 20260831004841 | 33 | 360 | 6.4 | 9.7 | 0.00 | 0.00 | 0.00 | 47 | 1013.8 |
| 20260831004721 | 33 | 360 | 4.8 | 9.7 | 0.00 | 0.00 | 0.00 | 47 | 1013.9 |
| 20260831004622 | 33 | 360 | 6.4 | 9.7 | 0.00 | 0.00 | 0.00 | 47 | 1014.0 |
| 20260831004522 | 33 | 360 | 4.8 | 9.7 | 0.00 | 0.00 | 0.00 | 47 | 1013.9 |
| 20260831004442 | 33 | 360 | 4.8 | 9.7 | 0.00 | 0.00 | 0.00 | 46 | 1013.9 |
| 20260831004325 | 33 | 360 | 6.4 | 9.7 | 0.00 | 0.00 | 0.00 | 46 | 1014.0 |
| 20260831004226 | 33 | 360 | 6.4 | 9.7 | 0.00 | 0.00 | 0.00 | 46 | 1013.9 |
| 20260831004128 | 33 | 360 | 6.4 | 14.5 | 0.00 | 0.00 | 0.00 | 46 | 1013.9 |
| 20260831004029 | 33 | 360 | 6.4 | 14.5 | 0.00 | 0.00 | 0.00 | 46 | 1013.8 |
| 20260831003929 | 33 | 360 | 6.4 | 14.5 | 0.00 | 0.00 | 0.00 | 46 | 1013.8 |
| 20260831003831 | 33 | 360 | 6.4 | 14.5 | 0.00 | 0.00 | 0.00 | 45 | 1013.8 |
| 20260831003734 | 33 | 360 | 6.4 | 14.5 | 0.00 | 0.00 | 0.00 | 45 | 1013.9 |
| 20260831003616 | 34 | 360 | 6.4 | 14.5 | 0.00 | 0.00 | 0.00 | 45 | 1013.8 |
| 20260831003517 | 34 | 360 | 6.4 | 16.1 | 0.00 | 0.00 | 0.00 | 45 | 1013.8 |
| 20260831003416 | 34 | 360 | 6.4 | 16.1 | 0.00 | 0.00 | 0.00 | 45 | 1013.8 |
| 20260831003338 | 34 | 360 | 6.4 | 16.1 | 0.00 | 0.00 | 0.00 | 45 | 1013.8 |
| 20260831003216 | 34 | 360 | 6.4 | 16.1 | 0.00 | 0.00 | 0.00 | 45 | 1013.7 |
| 20260831003117 | 34 | 360 | 8.0 | 20.9 | 0.00 | 0.00 | 0.00 | 45 | 1013.8 |
| 20260831003021 | 34 | 360 | 9.7 | 20.9 | 0.00 | 0.00 | 0.00 | 44 | 1013.9 |
| 20260831002922 | 34 | 360 | 9.7 | 20.9 | 0.00 | 0.00 | 0.00 | 44 | 1013.8 |
| 20260831002843 | 34 | 360 | 9.7 | 24.1 | 0.00 | 0.00 | 0.00 | 44 | 1013.8 |
| 20260831002722 | 34 | 360 | 8.0 | 24.1 | 0.00 | 0.00 | 0.00 | 45 | 1013.8 |
| 20260831002642 | 34 | 360 | 9.7 | 24.1 | 0.00 | 0.00 | 0.00 | 44 | 1013.9 |
| 20260831002522 | 34 | 360 | 11.3 | 24.1 | 0.00 | 0.00 | 0.00 | 44 | 1013.8 |
| 20260831002422 | 34 | 360 | 12.9 | 24.1 | 0.00 | 0.00 | 0.00 | 44 | 1013.8 |
| 20260831002323 | 34 | 360 | 14.5 | 24.1 | 0.00 | 0.00 | 0.00 | 43 | 1013.8 |
| 20260831002228 | 35 | 360 | 16.1 | 24.1 | 0.00 | 0.00 | 0.00 | 43 | 1013.7 |
| 20260831002127 | 35 | 360 | 16.1 | 24.1 | 0.00 | 0.00 | 0.00 | 43 | 1013.8 |
| 20260831002028 | 35 | 360 | 14.5 | 24.1 | 0.00 | 0.00 | 0.00 | 43 | 1013.7 |
| 20260831001930 | 35 | 360 | 11.3 | 22.5 | 0.00 | 0.00 | 0.00 | 44 | 1013.7 |
| 20260831001831 | 35 | 360 | 11.3 | 22.5 | 0.00 | 0.00 | 0.00 | 44 | 1013.8 |
| 20260831001731 | 35 | 360 | 11.3 | 22.5 | 0.00 | 0.00 | 0.00 | 45 | 1013.7 |
| 20260831001617 | 35 | 360 | 9.7 | 22.5 | 0.00 | 0.00 | 0.00 | 45 | 1013.8 |
| 20260831001516 | 35 | 360 | 12.9 | 22.5 | 0.00 | 0.00 | 0.00 | 45 | 1013.7 |
| 20260831001437 | 35 | 360 | 14.5 | 22.5 | 0.00 | 0.00 | 0.00 | 45 | 1013.7 |
| 20260831001336 | 35 | 360 | 14.5 | 22.5 | 0.00 | 0.00 | 0.00 | 45 | 1013.6 |
| 20260831001257 | 35 | 360 | 16.1 | 22.5 | 0.00 | 0.00 | 0.00 | 45 | 1013.7 |
| 20260831001116 | 35 | 360 | 12.9 | 19.3 | 0.00 | 0.00 | 0.00 | 45 | 1013.6 |
| 20260831001017 | 35 | 360 | 11.3 | 19.3 | 0.00 | 0.00 | 0.00 | 45 | 1013.7 |
| 20260831000917 | 35 | 360 | 9.7 | 17.7 | 0.00 | 0.00 | 0.00 | 46 | 1013.7 |
| 20260831000823 | 35 | 360 | 8.0 | 17.7 | 0.00 | 0.00 | 0.00 | 46 | 1013.7 |
| 20260831000722 | 35 | 360 | 8.0 | 17.7 | 0.00 | 0.00 | 0.00 | 45 | 1013.7 |
| 20260831000643 | 35 | 360 | 6.4 | 17.7 | 0.00 | 0.00 | 0.00 | 45 | 1013.7 |
| 20260831000541 | 35 | 360 | 6.4 | 17.7 | 0.00 | 0.00 | 0.00 | 45 | 1013.7 |
| 20260831000420 | 35 | 360 | 6.4 | 17.7 | 0.00 | 0.00 | 0.00 | 45 | 1013.7 |
| 20260831000320 | 35 | 360 | 6.4 | 14.5 | 0.00 | 0.00 | 0.00 | 46 | 1013.7 |
| 20260831000220 | 35 | 360 | 4.8 | 14.5 | 0.00 | 0.00 | 0.00 | 45 | 1013.7 |
| 20260831000121 | 35 | 360 | 4.8 | 14.5 | 0.00 | 0.00 | 0.00 | 44 | 1013.7 |
| 20260831000025 | 35 | 360 | 6.4 | 14.5 | 0.00 | 0.00 | 0.00 | 45 | 1013.7 |
| 20260830235925 | 35 | 360 | 6.4 | 14.5 | 0.00 | 0.00 | 0.00 | 45 | 1013.7 |
| 20260830235846 | 35 | 360 | 6.4 | 17.7 | 0.00 | 0.00 | 0.00 | 45 | 1013.7 |
| 20260830235725 | 35 | 360 | 6.4 | 17.7 | 0.00 | 0.00 | 0.00 | 45 | 1013.7 |
| 20260830235626 | 35 | 360 | 6.4 | 17.7 | 0.00 | 0.00 | 0.00 | 45 | 1013.7 |
| 20260830235528 | 35 | 360 | 6.4 | 17.7 | 0.00 | 0.00 | 0.00 | 45 | 1013.7 |
| 20260830235428 | 35 | 360 | 4.8 | 17.7 | 0.00 | 0.00 | 0.00 | 45 | 1013.6 |
| 20260830235333 | 35 | 184 | 6.4 | 17.7 | 0.00 | 0.00 | 0.00 | 45 | 1013.7 |
| 20260830235254 | 35 | 360 | 8.0 | 17.7 | 0.00 | 0.00 | 0.00 | 45 | 1013.5 |
| 20260830235154 | 35 | 360 | 9.7 | 17.7 | 0.00 | 0.00 | 0.00 | 45 | 1013.6 |
| 20260830235035 | 35 | 360 | 11.3 | 17.7 | 0.00 | 0.00 | 0.00 | 44 | 1013.7 |
| 20260830234916 | 35 | 360 | 9.7 | 17.7 | 0.00 | 0.00 | 0.00 | 44 | 1013.7 |
| 20260830234815 | 35 | 360 | 9.7 | 17.7 | 0.00 | 0.00 | 0.00 | 44 | 1013.7 |
| 20260830234716 | 35 | 360 | 9.7 | 17.7 | 0.00 | 0.00 | 0.00 | 45 | 1013.8 |
| 20260830234620 | 35 | 360 | 11.3 | 17.7 | 0.00 | 0.00 | 0.00 | 45 | 1013.7 |
| 20260830234541 | 35 | 360 | 11.3 | 17.7 | 0.00 | 0.00 | 0.00 | 45 | 1013.7 |
| 20260830234422 | 35 | 165 | 9.7 | 17.7 | 0.00 | 0.00 | 0.00 | 45 | 1013.8 |
| 20260830234321 | 35 | 360 | 6.4 | 16.1 | 0.00 | 0.00 | 0.00 | 44 | 1013.8 |
| 20260830234242 | 35 | 360 | 6.4 | 17.7 | 0.00 | 0.00 | 0.00 | 44 | 1013.8 |
| 20260830234121 | 35 | 360 | 4.8 | 17.7 | 0.00 | 0.00 | 0.00 | 45 | 1013.8 |
| 20260830234022 | 35 | 360 | 4.8 | 17.7 | 0.00 | 0.00 | 0.00 | 44 | 1013.8 |
| 20260830233922 | 35 | 360 | 6.4 | 17.7 | 0.00 | 0.00 | 0.00 | 44 | 1013.8 |
| 20260830233828 | 35 | 360 | 4.8 | 17.7 | 0.00 | 0.00 | 0.00 | 44 | 1013.8 |
| 20260830233727 | 35 | 360 | 6.4 | 17.7 | 0.00 | 0.00 | 0.00 | 44 | 1013.8 |
| 20260830233628 | 35 | 360 | 8.0 | 17.7 | 0.00 | 0.00 | 0.00 | 44 | 1013.8 |
| 20260830233529 | 35 | 360 | 9.7 | 17.7 | 0.00 | 0.00 | 0.00 | 44 | 1013.9 |
| 20260830233429 | 35 | 360 | 9.7 | 17.7 | 0.00 | 0.00 | 0.00 | 44 | 1013.9 |
| 20260830233329 | 35 | 360 | 9.7 | 17.7 | 0.00 | 0.00 | 0.00 | 43 | 1013.9 |
| 20260830233247 | 35 | 360 | 6.4 | 12.9 | 0.00 | 0.00 | 0.00 | 44 | 1013.9 |
| 20260830233131 | 35 | 360 | 6.4 | 9.7 | 0.00 | 0.00 | 0.00 | 42 | 1013.9 |
| 20260830233052 | 35 | 360 | 6.4 | 14.5 | 0.00 | 0.00 | 0.00 | 43 | 1013.8 |
| 20260830232931 | 35 | 360 | 6.4 | 14.5 | 0.00 | 0.00 | 0.00 | 43 | 1013.8 |
| 20260830232832 | 35 | 360 | 4.8 | 14.5 | 0.00 | 0.00 | 0.00 | 44 | 1013.8 |
| 20260830232752 | 35 | 360 | 4.8 | 14.5 | 0.00 | 0.00 | 0.00 | 44 | 1013.8 |
| 20260830232632 | 35 | 360 | 4.8 | 14.5 | 0.00 | 0.00 | 0.00 | 43 | 1013.8 |
| 20260830232553 | 35 | 360 | 4.8 | 14.5 | 0.00 | 0.00 | 0.00 | 43 | 1013.8 |
| 20260830232432 | 35 | 360 | 3.2 | 14.5 | 0.00 | 0.00 | 0.00 | 43 | 1013.8 |
| 20260830232335 | 35 | 360 | 4.8 | 16.1 | 0.00 | 0.00 | 0.00 | 44 | 1013.9 |
| 20260830232216 | 35 | 360 | 4.8 | 16.1 | 0.00 | 0.00 | 0.00 | 44 | 1013.9 |
| 20260830232116 | 35 | 360 | 8.0 | 16.1 | 0.00 | 0.00 | 0.00 | 44 | 1013.9 |
| 20260830232016 | 35 | 360 | 8.0 | 16.1 | 0.00 | 0.00 | 0.00 | 44 | 1013.8 |
| 20260830231917 | 35 | 360 | 9.7 | 16.1 | 0.00 | 0.00 | 0.00 | 44 | 1013.9 |
| 20260830231817 | 35 | 360 | 9.7 | 16.1 | 0.00 | 0.00 | 0.00 | 43 | 1013.9 |
| 20260830231722 | 35 | 197 | 9.7 | 16.1 | 0.00 | 0.00 | 0.00 | 43 | 1013.9 |
| 20260830231622 | 35 | 360 | 8.0 | 16.1 | 0.00 | 0.00 | 0.00 | 44 | 1013.9 |
| 20260830231522 | 35 | 360 | 8.0 | 16.1 | 0.00 | 0.00 | 0.00 | 44 | 1013.8 |
| 20260830231422 | 35 | 360 | 9.7 | 16.1 | 0.00 | 0.00 | 0.00 | 44 | 1013.8 |
| 20260830231322 | 35 | 360 | 9.7 | 16.1 | 0.00 | 0.00 | 0.00 | 43 | 1013.8 |
| 20260830231223 | 35 | 360 | 11.3 | 16.1 | 0.00 | 0.00 | 0.00 | 43 | 1013.8 |
| 20260830231124 | 35 | 360 | 9.7 | 16.1 | 0.00 | 0.00 | 0.00 | 43 | 1013.8 |
| 20260830231028 | 35 | 360 | 8.0 | 16.1 | 0.00 | 0.00 | 0.00 | 43 | 1013.8 |
| 20260830230929 | 35 | 360 | 6.4 | 14.5 | 0.00 | 0.00 | 0.00 | 43 | 1013.9 |
| 20260830230830 | 35 | 360 | 4.8 | 14.5 | 0.00 | 0.00 | 0.00 | 43 | 1013.8 |
| 20260830230731 | 35 | 360 | 3.2 | 14.5 | 0.00 | 0.00 | 0.00 | 42 | 1013.9 |
| 20260830230652 | 35 | 360 | 3.2 | 14.5 | 0.00 | 0.00 | 0.00 | 42 | 1013.9 |
| 20260830230531 | 35 | 360 | 4.8 | 14.5 | 0.00 | 0.00 | 0.00 | 43 | 1013.8 |
| 20260830230431 | 35 | 360 | 4.8 | 17.7 | 0.00 | 0.00 | 0.00 | 42 | 1013.8 |
| 20260830230316 | 35 | 360 | 6.4 | 17.7 | 0.00 | 0.00 | 0.00 | 44 | 1013.9 |
| 20260830230217 | 35 | 360 | 6.4 | 17.7 | 0.00 | 0.00 | 0.00 | 44 | 1013.9 |
| 20260830230118 | 35 | 360 | 6.4 | 17.7 | 0.00 | 0.00 | 0.00 | 43 | 1013.9 |
| 20260830230019 | 35 | 360 | 6.4 | 17.7 | 0.00 | 0.00 | 0.00 | 43 | 1013.9 |
| 20260830225920 | 35 | 360 | 8.0 | 17.7 | 0.00 | 0.00 | 0.00 | 42 | 1014.0 |
| 20260830225822 | 35 | 360 | 8.0 | 17.7 | 0.00 | 0.00 | 0.00 | 42 | 1013.9 |